<?xml version='1.0' encoding='UTF-8'?>
<gpx version="1.1" creator="https://www.komoot.de" xmlns="http://www.topografix.com/GPX/1/1" xmlns:xsi="http://www.w3.org/2001/XMLSchema-instance" xsi:schemaLocation="http://www.topografix.com/GPX/1/1 http://www.topografix.com/GPX/1/1/gpx.xsd">
  <metadata>
    <name>64_690Boezbergbuerensteigg</name>
    <author>
      <link href="https://www.komoot.de">
        <text>komoot</text>
        <type>text/html</type>
      </link>
    </author>
  </metadata>
  <trk>
    <name>64_690Boezbergbuerensteigg</name>
    <trkseg>
      <trkpt lat="47.541248" lon="7.870925">
        <ele>340.733591</ele>
        <time>2021-11-17T23:14:55.785Z</time>
      </trkpt>
      <trkpt lat="47.541410" lon="7.870791">
        <ele>340.733591</ele>
        <time>2021-11-17T23:14:58.598Z</time>
      </trkpt>
      <trkpt lat="47.541576" lon="7.870664">
        <ele>340.733591</ele>
        <time>2021-11-17T23:15:02.694Z</time>
      </trkpt>
      <trkpt lat="47.541768" lon="7.870994">
        <ele>340.733591</ele>
        <time>2021-11-17T23:15:08.988Z</time>
      </trkpt>
      <trkpt lat="47.541796" lon="7.871042">
        <ele>340.733591</ele>
        <time>2021-11-17T23:15:09.800Z</time>
      </trkpt>
      <trkpt lat="47.541953" lon="7.871286">
        <ele>340.867028</ele>
        <time>2021-11-17T23:15:14.673Z</time>
      </trkpt>
      <trkpt lat="47.542039" lon="7.871556">
        <ele>341.583776</ele>
        <time>2021-11-17T23:15:19.001Z</time>
      </trkpt>
      <trkpt lat="47.542067" lon="7.871664">
        <ele>341.861526</ele>
        <time>2021-11-17T23:15:20.689Z</time>
      </trkpt>
      <trkpt lat="47.542091" lon="7.871721">
        <ele>342.022808</ele>
        <time>2021-11-17T23:15:21.306Z</time>
      </trkpt>
      <trkpt lat="47.542218" lon="7.871866">
        <ele>342.593061</ele>
        <time>2021-11-17T23:15:26.385Z</time>
      </trkpt>
      <trkpt lat="47.542394" lon="7.872341">
        <ele>343.893921</ele>
        <time>2021-11-17T23:15:36.426Z</time>
      </trkpt>
      <trkpt lat="47.542436" lon="7.872494">
        <ele>344.290448</ele>
        <time>2021-11-17T23:15:39.838Z</time>
      </trkpt>
      <trkpt lat="47.542537" lon="7.872430">
        <ele>344.681133</ele>
        <time>2021-11-17T23:15:41.977Z</time>
      </trkpt>
      <trkpt lat="47.542714" lon="7.872334">
        <ele>345.351491</ele>
        <time>2021-11-17T23:15:48.885Z</time>
      </trkpt>
      <trkpt lat="47.542814" lon="7.872280">
        <ele>345.730029</ele>
        <time>2021-11-17T23:15:51.898Z</time>
      </trkpt>
      <trkpt lat="47.542919" lon="7.872226">
        <ele>346.125321</ele>
        <time>2021-11-17T23:15:55.737Z</time>
      </trkpt>
      <trkpt lat="47.543013" lon="7.872182">
        <ele>346.475920</ele>
        <time>2021-11-17T23:15:59.243Z</time>
      </trkpt>
      <trkpt lat="47.543233" lon="7.872082">
        <ele>347.419322</ele>
        <time>2021-11-17T23:16:06.482Z</time>
      </trkpt>
      <trkpt lat="47.543251" lon="7.872152">
        <ele>347.736239</ele>
        <time>2021-11-17T23:16:09.856Z</time>
      </trkpt>
      <trkpt lat="47.543332" lon="7.872237">
        <ele>348.358377</ele>
        <time>2021-11-17T23:16:13.161Z</time>
      </trkpt>
      <trkpt lat="47.544390" lon="7.872423">
        <ele>355.035974</ele>
        <time>2021-11-17T23:16:54.880Z</time>
      </trkpt>
      <trkpt lat="47.544883" lon="7.872555">
        <ele>358.175936</ele>
        <time>2021-11-17T23:17:17.289Z</time>
      </trkpt>
      <trkpt lat="47.545131" lon="7.872664">
        <ele>359.888202</ele>
        <time>2021-11-17T23:17:28.293Z</time>
      </trkpt>
      <trkpt lat="47.545375" lon="7.872836">
        <ele>361.692295</ele>
        <time>2021-11-17T23:17:39.234Z</time>
      </trkpt>
      <trkpt lat="47.545478" lon="7.872968">
        <ele>362.601579</ele>
        <time>2021-11-17T23:17:46.042Z</time>
      </trkpt>
      <trkpt lat="47.545515" lon="7.873015">
        <ele>362.926987</ele>
        <time>2021-11-17T23:17:47.998Z</time>
      </trkpt>
      <trkpt lat="47.545746" lon="7.873302">
        <ele>364.939835</ele>
        <time>2021-11-17T23:18:01.198Z</time>
      </trkpt>
      <trkpt lat="47.545934" lon="7.873549">
        <ele>366.617511</ele>
        <time>2021-11-17T23:18:11.298Z</time>
      </trkpt>
      <trkpt lat="47.546077" lon="7.873763">
        <ele>367.974585</ele>
        <time>2021-11-17T23:18:20.494Z</time>
      </trkpt>
      <trkpt lat="47.546135" lon="7.873859">
        <ele>368.555214</ele>
        <time>2021-11-17T23:18:23.733Z</time>
      </trkpt>
      <trkpt lat="47.546309" lon="7.874154">
        <ele>370.320728</ele>
        <time>2021-11-17T23:18:34.848Z</time>
      </trkpt>
      <trkpt lat="47.547126" lon="7.875801">
        <ele>376.012716</ele>
        <time>2021-11-17T23:19:20.609Z</time>
      </trkpt>
      <trkpt lat="47.547574" lon="7.876801">
        <ele>377.627761</ele>
        <time>2021-11-17T23:19:39.605Z</time>
      </trkpt>
      <trkpt lat="47.547992" lon="7.877974">
        <ele>377.250245</ele>
        <time>2021-11-17T23:19:52.405Z</time>
      </trkpt>
      <trkpt lat="47.548234" lon="7.878638">
        <ele>377.035476</ele>
        <time>2021-11-17T23:19:57.718Z</time>
      </trkpt>
      <trkpt lat="47.548422" lon="7.878959">
        <ele>375.937115</ele>
        <time>2021-11-17T23:20:00.560Z</time>
      </trkpt>
      <trkpt lat="47.548718" lon="7.879258">
        <ele>374.490533</ele>
        <time>2021-11-17T23:20:04.099Z</time>
      </trkpt>
      <trkpt lat="47.549140" lon="7.879391">
        <ele>372.748421</ele>
        <time>2021-11-17T23:20:08.286Z</time>
      </trkpt>
      <trkpt lat="47.549318" lon="7.879398">
        <ele>372.029425</ele>
        <time>2021-11-17T23:20:09.913Z</time>
      </trkpt>
      <trkpt lat="47.549327" lon="7.879547">
        <ele>371.621720</ele>
        <time>2021-11-17T23:20:10.899Z</time>
      </trkpt>
      <trkpt lat="47.549726" lon="7.880786">
        <ele>368.043278</ele>
        <time>2021-11-17T23:20:19.833Z</time>
      </trkpt>
      <trkpt lat="47.549927" lon="7.881490">
        <ele>366.140077</ele>
        <time>2021-11-17T23:20:24.865Z</time>
      </trkpt>
      <trkpt lat="47.550234" lon="7.883221">
        <ele>361.500128</ele>
        <time>2021-11-17T23:20:37.266Z</time>
      </trkpt>
      <trkpt lat="47.550332" lon="7.884727">
        <ele>357.254585</ele>
        <time>2021-11-17T23:20:47.110Z</time>
      </trkpt>
      <trkpt lat="47.550391" lon="7.885109">
        <ele>356.154959</ele>
        <time>2021-11-17T23:20:49.643Z</time>
      </trkpt>
      <trkpt lat="47.550548" lon="7.885799">
        <ele>353.586616</ele>
        <time>2021-11-17T23:20:54.247Z</time>
      </trkpt>
      <trkpt lat="47.550677" lon="7.886476">
        <ele>350.940133</ele>
        <time>2021-11-17T23:20:58.678Z</time>
      </trkpt>
      <trkpt lat="47.550758" lon="7.887295">
        <ele>347.826091</ele>
        <time>2021-11-17T23:21:03.820Z</time>
      </trkpt>
      <trkpt lat="47.550789" lon="7.887816">
        <ele>345.858451</ele>
        <time>2021-11-17T23:21:07.052Z</time>
      </trkpt>
      <trkpt lat="47.550831" lon="7.888611">
        <ele>342.512225</ele>
        <time>2021-11-17T23:21:12.008Z</time>
      </trkpt>
      <trkpt lat="47.550833" lon="7.889069">
        <ele>340.573706</ele>
        <time>2021-11-17T23:21:14.817Z</time>
      </trkpt>
      <trkpt lat="47.550915" lon="7.890600">
        <ele>334.152081</ele>
        <time>2021-11-17T23:21:24.210Z</time>
      </trkpt>
      <trkpt lat="47.550904" lon="7.891725">
        <ele>330.753646</ele>
        <time>2021-11-17T23:21:31.214Z</time>
      </trkpt>
      <trkpt lat="47.550892" lon="7.893176">
        <ele>326.370549</ele>
        <time>2021-11-17T23:21:40.826Z</time>
      </trkpt>
      <trkpt lat="47.550908" lon="7.894308">
        <ele>325.288337</ele>
        <time>2021-11-17T23:21:50.032Z</time>
      </trkpt>
      <trkpt lat="47.550878" lon="7.895158">
        <ele>324.512472</ele>
        <time>2021-11-17T23:21:57.217Z</time>
      </trkpt>
      <trkpt lat="47.550838" lon="7.895509">
        <ele>324.187993</ele>
        <time>2021-11-17T23:22:00.380Z</time>
      </trkpt>
      <trkpt lat="47.550660" lon="7.896255">
        <ele>323.133707</ele>
        <time>2021-11-17T23:22:06.869Z</time>
      </trkpt>
      <trkpt lat="47.550639" lon="7.896345">
        <ele>322.975144</ele>
        <time>2021-11-17T23:22:08.056Z</time>
      </trkpt>
      <trkpt lat="47.550648" lon="7.896481">
        <ele>322.747603</ele>
        <time>2021-11-17T23:22:09.011Z</time>
      </trkpt>
      <trkpt lat="47.550819" lon="7.898109">
        <ele>320.004172</ele>
        <time>2021-11-17T23:22:20.759Z</time>
      </trkpt>
      <trkpt lat="47.550801" lon="7.900244">
        <ele>314.305351</ele>
        <time>2021-11-17T23:22:34.597Z</time>
      </trkpt>
      <trkpt lat="47.550769" lon="7.901362">
        <ele>311.195635</ele>
        <time>2021-11-17T23:22:41.868Z</time>
      </trkpt>
      <trkpt lat="47.550757" lon="7.901591">
        <ele>310.624649</ele>
        <time>2021-11-17T23:22:44.004Z</time>
      </trkpt>
      <trkpt lat="47.550688" lon="7.902451">
        <ele>308.471714</ele>
        <time>2021-11-17T23:22:52.439Z</time>
      </trkpt>
      <trkpt lat="47.550498" lon="7.903445">
        <ele>305.903530</ele>
        <time>2021-11-17T23:23:02.689Z</time>
      </trkpt>
      <trkpt lat="47.550302" lon="7.904164">
        <ele>303.951865</ele>
        <time>2021-11-17T23:23:09.948Z</time>
      </trkpt>
      <trkpt lat="47.550025" lon="7.904774">
        <ele>302.087803</ele>
        <time>2021-11-17T23:23:16.873Z</time>
      </trkpt>
      <trkpt lat="47.549868" lon="7.905010">
        <ele>301.247646</ele>
        <time>2021-11-17T23:23:20.005Z</time>
      </trkpt>
      <trkpt lat="47.549867" lon="7.905155">
        <ele>300.879989</ele>
        <time>2021-11-17T23:23:21.402Z</time>
      </trkpt>
      <trkpt lat="47.550067" lon="7.905245">
        <ele>300.094803</ele>
        <time>2021-11-17T23:23:24.327Z</time>
      </trkpt>
      <trkpt lat="47.550283" lon="7.905413">
        <ele>299.178394</ele>
        <time>2021-11-17T23:23:27.777Z</time>
      </trkpt>
      <trkpt lat="47.550497" lon="7.905558">
        <ele>298.338638</ele>
        <time>2021-11-17T23:23:31.135Z</time>
      </trkpt>
      <trkpt lat="47.549539" lon="7.908625">
        <ele>293.182957</ele>
        <time>2021-11-17T23:23:55.567Z</time>
      </trkpt>
      <trkpt lat="47.549520" lon="7.908678">
        <ele>293.122824</ele>
        <time>2021-11-17T23:23:56.077Z</time>
      </trkpt>
      <trkpt lat="47.549435" lon="7.908959">
        <ele>292.814276</ele>
        <time>2021-11-17T23:23:58.557Z</time>
      </trkpt>
      <trkpt lat="47.549327" lon="7.909318">
        <ele>292.420440</ele>
        <time>2021-11-17T23:24:01.790Z</time>
      </trkpt>
      <trkpt lat="47.549195" lon="7.909756">
        <ele>291.939796</ele>
        <time>2021-11-17T23:24:05.718Z</time>
      </trkpt>
      <trkpt lat="47.549102" lon="7.910058">
        <ele>291.607180</ele>
        <time>2021-11-17T23:24:08.409Z</time>
      </trkpt>
      <trkpt lat="47.549012" lon="7.910340">
        <ele>291.294614</ele>
        <time>2021-11-17T23:24:10.923Z</time>
      </trkpt>
      <trkpt lat="47.548412" lon="7.912168">
        <ele>289.770521</ele>
        <time>2021-11-17T23:24:27.278Z</time>
      </trkpt>
      <trkpt lat="47.548027" lon="7.913334">
        <ele>289.100583</ele>
        <time>2021-11-17T23:24:38.039Z</time>
      </trkpt>
      <trkpt lat="47.547994" lon="7.913433">
        <ele>289.068978</ele>
        <time>2021-11-17T23:24:38.960Z</time>
      </trkpt>
      <trkpt lat="47.547423" lon="7.915080">
        <ele>288.539001</ele>
        <time>2021-11-17T23:24:56.437Z</time>
      </trkpt>
      <trkpt lat="47.547113" lon="7.915971">
        <ele>288.770708</ele>
        <time>2021-11-17T23:25:06.884Z</time>
      </trkpt>
      <trkpt lat="47.547091" lon="7.916039">
        <ele>288.790225</ele>
        <time>2021-11-17T23:25:07.908Z</time>
      </trkpt>
      <trkpt lat="47.547032" lon="7.916218">
        <ele>288.841783</ele>
        <time>2021-11-17T23:25:10.111Z</time>
      </trkpt>
      <trkpt lat="47.546821" lon="7.916867">
        <ele>289.028230</ele>
        <time>2021-11-17T23:25:18.220Z</time>
      </trkpt>
      <trkpt lat="47.546262" lon="7.919081">
        <ele>289.671458</ele>
        <time>2021-11-17T23:25:45.731Z</time>
      </trkpt>
      <trkpt lat="47.546128" lon="7.919617">
        <ele>289.830310</ele>
        <time>2021-11-17T23:25:51.200Z</time>
      </trkpt>
      <trkpt lat="47.545973" lon="7.920313">
        <ele>290.161678</ele>
        <time>2021-11-17T23:25:59.663Z</time>
      </trkpt>
      <trkpt lat="47.545913" lon="7.920765">
        <ele>290.495799</ele>
        <time>2021-11-17T23:26:03.837Z</time>
      </trkpt>
      <trkpt lat="47.545881" lon="7.921096">
        <ele>290.738328</ele>
        <time>2021-11-17T23:26:07.853Z</time>
      </trkpt>
      <trkpt lat="47.545810" lon="7.921755">
        <ele>291.222361</ele>
        <time>2021-11-17T23:26:16.762Z</time>
      </trkpt>
      <trkpt lat="47.545778" lon="7.921947">
        <ele>291.365803</ele>
        <time>2021-11-17T23:26:20.371Z</time>
      </trkpt>
      <trkpt lat="47.545714" lon="7.922249">
        <ele>291.595391</ele>
        <time>2021-11-17T23:26:23.569Z</time>
      </trkpt>
      <trkpt lat="47.545699" lon="7.922325">
        <ele>291.652823</ele>
        <time>2021-11-17T23:26:24.767Z</time>
      </trkpt>
      <trkpt lat="47.545690" lon="7.922369">
        <ele>291.686170</ele>
        <time>2021-11-17T23:26:26.865Z</time>
      </trkpt>
      <trkpt lat="47.545641" lon="7.922610">
        <ele>291.868729</ele>
        <time>2021-11-17T23:26:29.219Z</time>
      </trkpt>
      <trkpt lat="47.545587" lon="7.922895">
        <ele>292.500604</ele>
        <time>2021-11-17T23:26:35.015Z</time>
      </trkpt>
      <trkpt lat="47.545553" lon="7.923142">
        <ele>293.072530</ele>
        <time>2021-11-17T23:26:37.662Z</time>
      </trkpt>
      <trkpt lat="47.545536" lon="7.923407">
        <ele>293.676470</ele>
        <time>2021-11-17T23:26:43.551Z</time>
      </trkpt>
      <trkpt lat="47.545521" lon="7.923709">
        <ele>294.363499</ele>
        <time>2021-11-17T23:26:47.705Z</time>
      </trkpt>
      <trkpt lat="47.545481" lon="7.924396">
        <ele>295.927950</ele>
        <time>2021-11-17T23:27:02.308Z</time>
      </trkpt>
      <trkpt lat="47.545466" lon="7.924880">
        <ele>297.027206</ele>
        <time>2021-11-17T23:27:13.615Z</time>
      </trkpt>
      <trkpt lat="47.545446" lon="7.925350">
        <ele>298.062261</ele>
        <time>2021-11-17T23:27:23.990Z</time>
      </trkpt>
      <trkpt lat="47.545417" lon="7.925848">
        <ele>298.963583</ele>
        <time>2021-11-17T23:27:34.469Z</time>
      </trkpt>
      <trkpt lat="47.545409" lon="7.926773">
        <ele>300.631667</ele>
        <time>2021-11-17T23:27:51.670Z</time>
      </trkpt>
      <trkpt lat="47.545407" lon="7.927001">
        <ele>301.042828</ele>
        <time>2021-11-17T23:27:55.479Z</time>
      </trkpt>
      <trkpt lat="47.545406" lon="7.927306">
        <ele>301.592807</ele>
        <time>2021-11-17T23:28:00.083Z</time>
      </trkpt>
      <trkpt lat="47.545421" lon="7.927686">
        <ele>302.279188</ele>
        <time>2021-11-17T23:28:05.619Z</time>
      </trkpt>
      <trkpt lat="47.545475" lon="7.928419">
        <ele>302.381611</ele>
        <time>2021-11-17T23:28:14.936Z</time>
      </trkpt>
      <trkpt lat="47.545563" lon="7.929641">
        <ele>301.475529</ele>
        <time>2021-11-17T23:28:24.816Z</time>
      </trkpt>
      <trkpt lat="47.545661" lon="7.930955">
        <ele>300.407577</ele>
        <time>2021-11-17T23:28:34.212Z</time>
      </trkpt>
      <trkpt lat="47.545696" lon="7.931497">
        <ele>299.868661</ele>
        <time>2021-11-17T23:28:38.180Z</time>
      </trkpt>
      <trkpt lat="47.545721" lon="7.931992">
        <ele>299.377346</ele>
        <time>2021-11-17T23:28:41.973Z</time>
      </trkpt>
      <trkpt lat="47.545724" lon="7.932758">
        <ele>298.619154</ele>
        <time>2021-11-17T23:28:48.182Z</time>
      </trkpt>
      <trkpt lat="47.545702" lon="7.933290">
        <ele>298.157894</ele>
        <time>2021-11-17T23:28:52.825Z</time>
      </trkpt>
      <trkpt lat="47.545674" lon="7.933625">
        <ele>298.326065</ele>
        <time>2021-11-17T23:28:56.026Z</time>
      </trkpt>
      <trkpt lat="47.545457" lon="7.935110">
        <ele>299.083032</ele>
        <time>2021-11-17T23:29:14.160Z</time>
      </trkpt>
      <trkpt lat="47.545074" lon="7.936484">
        <ele>300.300818</ele>
        <time>2021-11-17T23:29:35.688Z</time>
      </trkpt>
      <trkpt lat="47.544903" lon="7.936917">
        <ele>300.881657</ele>
        <time>2021-11-17T23:29:43.004Z</time>
      </trkpt>
      <trkpt lat="47.544705" lon="7.937395">
        <ele>301.531000</ele>
        <time>2021-11-17T23:29:51.188Z</time>
      </trkpt>
      <trkpt lat="47.544472" lon="7.937932">
        <ele>302.270130</ele>
        <time>2021-11-17T23:30:00.595Z</time>
      </trkpt>
      <trkpt lat="47.543826" lon="7.939433">
        <ele>304.352480</ele>
        <time>2021-11-17T23:30:27.477Z</time>
      </trkpt>
      <trkpt lat="47.543435" lon="7.940670">
        <ele>305.792196</ele>
        <time>2021-11-17T23:30:47.438Z</time>
      </trkpt>
      <trkpt lat="47.543161" lon="7.942213">
        <ele>306.598719</ele>
        <time>2021-11-17T23:31:08.287Z</time>
      </trkpt>
      <trkpt lat="47.543007" lon="7.943867">
        <ele>306.323146</ele>
        <time>2021-11-17T23:31:23.831Z</time>
      </trkpt>
      <trkpt lat="47.542913" lon="7.945267">
        <ele>305.163096</ele>
        <time>2021-11-17T23:31:34.738Z</time>
      </trkpt>
      <trkpt lat="47.542872" lon="7.945781">
        <ele>304.704991</ele>
        <time>2021-11-17T23:31:38.554Z</time>
      </trkpt>
      <trkpt lat="47.542875" lon="7.946089">
        <ele>304.356115</ele>
        <time>2021-11-17T23:31:40.788Z</time>
      </trkpt>
      <trkpt lat="47.542902" lon="7.946514">
        <ele>303.872634</ele>
        <time>2021-11-17T23:31:43.882Z</time>
      </trkpt>
      <trkpt lat="47.542943" lon="7.946806">
        <ele>303.534837</ele>
        <time>2021-11-17T23:31:46.093Z</time>
      </trkpt>
      <trkpt lat="47.542974" lon="7.946965">
        <ele>303.347394</ele>
        <time>2021-11-17T23:31:47.401Z</time>
      </trkpt>
      <trkpt lat="47.542979" lon="7.946989">
        <ele>303.318947</ele>
        <time>2021-11-17T23:31:47.557Z</time>
      </trkpt>
      <trkpt lat="47.542989" lon="7.947104">
        <ele>303.187622</ele>
        <time>2021-11-17T23:31:48.428Z</time>
      </trkpt>
      <trkpt lat="47.542984" lon="7.947304">
        <ele>302.960948</ele>
        <time>2021-11-17T23:31:50.004Z</time>
      </trkpt>
      <trkpt lat="47.542979" lon="7.947370">
        <ele>302.885727</ele>
        <time>2021-11-17T23:31:50.505Z</time>
      </trkpt>
      <trkpt lat="47.542935" lon="7.947564">
        <ele>302.653933</ele>
        <time>2021-11-17T23:31:52.072Z</time>
      </trkpt>
      <trkpt lat="47.542892" lon="7.947789">
        <ele>302.389083</ele>
        <time>2021-11-17T23:31:53.990Z</time>
      </trkpt>
      <trkpt lat="47.542875" lon="7.948001">
        <ele>302.147284</ele>
        <time>2021-11-17T23:31:55.806Z</time>
      </trkpt>
      <trkpt lat="47.542838" lon="7.948225">
        <ele>301.886098</ele>
        <time>2021-11-17T23:31:57.591Z</time>
      </trkpt>
      <trkpt lat="47.542826" lon="7.948298">
        <ele>301.801926</ele>
        <time>2021-11-17T23:31:58.212Z</time>
      </trkpt>
      <trkpt lat="47.542719" lon="7.949175">
        <ele>301.452563</ele>
        <time>2021-11-17T23:32:05.437Z</time>
      </trkpt>
      <trkpt lat="47.542609" lon="7.949914">
        <ele>301.155908</ele>
        <time>2021-11-17T23:32:12.210Z</time>
      </trkpt>
      <trkpt lat="47.542560" lon="7.950202">
        <ele>301.039478</ele>
        <time>2021-11-17T23:32:15.080Z</time>
      </trkpt>
      <trkpt lat="47.542554" lon="7.950231">
        <ele>301.027588</ele>
        <time>2021-11-17T23:32:15.354Z</time>
      </trkpt>
      <trkpt lat="47.542546" lon="7.950274">
        <ele>301.010103</ele>
        <time>2021-11-17T23:32:15.759Z</time>
      </trkpt>
      <trkpt lat="47.542444" lon="7.950687">
        <ele>300.837707</ele>
        <time>2021-11-17T23:32:20.223Z</time>
      </trkpt>
      <trkpt lat="47.542357" lon="7.951037">
        <ele>300.728248</ele>
        <time>2021-11-17T23:32:23.867Z</time>
      </trkpt>
      <trkpt lat="47.542192" lon="7.951713">
        <ele>300.602403</ele>
        <time>2021-11-17T23:32:30.814Z</time>
      </trkpt>
      <trkpt lat="47.542169" lon="7.951815">
        <ele>300.583576</ele>
        <time>2021-11-17T23:32:31.742Z</time>
      </trkpt>
      <trkpt lat="47.541991" lon="7.952667">
        <ele>300.427438</ele>
        <time>2021-11-17T23:32:40.023Z</time>
      </trkpt>
      <trkpt lat="47.541791" lon="7.953601">
        <ele>300.362765</ele>
        <time>2021-11-17T23:32:49.074Z</time>
      </trkpt>
      <trkpt lat="47.541773" lon="7.953695">
        <ele>300.397086</ele>
        <time>2021-11-17T23:32:50.010Z</time>
      </trkpt>
      <trkpt lat="47.541735" lon="7.953892">
        <ele>300.469055</ele>
        <time>2021-11-17T23:32:51.893Z</time>
      </trkpt>
      <trkpt lat="47.541660" lon="7.954250">
        <ele>300.600724</ele>
        <time>2021-11-17T23:32:55.652Z</time>
      </trkpt>
      <trkpt lat="47.541530" lon="7.954936">
        <ele>300.851006</ele>
        <time>2021-11-17T23:33:02.873Z</time>
      </trkpt>
      <trkpt lat="47.541482" lon="7.955294">
        <ele>300.979216</ele>
        <time>2021-11-17T23:33:06.921Z</time>
      </trkpt>
      <trkpt lat="47.541465" lon="7.955512">
        <ele>301.056301</ele>
        <time>2021-11-17T23:33:09.257Z</time>
      </trkpt>
      <trkpt lat="47.541442" lon="7.955866">
        <ele>301.181224</ele>
        <time>2021-11-17T23:33:14.549Z</time>
      </trkpt>
      <trkpt lat="47.541410" lon="7.956569">
        <ele>302.355828</ele>
        <time>2021-11-17T23:33:25.849Z</time>
      </trkpt>
      <trkpt lat="47.541404" lon="7.956677">
        <ele>302.569153</ele>
        <time>2021-11-17T23:33:27.955Z</time>
      </trkpt>
      <trkpt lat="47.541280" lon="7.957569">
        <ele>304.361972</ele>
        <time>2021-11-17T23:33:43.603Z</time>
      </trkpt>
      <trkpt lat="47.541237" lon="7.957756">
        <ele>304.750867</ele>
        <time>2021-11-17T23:33:47.951Z</time>
      </trkpt>
      <trkpt lat="47.541141" lon="7.958127">
        <ele>305.533029</ele>
        <time>2021-11-17T23:33:55.502Z</time>
      </trkpt>
      <trkpt lat="47.540957" lon="7.959132">
        <ele>307.713779</ele>
        <time>2021-11-17T23:34:16.945Z</time>
      </trkpt>
      <trkpt lat="47.540954" lon="7.959705">
        <ele>308.974737</ele>
        <time>2021-11-17T23:34:28.372Z</time>
      </trkpt>
      <trkpt lat="47.540979" lon="7.959950">
        <ele>309.519999</ele>
        <time>2021-11-17T23:34:33.822Z</time>
      </trkpt>
      <trkpt lat="47.541002" lon="7.960092">
        <ele>309.841347</ele>
        <time>2021-11-17T23:34:36.415Z</time>
      </trkpt>
      <trkpt lat="47.541060" lon="7.960321">
        <ele>310.379574</ele>
        <time>2021-11-17T23:34:41.137Z</time>
      </trkpt>
      <trkpt lat="47.541153" lon="7.960814">
        <ele>311.506009</ele>
        <time>2021-11-17T23:34:49.707Z</time>
      </trkpt>
      <trkpt lat="47.541242" lon="7.961294">
        <ele>312.488478</ele>
        <time>2021-11-17T23:34:57.665Z</time>
      </trkpt>
      <trkpt lat="47.541316" lon="7.962197">
        <ele>313.639525</ele>
        <time>2021-11-17T23:35:12.291Z</time>
      </trkpt>
      <trkpt lat="47.541314" lon="7.962377">
        <ele>313.867328</ele>
        <time>2021-11-17T23:35:15.121Z</time>
      </trkpt>
      <trkpt lat="47.541308" lon="7.962513">
        <ele>314.039789</ele>
        <time>2021-11-17T23:35:16.983Z</time>
      </trkpt>
      <trkpt lat="47.541293" lon="7.962730">
        <ele>314.315817</ele>
        <time>2021-11-17T23:35:19.846Z</time>
      </trkpt>
      <trkpt lat="47.541258" lon="7.962975">
        <ele>314.632707</ele>
        <time>2021-11-17T23:35:23.747Z</time>
      </trkpt>
      <trkpt lat="47.541217" lon="7.963187">
        <ele>314.911764</ele>
        <time>2021-11-17T23:35:26.536Z</time>
      </trkpt>
      <trkpt lat="47.541123" lon="7.963520">
        <ele>315.368501</ele>
        <time>2021-11-17T23:35:31.771Z</time>
      </trkpt>
      <trkpt lat="47.541019" lon="7.963815">
        <ele>315.772119</ele>
        <time>2021-11-17T23:35:36.406Z</time>
      </trkpt>
      <trkpt lat="47.540959" lon="7.963916">
        <ele>315.906167</ele>
        <time>2021-11-17T23:35:38.694Z</time>
      </trkpt>
      <trkpt lat="47.540467" lon="7.964759">
        <ele>317.016478</ele>
        <time>2021-11-17T23:35:54.419Z</time>
      </trkpt>
      <trkpt lat="47.540257" lon="7.965417">
        <ele>317.741659</ele>
        <time>2021-11-17T23:36:04.355Z</time>
      </trkpt>
      <trkpt lat="47.540200" lon="7.965632">
        <ele>317.971805</ele>
        <time>2021-11-17T23:36:07.808Z</time>
      </trkpt>
      <trkpt lat="47.540100" lon="7.966046">
        <ele>318.417127</ele>
        <time>2021-11-17T23:36:13.697Z</time>
      </trkpt>
      <trkpt lat="47.539909" lon="7.966784">
        <ele>319.323087</ele>
        <time>2021-11-17T23:36:24.393Z</time>
      </trkpt>
      <trkpt lat="47.539680" lon="7.967625">
        <ele>320.362542</ele>
        <time>2021-11-17T23:36:37.815Z</time>
      </trkpt>
      <trkpt lat="47.539403" lon="7.968640">
        <ele>321.689978</ele>
        <time>2021-11-17T23:36:54.277Z</time>
      </trkpt>
      <trkpt lat="47.539248" lon="7.969246">
        <ele>322.700115</ele>
        <time>2021-11-17T23:37:04.568Z</time>
      </trkpt>
      <trkpt lat="47.539144" lon="7.969781">
        <ele>323.567941</ele>
        <time>2021-11-17T23:37:13.681Z</time>
      </trkpt>
      <trkpt lat="47.539052" lon="7.970439">
        <ele>324.615378</ele>
        <time>2021-11-17T23:37:24.997Z</time>
      </trkpt>
      <trkpt lat="47.538935" lon="7.971210">
        <ele>325.852264</ele>
        <time>2021-11-17T23:37:38.289Z</time>
      </trkpt>
      <trkpt lat="47.538858" lon="7.971696">
        <ele>326.644630</ele>
        <time>2021-11-17T23:37:46.303Z</time>
      </trkpt>
      <trkpt lat="47.538687" lon="7.972850">
        <ele>328.519933</ele>
        <time>2021-11-17T23:38:04.919Z</time>
      </trkpt>
      <trkpt lat="47.538490" lon="7.973699">
        <ele>329.967562</ele>
        <time>2021-11-17T23:38:20.286Z</time>
      </trkpt>
      <trkpt lat="47.538106" lon="7.974772">
        <ele>332.192414</ele>
        <time>2021-11-17T23:38:41.200Z</time>
      </trkpt>
      <trkpt lat="47.537896" lon="7.975317">
        <ele>333.342041</ele>
        <time>2021-11-17T23:38:51.706Z</time>
      </trkpt>
      <trkpt lat="47.537816" lon="7.975526">
        <ele>333.782194</ele>
        <time>2021-11-17T23:38:56.454Z</time>
      </trkpt>
      <trkpt lat="47.536866" lon="7.977996">
        <ele>338.682629</ele>
        <time>2021-11-17T23:39:46.052Z</time>
      </trkpt>
      <trkpt lat="47.536460" lon="7.979083">
        <ele>339.424370</ele>
        <time>2021-11-17T23:40:03.524Z</time>
      </trkpt>
      <trkpt lat="47.536403" lon="7.979241">
        <ele>339.465288</ele>
        <time>2021-11-17T23:40:05.744Z</time>
      </trkpt>
      <trkpt lat="47.536340" lon="7.979418">
        <ele>339.510991</ele>
        <time>2021-11-17T23:40:08.207Z</time>
      </trkpt>
      <trkpt lat="47.536061" lon="7.980200">
        <ele>339.713013</ele>
        <time>2021-11-17T23:40:16.830Z</time>
      </trkpt>
      <trkpt lat="47.535599" lon="7.981498">
        <ele>338.477457</ele>
        <time>2021-11-17T23:40:28.098Z</time>
      </trkpt>
      <trkpt lat="47.535452" lon="7.981933">
        <ele>337.823123</ele>
        <time>2021-11-17T23:40:31.544Z</time>
      </trkpt>
      <trkpt lat="47.535345" lon="7.982248">
        <ele>337.348801</ele>
        <time>2021-11-17T23:40:34.040Z</time>
      </trkpt>
      <trkpt lat="47.535328" lon="7.982298">
        <ele>337.273498</ele>
        <time>2021-11-17T23:40:34.438Z</time>
      </trkpt>
      <trkpt lat="47.535300" lon="7.982379">
        <ele>337.151091</ele>
        <time>2021-11-17T23:40:35.103Z</time>
      </trkpt>
      <trkpt lat="47.535231" lon="7.982582">
        <ele>336.845377</ele>
        <time>2021-11-17T23:40:36.733Z</time>
      </trkpt>
      <trkpt lat="47.534817" lon="7.983835">
        <ele>335.457902</ele>
        <time>2021-11-17T23:40:47.030Z</time>
      </trkpt>
      <trkpt lat="47.534722" lon="7.984096">
        <ele>335.212901</ele>
        <time>2021-11-17T23:40:49.412Z</time>
      </trkpt>
      <trkpt lat="47.534320" lon="7.984882">
        <ele>334.398140</ele>
        <time>2021-11-17T23:40:57.891Z</time>
      </trkpt>
      <trkpt lat="47.534197" lon="7.985105">
        <ele>334.160208</ele>
        <time>2021-11-17T23:41:00.506Z</time>
      </trkpt>
      <trkpt lat="47.533975" lon="7.985526">
        <ele>333.862139</ele>
        <time>2021-11-17T23:41:05.227Z</time>
      </trkpt>
      <trkpt lat="47.533546" lon="7.986336">
        <ele>333.396681</ele>
        <time>2021-11-17T23:41:14.607Z</time>
      </trkpt>
      <trkpt lat="47.533208" lon="7.986980">
        <ele>333.027882</ele>
        <time>2021-11-17T23:41:21.585Z</time>
      </trkpt>
      <trkpt lat="47.533114" lon="7.987128">
        <ele>332.936011</ele>
        <time>2021-11-17T23:41:23.043Z</time>
      </trkpt>
      <trkpt lat="47.532879" lon="7.987447">
        <ele>332.681746</ele>
        <time>2021-11-17T23:41:27.239Z</time>
      </trkpt>
      <trkpt lat="47.532716" lon="7.987667">
        <ele>332.478433</ele>
        <time>2021-11-17T23:41:30.486Z</time>
      </trkpt>
      <trkpt lat="47.532621" lon="7.987826">
        <ele>332.346273</ele>
        <time>2021-11-17T23:41:32.030Z</time>
      </trkpt>
      <trkpt lat="47.532544" lon="7.987973">
        <ele>332.230462</ele>
        <time>2021-11-17T23:41:34.731Z</time>
      </trkpt>
      <trkpt lat="47.532464" lon="7.988171">
        <ele>332.086830</ele>
        <time>2021-11-17T23:41:36.445Z</time>
      </trkpt>
      <trkpt lat="47.532401" lon="7.988331">
        <ele>331.971537</ele>
        <time>2021-11-17T23:41:37.755Z</time>
      </trkpt>
      <trkpt lat="47.532373" lon="7.988399">
        <ele>331.921958</ele>
        <time>2021-11-17T23:41:39.934Z</time>
      </trkpt>
      <trkpt lat="47.532299" lon="7.988577">
        <ele>331.791839</ele>
        <time>2021-11-17T23:41:41.467Z</time>
      </trkpt>
      <trkpt lat="47.532014" lon="7.989225">
        <ele>331.310446</ele>
        <time>2021-11-17T23:41:47.516Z</time>
      </trkpt>
      <trkpt lat="47.531897" lon="7.989450">
        <ele>331.140750</ele>
        <time>2021-11-17T23:41:50.426Z</time>
      </trkpt>
      <trkpt lat="47.531823" lon="7.989607">
        <ele>331.043242</ele>
        <time>2021-11-17T23:41:51.788Z</time>
      </trkpt>
      <trkpt lat="47.531667" lon="7.989873">
        <ele>330.863815</ele>
        <time>2021-11-17T23:41:54.938Z</time>
      </trkpt>
      <trkpt lat="47.531363" lon="7.990436">
        <ele>330.496694</ele>
        <time>2021-11-17T23:42:00.860Z</time>
      </trkpt>
      <trkpt lat="47.530979" lon="7.991211">
        <ele>330.007148</ele>
        <time>2021-11-17T23:42:09.309Z</time>
      </trkpt>
      <trkpt lat="47.530933" lon="7.991310">
        <ele>329.945947</ele>
        <time>2021-11-17T23:42:10.294Z</time>
      </trkpt>
      <trkpt lat="47.530776" lon="7.991586">
        <ele>329.904509</ele>
        <time>2021-11-17T23:42:13.810Z</time>
      </trkpt>
      <trkpt lat="47.530495" lon="7.992103">
        <ele>330.460348</ele>
        <time>2021-11-17T23:42:19.739Z</time>
      </trkpt>
      <trkpt lat="47.530141" lon="7.992757">
        <ele>331.162344</ele>
        <time>2021-11-17T23:42:28.414Z</time>
      </trkpt>
      <trkpt lat="47.529350" lon="7.994228">
        <ele>333.600796</ele>
        <time>2021-11-17T23:43:04.318Z</time>
      </trkpt>
      <trkpt lat="47.529261" lon="7.994394">
        <ele>334.000397</ele>
        <time>2021-11-17T23:43:08.468Z</time>
      </trkpt>
      <trkpt lat="47.529180" lon="7.994531">
        <ele>334.343691</ele>
        <time>2021-11-17T23:43:11.930Z</time>
      </trkpt>
      <trkpt lat="47.528851" lon="7.994185">
        <ele>335.470301</ele>
        <time>2021-11-17T23:43:25.455Z</time>
      </trkpt>
      <trkpt lat="47.528522" lon="7.994788">
        <ele>336.931832</ele>
        <time>2021-11-17T23:43:41.944Z</time>
      </trkpt>
      <trkpt lat="47.527390" lon="7.996879">
        <ele>337.768294</ele>
        <time>2021-11-17T23:44:19.965Z</time>
      </trkpt>
      <trkpt lat="47.527239" lon="7.997118">
        <ele>337.833477</ele>
        <time>2021-11-17T23:44:23.645Z</time>
      </trkpt>
      <trkpt lat="47.527061" lon="7.997361">
        <ele>337.899726</ele>
        <time>2021-11-17T23:44:28.378Z</time>
      </trkpt>
      <trkpt lat="47.527005" lon="7.997436">
        <ele>337.920387</ele>
        <time>2021-11-17T23:44:29.745Z</time>
      </trkpt>
      <trkpt lat="47.526659" lon="7.997896">
        <ele>338.047628</ele>
        <time>2021-11-17T23:44:39.149Z</time>
      </trkpt>
      <trkpt lat="47.526462" lon="7.998465">
        <ele>338.165786</ele>
        <time>2021-11-17T23:44:48.751Z</time>
      </trkpt>
      <trkpt lat="47.526232" lon="7.998874">
        <ele>338.264140</ele>
        <time>2021-11-17T23:44:56.917Z</time>
      </trkpt>
      <trkpt lat="47.522812" lon="8.002772">
        <ele>344.770736</ele>
        <time>2021-11-17T23:46:50.800Z</time>
      </trkpt>
      <trkpt lat="47.522593" lon="8.003040">
        <ele>345.238268</ele>
        <time>2021-11-17T23:46:59.062Z</time>
      </trkpt>
      <trkpt lat="47.522286" lon="8.003405">
        <ele>345.886166</ele>
        <time>2021-11-17T23:47:10.362Z</time>
      </trkpt>
      <trkpt lat="47.521941" lon="8.003805">
        <ele>346.607234</ele>
        <time>2021-11-17T23:47:21.656Z</time>
      </trkpt>
      <trkpt lat="47.521691" lon="8.004044">
        <ele>346.616609</ele>
        <time>2021-11-17T23:47:29.372Z</time>
      </trkpt>
      <trkpt lat="47.521488" lon="8.004236">
        <ele>346.615919</ele>
        <time>2021-11-17T23:47:34.718Z</time>
      </trkpt>
      <trkpt lat="47.521214" lon="8.004538">
        <ele>346.614940</ele>
        <time>2021-11-17T23:47:42.564Z</time>
      </trkpt>
      <trkpt lat="47.521327" lon="8.004951">
        <ele>346.614078</ele>
        <time>2021-11-17T23:47:48.510Z</time>
      </trkpt>
      <trkpt lat="47.521277" lon="8.005104">
        <ele>346.613749</ele>
        <time>2021-11-17T23:47:50.643Z</time>
      </trkpt>
      <trkpt lat="47.520956" lon="8.005345">
        <ele>346.612718</ele>
        <time>2021-11-17T23:47:56.905Z</time>
      </trkpt>
      <trkpt lat="47.518926" lon="8.007732">
        <ele>342.412793</ele>
        <time>2021-11-17T23:48:37.881Z</time>
      </trkpt>
      <trkpt lat="47.518239" lon="8.008485">
        <ele>341.256809</ele>
        <time>2021-11-17T23:48:52.607Z</time>
      </trkpt>
      <trkpt lat="47.517851" lon="8.008946">
        <ele>340.718473</ele>
        <time>2021-11-17T23:49:01.374Z</time>
      </trkpt>
      <trkpt lat="47.517791" lon="8.009018">
        <ele>340.666494</ele>
        <time>2021-11-17T23:49:02.630Z</time>
      </trkpt>
      <trkpt lat="47.517615" lon="8.009232">
        <ele>340.513219</ele>
        <time>2021-11-17T23:49:06.740Z</time>
      </trkpt>
      <trkpt lat="47.517564" lon="8.009350">
        <ele>340.449540</ele>
        <time>2021-11-17T23:49:08.420Z</time>
      </trkpt>
      <trkpt lat="47.517508" lon="8.009440">
        <ele>340.393916</ele>
        <time>2021-11-17T23:49:09.972Z</time>
      </trkpt>
      <trkpt lat="47.517573" lon="8.009513">
        <ele>340.339008</ele>
        <time>2021-11-17T23:49:11.283Z</time>
      </trkpt>
      <trkpt lat="47.517931" lon="8.010095">
        <ele>339.981184</ele>
        <time>2021-11-17T23:49:21.513Z</time>
      </trkpt>
      <trkpt lat="47.517926" lon="8.010148">
        <ele>339.956860</ele>
        <time>2021-11-17T23:49:22.065Z</time>
      </trkpt>
      <trkpt lat="47.517876" lon="8.010233">
        <ele>339.905623</ele>
        <time>2021-11-17T23:49:23.678Z</time>
      </trkpt>
      <trkpt lat="47.517619" lon="8.010643">
        <ele>339.651361</ele>
        <time>2021-11-17T23:49:30.647Z</time>
      </trkpt>
      <trkpt lat="47.517648" lon="8.010855">
        <ele>339.617939</ele>
        <time>2021-11-17T23:49:33.297Z</time>
      </trkpt>
      <trkpt lat="47.517797" lon="8.011090">
        <ele>339.579373</ele>
        <time>2021-11-17T23:49:37.205Z</time>
      </trkpt>
      <trkpt lat="47.517842" lon="8.011140">
        <ele>339.569405</ele>
        <time>2021-11-17T23:49:38.120Z</time>
      </trkpt>
      <trkpt lat="47.517720" lon="8.011303">
        <ele>339.540294</ele>
        <time>2021-11-17T23:49:40.470Z</time>
      </trkpt>
      <trkpt lat="47.517690" lon="8.011343">
        <ele>339.533142</ele>
        <time>2021-11-17T23:49:40.895Z</time>
      </trkpt>
      <trkpt lat="47.517559" lon="8.011519">
        <ele>339.501804</ele>
        <time>2021-11-17T23:49:43.382Z</time>
      </trkpt>
      <trkpt lat="47.517220" lon="8.011958">
        <ele>339.422018</ele>
        <time>2021-11-17T23:49:49.669Z</time>
      </trkpt>
      <trkpt lat="47.516968" lon="8.012240">
        <ele>339.366057</ele>
        <time>2021-11-17T23:49:54.470Z</time>
      </trkpt>
      <trkpt lat="47.515686" lon="8.013458">
        <ele>340.267573</ele>
        <time>2021-11-17T23:50:20.663Z</time>
      </trkpt>
      <trkpt lat="47.515654" lon="8.013483">
        <ele>340.294345</ele>
        <time>2021-11-17T23:50:21.445Z</time>
      </trkpt>
      <trkpt lat="47.515613" lon="8.013424">
        <ele>340.336652</ele>
        <time>2021-11-17T23:50:22.591Z</time>
      </trkpt>
      <trkpt lat="47.515541" lon="8.013407">
        <ele>340.390602</ele>
        <time>2021-11-17T23:50:23.952Z</time>
      </trkpt>
      <trkpt lat="47.515502" lon="8.013432">
        <ele>340.422049</ele>
        <time>2021-11-17T23:50:24.866Z</time>
      </trkpt>
      <trkpt lat="47.515475" lon="8.013469">
        <ele>340.449271</ele>
        <time>2021-11-17T23:50:25.540Z</time>
      </trkpt>
      <trkpt lat="47.515457" lon="8.013608">
        <ele>340.520003</ele>
        <time>2021-11-17T23:50:27.268Z</time>
      </trkpt>
      <trkpt lat="47.515468" lon="8.013643">
        <ele>340.539296</ele>
        <time>2021-11-17T23:50:27.727Z</time>
      </trkpt>
      <trkpt lat="47.515263" lon="8.013836">
        <ele>340.772796</ele>
        <time>2021-11-17T23:50:32.637Z</time>
      </trkpt>
      <trkpt lat="47.515054" lon="8.014017">
        <ele>341.098596</ele>
        <time>2021-11-17T23:50:37.377Z</time>
      </trkpt>
      <trkpt lat="47.514746" lon="8.014292">
        <ele>341.582557</ele>
        <time>2021-11-17T23:50:44.580Z</time>
      </trkpt>
      <trkpt lat="47.514628" lon="8.014407">
        <ele>341.772645</ele>
        <time>2021-11-17T23:50:47.465Z</time>
      </trkpt>
      <trkpt lat="47.514464" lon="8.014550">
        <ele>342.028744</ele>
        <time>2021-11-17T23:50:51.359Z</time>
      </trkpt>
      <trkpt lat="47.514162" lon="8.014813">
        <ele>342.500190</ele>
        <time>2021-11-17T23:50:58.381Z</time>
      </trkpt>
      <trkpt lat="47.514036" lon="8.014936">
        <ele>342.703268</ele>
        <time>2021-11-17T23:51:01.667Z</time>
      </trkpt>
      <trkpt lat="47.513919" lon="8.015052">
        <ele>342.892738</ele>
        <time>2021-11-17T23:51:04.552Z</time>
      </trkpt>
      <trkpt lat="47.513872" lon="8.015092">
        <ele>342.965684</ele>
        <time>2021-11-17T23:51:05.617Z</time>
      </trkpt>
      <trkpt lat="47.513615" lon="8.015346">
        <ele>343.283677</ele>
        <time>2021-11-17T23:51:12.239Z</time>
      </trkpt>
      <trkpt lat="47.512943" lon="8.015998">
        <ele>344.021364</ele>
        <time>2021-11-17T23:51:28.041Z</time>
      </trkpt>
      <trkpt lat="47.512748" lon="8.016153">
        <ele>344.224578</ele>
        <time>2021-11-17T23:51:31.895Z</time>
      </trkpt>
      <trkpt lat="47.512572" lon="8.016270">
        <ele>344.401716</ele>
        <time>2021-11-17T23:51:35.070Z</time>
      </trkpt>
      <trkpt lat="47.512292" lon="8.016407">
        <ele>344.672477</ele>
        <time>2021-11-17T23:51:40.036Z</time>
      </trkpt>
      <trkpt lat="47.511937" lon="8.016578">
        <ele>344.677736</ele>
        <time>2021-11-17T23:51:45.986Z</time>
      </trkpt>
      <trkpt lat="47.511835" lon="8.016624">
        <ele>344.661771</ele>
        <time>2021-11-17T23:51:47.481Z</time>
      </trkpt>
      <trkpt lat="47.511079" lon="8.016999">
        <ele>344.542392</ele>
        <time>2021-11-17T23:51:59.071Z</time>
      </trkpt>
      <trkpt lat="47.510624" lon="8.017217">
        <ele>344.470787</ele>
        <time>2021-11-17T23:52:05.438Z</time>
      </trkpt>
      <trkpt lat="47.510117" lon="8.017458">
        <ele>344.206793</ele>
        <time>2021-11-17T23:52:12.181Z</time>
      </trkpt>
      <trkpt lat="47.509872" lon="8.017541">
        <ele>344.061974</ele>
        <time>2021-11-17T23:52:15.344Z</time>
      </trkpt>
      <trkpt lat="47.509728" lon="8.017576">
        <ele>343.977890</ele>
        <time>2021-11-17T23:52:17.300Z</time>
      </trkpt>
      <trkpt lat="47.509596" lon="8.017609">
        <ele>343.900754</ele>
        <time>2021-11-17T23:52:18.956Z</time>
      </trkpt>
      <trkpt lat="47.509437" lon="8.017668">
        <ele>343.806303</ele>
        <time>2021-11-17T23:52:21.080Z</time>
      </trkpt>
      <trkpt lat="47.509253" lon="8.017765">
        <ele>343.693760</ele>
        <time>2021-11-17T23:52:23.592Z</time>
      </trkpt>
      <trkpt lat="47.509105" lon="8.017861">
        <ele>343.600656</ele>
        <time>2021-11-17T23:52:25.696Z</time>
      </trkpt>
      <trkpt lat="47.508988" lon="8.017959">
        <ele>343.523197</ele>
        <time>2021-11-17T23:52:27.470Z</time>
      </trkpt>
      <trkpt lat="47.508896" lon="8.018035">
        <ele>343.462492</ele>
        <time>2021-11-17T23:52:28.777Z</time>
      </trkpt>
      <trkpt lat="47.508805" lon="8.018141">
        <ele>343.446688</ele>
        <time>2021-11-17T23:52:30.414Z</time>
      </trkpt>
      <trkpt lat="47.508699" lon="8.018304">
        <ele>343.548701</ele>
        <time>2021-11-17T23:52:32.531Z</time>
      </trkpt>
      <trkpt lat="47.508636" lon="8.018423">
        <ele>343.616869</ele>
        <time>2021-11-17T23:52:33.878Z</time>
      </trkpt>
      <trkpt lat="47.508617" lon="8.018463">
        <ele>343.638917</ele>
        <time>2021-11-17T23:52:34.331Z</time>
      </trkpt>
      <trkpt lat="47.508597" lon="8.018443">
        <ele>343.655026</ele>
        <time>2021-11-17T23:52:34.745Z</time>
      </trkpt>
      <trkpt lat="47.508507" lon="8.018455">
        <ele>343.715342</ele>
        <time>2021-11-17T23:52:36.238Z</time>
      </trkpt>
      <trkpt lat="47.508490" lon="8.018479">
        <ele>343.731021</ele>
        <time>2021-11-17T23:52:36.647Z</time>
      </trkpt>
      <trkpt lat="47.508475" lon="8.018519">
        <ele>343.751649</ele>
        <time>2021-11-17T23:52:37.082Z</time>
      </trkpt>
      <trkpt lat="47.508493" lon="8.018648">
        <ele>343.811038</ele>
        <time>2021-11-17T23:52:38.498Z</time>
      </trkpt>
      <trkpt lat="47.508517" lon="8.018677">
        <ele>343.831716</ele>
        <time>2021-11-17T23:52:38.915Z</time>
      </trkpt>
      <trkpt lat="47.508505" lon="8.018716">
        <ele>343.851038</ele>
        <time>2021-11-17T23:52:39.379Z</time>
      </trkpt>
      <trkpt lat="47.508436" lon="8.018909">
        <ele>343.949491</ele>
        <time>2021-11-17T23:52:42.003Z</time>
      </trkpt>
      <trkpt lat="47.508403" lon="8.018982">
        <ele>343.989095</ele>
        <time>2021-11-17T23:52:43.004Z</time>
      </trkpt>
      <trkpt lat="47.508273" lon="8.019268">
        <ele>344.144519</ele>
        <time>2021-11-17T23:52:47.179Z</time>
      </trkpt>
      <trkpt lat="47.508117" lon="8.019584">
        <ele>344.320988</ele>
        <time>2021-11-17T23:52:52.150Z</time>
      </trkpt>
      <trkpt lat="47.508075" lon="8.019669">
        <ele>344.368470</ele>
        <time>2021-11-17T23:52:53.606Z</time>
      </trkpt>
      <trkpt lat="47.508029" lon="8.019761">
        <ele>344.420077</ele>
        <time>2021-11-17T23:52:55.231Z</time>
      </trkpt>
      <trkpt lat="47.507951" lon="8.019911">
        <ele>344.505426</ele>
        <time>2021-11-17T23:52:57.923Z</time>
      </trkpt>
      <trkpt lat="47.507863" lon="8.020075">
        <ele>344.599859</ele>
        <time>2021-11-17T23:53:00.729Z</time>
      </trkpt>
      <trkpt lat="47.507666" lon="8.020400">
        <ele>345.250339</ele>
        <time>2021-11-17T23:53:07.094Z</time>
      </trkpt>
      <trkpt lat="47.507609" lon="8.020484">
        <ele>345.441726</ele>
        <time>2021-11-17T23:53:08.923Z</time>
      </trkpt>
      <trkpt lat="47.507466" lon="8.020697">
        <ele>345.924444</ele>
        <time>2021-11-17T23:53:13.733Z</time>
      </trkpt>
      <trkpt lat="47.507213" lon="8.021061">
        <ele>346.763966</ele>
        <time>2021-11-17T23:53:22.511Z</time>
      </trkpt>
      <trkpt lat="47.507007" lon="8.021362">
        <ele>347.452728</ele>
        <time>2021-11-17T23:53:30.081Z</time>
      </trkpt>
      <trkpt lat="47.506949" lon="8.021459">
        <ele>347.660959</ele>
        <time>2021-11-17T23:53:32.347Z</time>
      </trkpt>
      <trkpt lat="47.506910" lon="8.021529">
        <ele>347.806813</ele>
        <time>2021-11-17T23:53:33.847Z</time>
      </trkpt>
      <trkpt lat="47.506867" lon="8.021604">
        <ele>347.964941</ele>
        <time>2021-11-17T23:53:35.701Z</time>
      </trkpt>
      <trkpt lat="47.506735" lon="8.021861">
        <ele>348.483906</ele>
        <time>2021-11-17T23:53:41.583Z</time>
      </trkpt>
      <trkpt lat="47.506678" lon="8.022015">
        <ele>348.766176</ele>
        <time>2021-11-17T23:53:44.614Z</time>
      </trkpt>
      <trkpt lat="47.506655" lon="8.022123">
        <ele>348.943287</ele>
        <time>2021-11-17T23:53:46.731Z</time>
      </trkpt>
      <trkpt lat="47.506621" lon="8.022234">
        <ele>349.119230</ele>
        <time>2021-11-17T23:53:48.807Z</time>
      </trkpt>
      <trkpt lat="47.506535" lon="8.022414">
        <ele>349.437503</ele>
        <time>2021-11-17T23:53:52.381Z</time>
      </trkpt>
      <trkpt lat="47.506468" lon="8.022553">
        <ele>349.684010</ele>
        <time>2021-11-17T23:53:55.361Z</time>
      </trkpt>
      <trkpt lat="47.506258" lon="8.022985">
        <ele>350.452336</ele>
        <time>2021-11-17T23:54:04.047Z</time>
      </trkpt>
      <trkpt lat="47.506232" lon="8.023038">
        <ele>350.546894</ele>
        <time>2021-11-17T23:54:05.089Z</time>
      </trkpt>
      <trkpt lat="47.506199" lon="8.023103">
        <ele>350.664276</ele>
        <time>2021-11-17T23:54:06.377Z</time>
      </trkpt>
      <trkpt lat="47.505883" lon="8.023827">
        <ele>351.908634</ele>
        <time>2021-11-17T23:54:19.774Z</time>
      </trkpt>
      <trkpt lat="47.505697" lon="8.024216">
        <ele>352.596643</ele>
        <time>2021-11-17T23:54:26.864Z</time>
      </trkpt>
      <trkpt lat="47.505612" lon="8.024383">
        <ele>352.791186</ele>
        <time>2021-11-17T23:54:29.978Z</time>
      </trkpt>
      <trkpt lat="47.505559" lon="8.024486">
        <ele>352.848455</ele>
        <time>2021-11-17T23:54:31.736Z</time>
      </trkpt>
      <trkpt lat="47.505192" lon="8.025207">
        <ele>353.247757</ele>
        <time>2021-11-17T23:54:43.510Z</time>
      </trkpt>
      <trkpt lat="47.504823" lon="8.026024">
        <ele>353.682453</ele>
        <time>2021-11-17T23:54:55.005Z</time>
      </trkpt>
      <trkpt lat="47.504760" lon="8.026163">
        <ele>353.756490</ele>
        <time>2021-11-17T23:54:56.829Z</time>
      </trkpt>
      <trkpt lat="47.504725" lon="8.026244">
        <ele>353.799020</ele>
        <time>2021-11-17T23:54:57.741Z</time>
      </trkpt>
      <trkpt lat="47.504704" lon="8.026294">
        <ele>353.825062</ele>
        <time>2021-11-17T23:54:58.278Z</time>
      </trkpt>
      <trkpt lat="47.504676" lon="8.026276">
        <ele>353.845049</ele>
        <time>2021-11-17T23:54:58.691Z</time>
      </trkpt>
      <trkpt lat="47.504602" lon="8.026299">
        <ele>353.894558</ele>
        <time>2021-11-17T23:54:59.713Z</time>
      </trkpt>
      <trkpt lat="47.504574" lon="8.026349">
        <ele>353.918319</ele>
        <time>2021-11-17T23:55:00.320Z</time>
      </trkpt>
      <trkpt lat="47.504574" lon="8.026349">
        <ele>353.918319</ele>
        <time>2021-11-17T23:55:00.321Z</time>
      </trkpt>
      <trkpt lat="47.504566" lon="8.026393">
        <ele>353.883372</ele>
        <time>2021-11-17T23:55:00.797Z</time>
      </trkpt>
      <trkpt lat="47.504579" lon="8.026477">
        <ele>353.817280</ele>
        <time>2021-11-17T23:55:01.618Z</time>
      </trkpt>
      <trkpt lat="47.504614" lon="8.026525">
        <ele>353.763112</ele>
        <time>2021-11-17T23:55:02.103Z</time>
      </trkpt>
      <trkpt lat="47.504641" lon="8.026538">
        <ele>353.730877</ele>
        <time>2021-11-17T23:55:02.462Z</time>
      </trkpt>
      <trkpt lat="47.504663" lon="8.026539">
        <ele>353.705888</ele>
        <time>2021-11-17T23:55:02.718Z</time>
      </trkpt>
      <trkpt lat="47.504689" lon="8.026530">
        <ele>353.675574</ele>
        <time>2021-11-17T23:55:03.031Z</time>
      </trkpt>
      <trkpt lat="47.504716" lon="8.026506">
        <ele>353.639818</ele>
        <time>2021-11-17T23:55:03.419Z</time>
      </trkpt>
      <trkpt lat="47.504737" lon="8.026462">
        <ele>353.598500</ele>
        <time>2021-11-17T23:55:03.890Z</time>
      </trkpt>
      <trkpt lat="47.504755" lon="8.026479">
        <ele>353.574259</ele>
        <time>2021-11-17T23:55:04.291Z</time>
      </trkpt>
      <trkpt lat="47.504804" lon="8.026522">
        <ele>353.509588</ele>
        <time>2021-11-17T23:55:05.337Z</time>
      </trkpt>
      <trkpt lat="47.505159" lon="8.026807">
        <ele>353.051093</ele>
        <time>2021-11-17T23:55:12.300Z</time>
      </trkpt>
      <trkpt lat="47.505540" lon="8.027087">
        <ele>352.568163</ele>
        <time>2021-11-17T23:55:19.357Z</time>
      </trkpt>
      <trkpt lat="47.505789" lon="8.027258">
        <ele>352.256529</ele>
        <time>2021-11-17T23:55:23.975Z</time>
      </trkpt>
      <trkpt lat="47.505854" lon="8.027299">
        <ele>352.176313</ele>
        <time>2021-11-17T23:55:25.192Z</time>
      </trkpt>
      <trkpt lat="47.505882" lon="8.027305">
        <ele>352.144193</ele>
        <time>2021-11-17T23:55:25.573Z</time>
      </trkpt>
      <trkpt lat="47.505880" lon="8.027324">
        <ele>352.129445</ele>
        <time>2021-11-17T23:55:25.797Z</time>
      </trkpt>
      <trkpt lat="47.505884" lon="8.027352">
        <ele>352.107496</ele>
        <time>2021-11-17T23:55:26.133Z</time>
      </trkpt>
      <trkpt lat="47.505896" lon="8.027379">
        <ele>352.082709</ele>
        <time>2021-11-17T23:55:26.498Z</time>
      </trkpt>
      <trkpt lat="47.505909" lon="8.027394">
        <ele>352.063997</ele>
        <time>2021-11-17T23:55:26.765Z</time>
      </trkpt>
      <trkpt lat="47.505930" lon="8.027402">
        <ele>352.039378</ele>
        <time>2021-11-17T23:55:27.127Z</time>
      </trkpt>
      <trkpt lat="47.505918" lon="8.027442">
        <ele>352.005812</ele>
        <time>2021-11-17T23:55:27.644Z</time>
      </trkpt>
      <trkpt lat="47.505899" lon="8.027524">
        <ele>351.939327</ele>
        <time>2021-11-17T23:55:28.676Z</time>
      </trkpt>
      <trkpt lat="47.505841" lon="8.027752">
        <ele>351.777891</ele>
        <time>2021-11-17T23:55:31.348Z</time>
      </trkpt>
      <trkpt lat="47.505760" lon="8.028072">
        <ele>351.568271</ele>
        <time>2021-11-17T23:55:35.114Z</time>
      </trkpt>
      <trkpt lat="47.505717" lon="8.028403">
        <ele>351.361512</ele>
        <time>2021-11-17T23:55:38.642Z</time>
      </trkpt>
      <trkpt lat="47.505707" lon="8.028569">
        <ele>351.259282</ele>
        <time>2021-11-17T23:55:40.540Z</time>
      </trkpt>
      <trkpt lat="47.505673" lon="8.028775">
        <ele>351.129202</ele>
        <time>2021-11-17T23:55:42.858Z</time>
      </trkpt>
      <trkpt lat="47.505477" lon="8.029211">
        <ele>350.807946</ele>
        <time>2021-11-17T23:55:48.807Z</time>
      </trkpt>
      <trkpt lat="47.504830" lon="8.030312">
        <ele>350.712477</ele>
        <time>2021-11-17T23:56:09.314Z</time>
      </trkpt>
      <trkpt lat="47.504264" lon="8.031262">
        <ele>351.799450</ele>
        <time>2021-11-17T23:56:31.038Z</time>
      </trkpt>
      <trkpt lat="47.503900" lon="8.031853">
        <ele>352.485748</ele>
        <time>2021-11-17T23:56:46.585Z</time>
      </trkpt>
      <trkpt lat="47.503542" lon="8.032498">
        <ele>353.669980</ele>
        <time>2021-11-17T23:57:02.552Z</time>
      </trkpt>
      <trkpt lat="47.503456" lon="8.032688">
        <ele>354.003056</ele>
        <time>2021-11-17T23:57:07.327Z</time>
      </trkpt>
      <trkpt lat="47.503241" lon="8.033161">
        <ele>354.833331</ele>
        <time>2021-11-17T23:57:18.573Z</time>
      </trkpt>
      <trkpt lat="47.502736" lon="8.034380">
        <ele>356.840562</ele>
        <time>2021-11-17T23:57:46.148Z</time>
      </trkpt>
      <trkpt lat="47.502581" lon="8.034740">
        <ele>357.370009</ele>
        <time>2021-11-17T23:57:54.652Z</time>
      </trkpt>
      <trkpt lat="47.502156" lon="8.035747">
        <ele>358.842598</ele>
        <time>2021-11-17T23:58:16.924Z</time>
      </trkpt>
      <trkpt lat="47.502046" lon="8.036004">
        <ele>359.219924</ele>
        <time>2021-11-17T23:58:22.774Z</time>
      </trkpt>
      <trkpt lat="47.501617" lon="8.035668">
        <ele>359.705712</ele>
        <time>2021-11-17T23:58:35.377Z</time>
      </trkpt>
      <trkpt lat="47.501518" lon="8.035634">
        <ele>359.703476</ele>
        <time>2021-11-17T23:58:37.795Z</time>
      </trkpt>
      <trkpt lat="47.501454" lon="8.035709">
        <ele>359.701680</ele>
        <time>2021-11-17T23:58:40.182Z</time>
      </trkpt>
      <trkpt lat="47.501437" lon="8.035841">
        <ele>359.699682</ele>
        <time>2021-11-17T23:58:42.151Z</time>
      </trkpt>
      <trkpt lat="47.501234" lon="8.038241">
        <ele>359.429782</ele>
        <time>2021-11-17T23:59:12.173Z</time>
      </trkpt>
      <trkpt lat="47.501231" lon="8.038279">
        <ele>359.410753</ele>
        <time>2021-11-17T23:59:12.506Z</time>
      </trkpt>
      <trkpt lat="47.501267" lon="8.038284">
        <ele>359.384133</ele>
        <time>2021-11-17T23:59:12.878Z</time>
      </trkpt>
      <trkpt lat="47.501901" lon="8.038376">
        <ele>358.915128</ele>
        <time>2021-11-17T23:59:20.704Z</time>
      </trkpt>
      <trkpt lat="47.502069" lon="8.038565">
        <ele>358.759774</ele>
        <time>2021-11-17T23:59:23.175Z</time>
      </trkpt>
      <trkpt lat="47.502088" lon="8.038680">
        <ele>358.700891</ele>
        <time>2021-11-17T23:59:24.322Z</time>
      </trkpt>
      <trkpt lat="47.502099" lon="8.038844">
        <ele>358.618922</ele>
        <time>2021-11-17T23:59:25.550Z</time>
      </trkpt>
      <trkpt lat="47.502104" lon="8.038924">
        <ele>358.578963</ele>
        <time>2021-11-17T23:59:26.175Z</time>
      </trkpt>
      <trkpt lat="47.502162" lon="8.040946">
        <ele>359.030212</ele>
        <time>2021-11-17T23:59:48.087Z</time>
      </trkpt>
      <trkpt lat="47.502240" lon="8.041844">
        <ele>359.427683</ele>
        <time>2021-11-18T00:00:00.179Z</time>
      </trkpt>
      <trkpt lat="47.502261" lon="8.042085">
        <ele>359.558855</ele>
        <time>2021-11-18T00:00:03.490Z</time>
      </trkpt>
      <trkpt lat="47.502592" lon="8.044305">
        <ele>361.856721</ele>
        <time>2021-11-18T00:00:35.432Z</time>
      </trkpt>
      <trkpt lat="47.502959" lon="8.047023">
        <ele>364.900161</ele>
        <time>2021-11-18T00:01:15.625Z</time>
      </trkpt>
      <trkpt lat="47.503126" lon="8.048338">
        <ele>366.205936</ele>
        <time>2021-11-18T00:01:34.989Z</time>
      </trkpt>
      <trkpt lat="47.503303" lon="8.050012">
        <ele>367.788369</ele>
        <time>2021-11-18T00:01:57.633Z</time>
      </trkpt>
      <trkpt lat="47.503323" lon="8.050248">
        <ele>367.974197</ele>
        <time>2021-11-18T00:02:00.879Z</time>
      </trkpt>
      <trkpt lat="47.503363" lon="8.050738">
        <ele>368.359811</ele>
        <time>2021-11-18T00:02:07.254Z</time>
      </trkpt>
      <trkpt lat="47.503386" lon="8.051161">
        <ele>368.691362</ele>
        <time>2021-11-18T00:02:12.703Z</time>
      </trkpt>
      <trkpt lat="47.503397" lon="8.051365">
        <ele>368.851251</ele>
        <time>2021-11-18T00:02:15.499Z</time>
      </trkpt>
      <trkpt lat="47.503421" lon="8.051996">
        <ele>369.345021</ele>
        <time>2021-11-18T00:02:23.841Z</time>
      </trkpt>
      <trkpt lat="47.503428" lon="8.052181">
        <ele>369.489785</ele>
        <time>2021-11-18T00:02:26.239Z</time>
      </trkpt>
      <trkpt lat="47.503428" lon="8.052697">
        <ele>369.924979</ele>
        <time>2021-11-18T00:02:33.015Z</time>
      </trkpt>
      <trkpt lat="47.503431" lon="8.052821">
        <ele>370.046133</ele>
        <time>2021-11-18T00:02:34.633Z</time>
      </trkpt>
      <trkpt lat="47.503433" lon="8.053143">
        <ele>370.360554</ele>
        <time>2021-11-18T00:02:40.106Z</time>
      </trkpt>
      <trkpt lat="47.503429" lon="8.053339">
        <ele>370.552021</ele>
        <time>2021-11-18T00:02:43.543Z</time>
      </trkpt>
      <trkpt lat="47.503413" lon="8.053999">
        <ele>371.196876</ele>
        <time>2021-11-18T00:02:55.315Z</time>
      </trkpt>
      <trkpt lat="47.503340" lon="8.055072">
        <ele>372.249879</ele>
        <time>2021-11-18T00:03:14.596Z</time>
      </trkpt>
      <trkpt lat="47.503298" lon="8.055555">
        <ele>372.807866</ele>
        <time>2021-11-18T00:03:23.126Z</time>
      </trkpt>
      <trkpt lat="47.503232" lon="8.056115">
        <ele>373.489726</ele>
        <time>2021-11-18T00:03:33.058Z</time>
      </trkpt>
      <trkpt lat="47.502927" lon="8.057944">
        <ele>375.744180</ele>
        <time>2021-11-18T00:04:08.744Z</time>
      </trkpt>
      <trkpt lat="47.502836" lon="8.058343">
        <ele>376.235405</ele>
        <time>2021-11-18T00:04:16.495Z</time>
      </trkpt>
      <trkpt lat="47.502806" lon="8.058487">
        <ele>376.411182</ele>
        <time>2021-11-18T00:04:19.516Z</time>
      </trkpt>
      <trkpt lat="47.502690" lon="8.058955">
        <ele>376.992671</ele>
        <time>2021-11-18T00:04:28.517Z</time>
      </trkpt>
      <trkpt lat="47.502580" lon="8.059374">
        <ele>377.517029</ele>
        <time>2021-11-18T00:04:36.504Z</time>
      </trkpt>
      <trkpt lat="47.502534" lon="8.059520">
        <ele>377.704944</ele>
        <time>2021-11-18T00:04:39.875Z</time>
      </trkpt>
      <trkpt lat="47.502407" lon="8.059925">
        <ele>378.225778</ele>
        <time>2021-11-18T00:04:47.891Z</time>
      </trkpt>
      <trkpt lat="47.502229" lon="8.060464">
        <ele>378.866857</ele>
        <time>2021-11-18T00:04:59.108Z</time>
      </trkpt>
      <trkpt lat="47.502130" lon="8.060761">
        <ele>379.166539</ele>
        <time>2021-11-18T00:05:04.660Z</time>
      </trkpt>
      <trkpt lat="47.501960" lon="8.061164">
        <ele>379.596458</ele>
        <time>2021-11-18T00:05:12.874Z</time>
      </trkpt>
      <trkpt lat="47.501169" lon="8.063017">
        <ele>382.070480</ele>
        <time>2021-11-18T00:05:49.532Z</time>
      </trkpt>
      <trkpt lat="47.500653" lon="8.064026">
        <ele>384.323482</ele>
        <time>2021-11-18T00:06:15.765Z</time>
      </trkpt>
      <trkpt lat="47.500531" lon="8.064169">
        <ele>384.733582</ele>
        <time>2021-11-18T00:06:20.769Z</time>
      </trkpt>
      <trkpt lat="47.500414" lon="8.064350">
        <ele>385.179574</ele>
        <time>2021-11-18T00:06:26.901Z</time>
      </trkpt>
      <trkpt lat="47.500341" lon="8.064457">
        <ele>385.450311</ele>
        <time>2021-11-18T00:06:30.083Z</time>
      </trkpt>
      <trkpt lat="47.500095" lon="8.064612">
        <ele>386.269106</ele>
        <time>2021-11-18T00:06:39.645Z</time>
      </trkpt>
      <trkpt lat="47.500120" lon="8.064657">
        <ele>386.407463</ele>
        <time>2021-11-18T00:06:41.335Z</time>
      </trkpt>
      <trkpt lat="47.500182" lon="8.064834">
        <ele>386.880939</ele>
        <time>2021-11-18T00:06:46.229Z</time>
      </trkpt>
      <trkpt lat="47.500209" lon="8.064917">
        <ele>387.099705</ele>
        <time>2021-11-18T00:06:49.689Z</time>
      </trkpt>
      <trkpt lat="47.500343" lon="8.065218">
        <ele>387.955751</ele>
        <time>2021-11-18T00:06:57.807Z</time>
      </trkpt>
      <trkpt lat="47.500746" lon="8.065595">
        <ele>389.631542</ele>
        <time>2021-11-18T00:07:15.677Z</time>
      </trkpt>
      <trkpt lat="47.500757" lon="8.065687">
        <ele>389.853415</ele>
        <time>2021-11-18T00:07:17.250Z</time>
      </trkpt>
      <trkpt lat="47.500523" lon="8.066198">
        <ele>391.319414</ele>
        <time>2021-11-18T00:07:30.946Z</time>
      </trkpt>
      <trkpt lat="47.500485" lon="8.066332">
        <ele>391.664530</ele>
        <time>2021-11-18T00:07:34.741Z</time>
      </trkpt>
      <trkpt lat="47.500368" lon="8.066586">
        <ele>392.208784</ele>
        <time>2021-11-18T00:07:41.864Z</time>
      </trkpt>
      <trkpt lat="47.499930" lon="8.068012">
        <ele>393.263935</ele>
        <time>2021-11-18T00:08:08.321Z</time>
      </trkpt>
      <trkpt lat="47.499748" lon="8.068841">
        <ele>393.851088</ele>
        <time>2021-11-18T00:08:20.140Z</time>
      </trkpt>
      <trkpt lat="47.499620" lon="8.069496">
        <ele>393.923096</ele>
        <time>2021-11-18T00:08:28.641Z</time>
      </trkpt>
      <trkpt lat="47.499538" lon="8.069838">
        <ele>393.919613</ele>
        <time>2021-11-18T00:08:33.233Z</time>
      </trkpt>
      <trkpt lat="47.499461" lon="8.070758">
        <ele>393.910716</ele>
        <time>2021-11-18T00:08:45.110Z</time>
      </trkpt>
      <trkpt lat="47.499601" lon="8.071817">
        <ele>394.123885</ele>
        <time>2021-11-18T00:09:01.256Z</time>
      </trkpt>
      <trkpt lat="47.499631" lon="8.072434">
        <ele>394.623358</ele>
        <time>2021-11-18T00:09:11.559Z</time>
      </trkpt>
      <trkpt lat="47.499618" lon="8.072678">
        <ele>394.820982</ele>
        <time>2021-11-18T00:09:16.015Z</time>
      </trkpt>
      <trkpt lat="47.499580" lon="8.073053">
        <ele>395.127155</ele>
        <time>2021-11-18T00:09:22.067Z</time>
      </trkpt>
      <trkpt lat="47.499525" lon="8.073287">
        <ele>395.327202</ele>
        <time>2021-11-18T00:09:27.015Z</time>
      </trkpt>
      <trkpt lat="47.499275" lon="8.073955">
        <ele>395.943795</ele>
        <time>2021-11-18T00:09:39.793Z</time>
      </trkpt>
      <trkpt lat="47.499163" lon="8.074206">
        <ele>396.211964</ele>
        <time>2021-11-18T00:09:45.793Z</time>
      </trkpt>
      <trkpt lat="47.498910" lon="8.074849">
        <ele>396.926109</ele>
        <time>2021-11-18T00:09:58.681Z</time>
      </trkpt>
      <trkpt lat="47.498145" lon="8.076850">
        <ele>399.071124</ele>
        <time>2021-11-18T00:10:38.680Z</time>
      </trkpt>
      <trkpt lat="47.497682" lon="8.077743">
        <ele>400.024706</ele>
        <time>2021-11-18T00:10:58.648Z</time>
      </trkpt>
      <trkpt lat="47.497198" lon="8.078441">
        <ele>400.866105</ele>
        <time>2021-11-18T00:11:14.960Z</time>
      </trkpt>
      <trkpt lat="47.497125" lon="8.078508">
        <ele>400.903230</ele>
        <time>2021-11-18T00:11:17.370Z</time>
      </trkpt>
      <trkpt lat="47.497038" lon="8.078610">
        <ele>400.951200</ele>
        <time>2021-11-18T00:11:20.026Z</time>
      </trkpt>
      <trkpt lat="47.496793" lon="8.078891">
        <ele>401.085162</ele>
        <time>2021-11-18T00:11:27.093Z</time>
      </trkpt>
      <trkpt lat="47.496446" lon="8.079280">
        <ele>401.273301</ele>
        <time>2021-11-18T00:11:36.504Z</time>
      </trkpt>
      <trkpt lat="47.496380" lon="8.079285">
        <ele>401.301864</ele>
        <time>2021-11-18T00:11:37.334Z</time>
      </trkpt>
      <trkpt lat="47.496040" lon="8.079701">
        <ele>401.492525</ele>
        <time>2021-11-18T00:11:44.100Z</time>
      </trkpt>
      <trkpt lat="47.495859" lon="8.079943">
        <ele>401.597947</ele>
        <time>2021-11-18T00:11:48.170Z</time>
      </trkpt>
      <trkpt lat="47.495681" lon="8.080229">
        <ele>401.773902</ele>
        <time>2021-11-18T00:11:52.134Z</time>
      </trkpt>
      <trkpt lat="47.495562" lon="8.080466">
        <ele>401.935791</ele>
        <time>2021-11-18T00:11:55.187Z</time>
      </trkpt>
      <trkpt lat="47.495515" lon="8.080558">
        <ele>401.999026</ele>
        <time>2021-11-18T00:11:56.424Z</time>
      </trkpt>
      <trkpt lat="47.495384" lon="8.080873">
        <ele>402.201821</ele>
        <time>2021-11-18T00:12:00.486Z</time>
      </trkpt>
      <trkpt lat="47.495292" lon="8.081144">
        <ele>402.368100</ele>
        <time>2021-11-18T00:12:04.255Z</time>
      </trkpt>
      <trkpt lat="47.495281" lon="8.081177">
        <ele>402.388275</ele>
        <time>2021-11-18T00:12:04.778Z</time>
      </trkpt>
      <trkpt lat="47.495207" lon="8.081445">
        <ele>402.547005</ele>
        <time>2021-11-18T00:12:08.168Z</time>
      </trkpt>
      <trkpt lat="47.495162" lon="8.081632">
        <ele>402.655839</ele>
        <time>2021-11-18T00:12:10.888Z</time>
      </trkpt>
      <trkpt lat="47.495132" lon="8.081754">
        <ele>402.727019</ele>
        <time>2021-11-18T00:12:12.580Z</time>
      </trkpt>
      <trkpt lat="47.495088" lon="8.082021">
        <ele>402.877697</ele>
        <time>2021-11-18T00:12:16.100Z</time>
      </trkpt>
      <trkpt lat="47.495034" lon="8.082354">
        <ele>403.065453</ele>
        <time>2021-11-18T00:12:20.785Z</time>
      </trkpt>
      <trkpt lat="47.495018" lon="8.082502">
        <ele>403.218447</ele>
        <time>2021-11-18T00:12:22.788Z</time>
      </trkpt>
      <trkpt lat="47.494982" lon="8.082826">
        <ele>403.665588</ele>
        <time>2021-11-18T00:12:27.542Z</time>
      </trkpt>
      <trkpt lat="47.494963" lon="8.083009">
        <ele>403.917718</ele>
        <time>2021-11-18T00:12:30.314Z</time>
      </trkpt>
      <trkpt lat="47.494933" lon="8.083243">
        <ele>404.242060</ele>
        <time>2021-11-18T00:12:34.202Z</time>
      </trkpt>
      <trkpt lat="47.494898" lon="8.083514">
        <ele>404.617782</ele>
        <time>2021-11-18T00:12:38.498Z</time>
      </trkpt>
      <trkpt lat="47.494822" lon="8.084015">
        <ele>405.317017</ele>
        <time>2021-11-18T00:12:47.051Z</time>
      </trkpt>
      <trkpt lat="47.494749" lon="8.084368">
        <ele>405.819738</ele>
        <time>2021-11-18T00:12:53.255Z</time>
      </trkpt>
      <trkpt lat="47.494666" lon="8.084717">
        <ele>406.323581</ele>
        <time>2021-11-18T00:12:59.185Z</time>
      </trkpt>
      <trkpt lat="47.494652" lon="8.084779">
        <ele>406.412602</ele>
        <time>2021-11-18T00:13:00.245Z</time>
      </trkpt>
      <trkpt lat="47.494640" lon="8.084828">
        <ele>406.483577</ele>
        <time>2021-11-18T00:13:01.036Z</time>
      </trkpt>
      <trkpt lat="47.494445" lon="8.085612">
        <ele>407.486075</ele>
        <time>2021-11-18T00:13:13.403Z</time>
      </trkpt>
      <trkpt lat="47.494237" lon="8.086449">
        <ele>408.517355</ele>
        <time>2021-11-18T00:13:26.320Z</time>
      </trkpt>
      <trkpt lat="47.494042" lon="8.087271">
        <ele>409.524789</ele>
        <time>2021-11-18T00:13:39.021Z</time>
      </trkpt>
      <trkpt lat="47.493891" lon="8.087911">
        <ele>410.205426</ele>
        <time>2021-11-18T00:13:48.476Z</time>
      </trkpt>
      <trkpt lat="47.493802" lon="8.088286">
        <ele>410.571112</ele>
        <time>2021-11-18T00:13:54.036Z</time>
      </trkpt>
      <trkpt lat="47.493532" lon="8.089427">
        <ele>411.683416</ele>
        <time>2021-11-18T00:14:09.412Z</time>
      </trkpt>
      <trkpt lat="47.493523" lon="8.089470">
        <ele>411.724833</ele>
        <time>2021-11-18T00:14:09.970Z</time>
      </trkpt>
      <trkpt lat="47.493453" lon="8.089837">
        <ele>412.075691</ele>
        <time>2021-11-18T00:14:15.389Z</time>
      </trkpt>
      <trkpt lat="47.493381" lon="8.090217">
        <ele>412.524874</ele>
        <time>2021-11-18T00:14:21.451Z</time>
      </trkpt>
      <trkpt lat="47.493362" lon="8.090313">
        <ele>412.659451</ele>
        <time>2021-11-18T00:14:22.893Z</time>
      </trkpt>
      <trkpt lat="47.493318" lon="8.090521">
        <ele>412.952670</ele>
        <time>2021-11-18T00:14:25.704Z</time>
      </trkpt>
      <trkpt lat="47.493278" lon="8.090706">
        <ele>413.213985</ele>
        <time>2021-11-18T00:14:29.326Z</time>
      </trkpt>
      <trkpt lat="47.493199" lon="8.091055">
        <ele>413.709149</ele>
        <time>2021-11-18T00:14:34.609Z</time>
      </trkpt>
      <trkpt lat="47.493176" lon="8.091152">
        <ele>413.847447</ele>
        <time>2021-11-18T00:14:36.610Z</time>
      </trkpt>
      <trkpt lat="47.493111" lon="8.091365">
        <ele>414.161870</ele>
        <time>2021-11-18T00:14:40.169Z</time>
      </trkpt>
      <trkpt lat="47.493013" lon="8.091685">
        <ele>414.634529</ele>
        <time>2021-11-18T00:14:45.937Z</time>
      </trkpt>
      <trkpt lat="47.493004" lon="8.091715">
        <ele>414.678688</ele>
        <time>2021-11-18T00:14:46.490Z</time>
      </trkpt>
      <trkpt lat="47.492943" lon="8.091916">
        <ele>414.975122</ele>
        <time>2021-11-18T00:14:49.567Z</time>
      </trkpt>
      <trkpt lat="47.492908" lon="8.092021">
        <ele>415.132636</ele>
        <time>2021-11-18T00:14:51.284Z</time>
      </trkpt>
      <trkpt lat="47.492785" lon="8.092387">
        <ele>415.682567</ele>
        <time>2021-11-18T00:14:57.994Z</time>
      </trkpt>
      <trkpt lat="47.492561" lon="8.093030">
        <ele>416.624502</ele>
        <time>2021-11-18T00:15:09.213Z</time>
      </trkpt>
      <trkpt lat="47.492364" lon="8.093612">
        <ele>417.466876</ele>
        <time>2021-11-18T00:15:19.532Z</time>
      </trkpt>
      <trkpt lat="47.492222" lon="8.094030">
        <ele>418.072322</ele>
        <time>2021-11-18T00:15:27.055Z</time>
      </trkpt>
      <trkpt lat="47.491531" lon="8.095826">
        <ele>420.477440</ele>
        <time>2021-11-18T00:15:56.569Z</time>
      </trkpt>
      <trkpt lat="47.490966" lon="8.097142">
        <ele>422.139787</ele>
        <time>2021-11-18T00:16:18.174Z</time>
      </trkpt>
      <trkpt lat="47.490321" lon="8.098647">
        <ele>424.853376</ele>
        <time>2021-11-18T00:16:45.322Z</time>
      </trkpt>
      <trkpt lat="47.489995" lon="8.099422">
        <ele>426.364143</ele>
        <time>2021-11-18T00:17:01.306Z</time>
      </trkpt>
      <trkpt lat="47.489912" lon="8.099621">
        <ele>427.153714</ele>
        <time>2021-11-18T00:17:05.582Z</time>
      </trkpt>
      <trkpt lat="47.489698" lon="8.100128">
        <ele>429.172028</ele>
        <time>2021-11-18T00:17:17.212Z</time>
      </trkpt>
      <trkpt lat="47.489550" lon="8.100488">
        <ele>430.594789</ele>
        <time>2021-11-18T00:17:27.302Z</time>
      </trkpt>
      <trkpt lat="47.489497" lon="8.100620">
        <ele>431.113207</ele>
        <time>2021-11-18T00:17:31.317Z</time>
      </trkpt>
      <trkpt lat="47.489406" lon="8.100900">
        <ele>432.162245</ele>
        <time>2021-11-18T00:17:40.151Z</time>
      </trkpt>
      <trkpt lat="47.489218" lon="8.101622">
        <ele>434.774698</ele>
        <time>2021-11-18T00:18:04.237Z</time>
      </trkpt>
      <trkpt lat="47.489160" lon="8.101908">
        <ele>435.570420</ele>
        <time>2021-11-18T00:18:11.544Z</time>
      </trkpt>
      <trkpt lat="47.488961" lon="8.102990">
        <ele>438.121945</ele>
        <time>2021-11-18T00:18:32.137Z</time>
      </trkpt>
      <trkpt lat="47.488863" lon="8.103453">
        <ele>439.225923</ele>
        <time>2021-11-18T00:18:41.875Z</time>
      </trkpt>
      <trkpt lat="47.488766" lon="8.103832">
        <ele>440.148080</ele>
        <time>2021-11-18T00:18:46.713Z</time>
      </trkpt>
      <trkpt lat="47.488623" lon="8.104263">
        <ele>441.235699</ele>
        <time>2021-11-18T00:18:56.769Z</time>
      </trkpt>
      <trkpt lat="47.488025" lon="8.105557">
        <ele>444.470462</ele>
        <time>2021-11-18T00:19:16.133Z</time>
      </trkpt>
      <trkpt lat="47.487723" lon="8.106230">
        <ele>446.137463</ele>
        <time>2021-11-18T00:19:34.844Z</time>
      </trkpt>
      <trkpt lat="47.487526" lon="8.106968">
        <ele>449.385574</ele>
        <time>2021-11-18T00:19:56.009Z</time>
      </trkpt>
      <trkpt lat="47.487493" lon="8.107281">
        <ele>451.001142</ele>
        <time>2021-11-18T00:20:05.418Z</time>
      </trkpt>
      <trkpt lat="47.487488" lon="8.107690">
        <ele>453.087328</ele>
        <time>2021-11-18T00:20:17.463Z</time>
      </trkpt>
      <trkpt lat="47.487522" lon="8.108181">
        <ele>455.604472</ele>
        <time>2021-11-18T00:20:32.624Z</time>
      </trkpt>
      <trkpt lat="47.487592" lon="8.108945">
        <ele>459.536414</ele>
        <time>2021-11-18T00:20:58.001Z</time>
      </trkpt>
      <trkpt lat="47.487704" lon="8.110209">
        <ele>467.758446</ele>
        <time>2021-11-18T00:21:44.447Z</time>
      </trkpt>
      <trkpt lat="47.487750" lon="8.110724">
        <ele>471.195905</ele>
        <time>2021-11-18T00:22:03.653Z</time>
      </trkpt>
      <trkpt lat="47.487784" lon="8.111079">
        <ele>473.568459</ele>
        <time>2021-11-18T00:22:17.095Z</time>
      </trkpt>
      <trkpt lat="47.487816" lon="8.111427">
        <ele>475.892437</ele>
        <time>2021-11-18T00:22:30.204Z</time>
      </trkpt>
      <trkpt lat="47.487873" lon="8.112054">
        <ele>480.232341</ele>
        <time>2021-11-18T00:22:54.011Z</time>
      </trkpt>
      <trkpt lat="47.487928" lon="8.112601">
        <ele>484.145913</ele>
        <time>2021-11-18T00:23:14.490Z</time>
      </trkpt>
      <trkpt lat="47.487946" lon="8.113698">
        <ele>491.911334</ele>
        <time>2021-11-18T00:23:55.671Z</time>
      </trkpt>
      <trkpt lat="47.487880" lon="8.114431">
        <ele>497.221153</ele>
        <time>2021-11-18T00:24:24.863Z</time>
      </trkpt>
      <trkpt lat="47.487657" lon="8.115463">
        <ele>506.223231</ele>
        <time>2021-11-18T00:25:11.231Z</time>
      </trkpt>
      <trkpt lat="47.487583" lon="8.115667">
        <ele>508.146935</ele>
        <time>2021-11-18T00:25:22.582Z</time>
      </trkpt>
      <trkpt lat="47.486845" lon="8.117095">
        <ele>521.938635</ele>
        <time>2021-11-18T00:26:41.865Z</time>
      </trkpt>
      <trkpt lat="47.486571" lon="8.117656">
        <ele>526.145945</ele>
        <time>2021-11-18T00:27:10.272Z</time>
      </trkpt>
      <trkpt lat="47.486268" lon="8.118191">
        <ele>530.388887</ele>
        <time>2021-11-18T00:27:33.857Z</time>
      </trkpt>
      <trkpt lat="47.485564" lon="8.119205">
        <ele>535.800682</ele>
        <time>2021-11-18T00:28:07.951Z</time>
      </trkpt>
      <trkpt lat="47.485363" lon="8.119586">
        <ele>536.359386</ele>
        <time>2021-11-18T00:28:14.407Z</time>
      </trkpt>
      <trkpt lat="47.485011" lon="8.120456">
        <ele>537.531480</ele>
        <time>2021-11-18T00:28:25.346Z</time>
      </trkpt>
      <trkpt lat="47.484889" lon="8.120748">
        <ele>537.928304</ele>
        <time>2021-11-18T00:28:28.282Z</time>
      </trkpt>
      <trkpt lat="47.484812" lon="8.120917">
        <ele>538.061495</ele>
        <time>2021-11-18T00:28:30.894Z</time>
      </trkpt>
      <trkpt lat="47.484688" lon="8.121120">
        <ele>538.021490</ele>
        <time>2021-11-18T00:28:33.147Z</time>
      </trkpt>
      <trkpt lat="47.484520" lon="8.121330">
        <ele>537.973914</ele>
        <time>2021-11-18T00:28:36.381Z</time>
      </trkpt>
      <trkpt lat="47.484367" lon="8.121479">
        <ele>537.934290</ele>
        <time>2021-11-18T00:28:38.581Z</time>
      </trkpt>
      <trkpt lat="47.484058" lon="8.121717">
        <ele>537.858929</ele>
        <time>2021-11-18T00:28:43.391Z</time>
      </trkpt>
      <trkpt lat="47.484027" lon="8.121739">
        <ele>537.851491</ele>
        <time>2021-11-18T00:28:44.082Z</time>
      </trkpt>
      <trkpt lat="47.483946" lon="8.121799">
        <ele>537.831895</ele>
        <time>2021-11-18T00:28:45.614Z</time>
      </trkpt>
      <trkpt lat="47.483830" lon="8.121913">
        <ele>537.801769</ele>
        <time>2021-11-18T00:28:47.287Z</time>
      </trkpt>
      <trkpt lat="47.483747" lon="8.122015">
        <ele>537.778429</ele>
        <time>2021-11-18T00:28:48.554Z</time>
      </trkpt>
      <trkpt lat="47.483715" lon="8.122061">
        <ele>537.768777</ele>
        <time>2021-11-18T00:28:49.640Z</time>
      </trkpt>
      <trkpt lat="47.483395" lon="8.122774">
        <ele>537.665853</ele>
        <time>2021-11-18T00:28:58.421Z</time>
      </trkpt>
      <trkpt lat="47.483204" lon="8.123277">
        <ele>537.628059</ele>
        <time>2021-11-18T00:29:04.272Z</time>
      </trkpt>
      <trkpt lat="47.482968" lon="8.123897">
        <ele>537.581446</ele>
        <time>2021-11-18T00:29:11.814Z</time>
      </trkpt>
      <trkpt lat="47.482747" lon="8.124448">
        <ele>537.539473</ele>
        <time>2021-11-18T00:29:17.745Z</time>
      </trkpt>
      <trkpt lat="47.482507" lon="8.124964">
        <ele>537.561956</ele>
        <time>2021-11-18T00:29:23.393Z</time>
      </trkpt>
      <trkpt lat="47.481997" lon="8.125997">
        <ele>537.957699</ele>
        <time>2021-11-18T00:29:35.583Z</time>
      </trkpt>
      <trkpt lat="47.481879" lon="8.126325">
        <ele>538.072645</ele>
        <time>2021-11-18T00:29:41.298Z</time>
      </trkpt>
      <trkpt lat="47.481779" lon="8.126701">
        <ele>538.197643</ele>
        <time>2021-11-18T00:29:46.279Z</time>
      </trkpt>
      <trkpt lat="47.481722" lon="8.127177">
        <ele>538.407502</ele>
        <time>2021-11-18T00:29:51.891Z</time>
      </trkpt>
      <trkpt lat="47.481690" lon="8.127694">
        <ele>539.243442</ele>
        <time>2021-11-18T00:29:59.035Z</time>
      </trkpt>
      <trkpt lat="47.481655" lon="8.128429">
        <ele>540.429850</ele>
        <time>2021-11-18T00:30:10.218Z</time>
      </trkpt>
      <trkpt lat="47.481607" lon="8.129456">
        <ele>542.087445</ele>
        <time>2021-11-18T00:30:29.266Z</time>
      </trkpt>
      <trkpt lat="47.481589" lon="8.129851">
        <ele>542.796140</ele>
        <time>2021-11-18T00:30:37.223Z</time>
      </trkpt>
      <trkpt lat="47.481535" lon="8.130419">
        <ele>544.335964</ele>
        <time>2021-11-18T00:30:48.736Z</time>
      </trkpt>
      <trkpt lat="47.481509" lon="8.130687">
        <ele>545.062793</ele>
        <time>2021-11-18T00:30:53.279Z</time>
      </trkpt>
      <trkpt lat="47.481421" lon="8.131045">
        <ele>546.085451</ele>
        <time>2021-11-18T00:30:59.526Z</time>
      </trkpt>
      <trkpt lat="47.481323" lon="8.131382">
        <ele>547.070336</ele>
        <time>2021-11-18T00:31:06.684Z</time>
      </trkpt>
      <trkpt lat="47.480899" lon="8.132641">
        <ele>551.489801</ele>
        <time>2021-11-18T00:31:39.585Z</time>
      </trkpt>
      <trkpt lat="47.480724" lon="8.133367">
        <ele>554.787092</ele>
        <time>2021-11-18T00:32:01.255Z</time>
      </trkpt>
      <trkpt lat="47.480608" lon="8.134090">
        <ele>557.965893</ele>
        <time>2021-11-18T00:32:22.611Z</time>
      </trkpt>
      <trkpt lat="47.480460" lon="8.135036">
        <ele>561.872137</ele>
        <time>2021-11-18T00:32:50.488Z</time>
      </trkpt>
      <trkpt lat="47.480431" lon="8.135333">
        <ele>562.828973</ele>
        <time>2021-11-18T00:32:57.568Z</time>
      </trkpt>
      <trkpt lat="47.480428" lon="8.135495">
        <ele>563.345714</ele>
        <time>2021-11-18T00:33:03.156Z</time>
      </trkpt>
      <trkpt lat="47.480445" lon="8.135745">
        <ele>564.146880</ele>
        <time>2021-11-18T00:33:09.060Z</time>
      </trkpt>
      <trkpt lat="47.480456" lon="8.135814">
        <ele>564.372929</ele>
        <time>2021-11-18T00:33:10.546Z</time>
      </trkpt>
      <trkpt lat="47.480497" lon="8.136071">
        <ele>565.214910</ele>
        <time>2021-11-18T00:33:18.009Z</time>
      </trkpt>
      <trkpt lat="47.480611" lon="8.136738">
        <ele>567.408631</ele>
        <time>2021-11-18T00:33:32.856Z</time>
      </trkpt>
      <trkpt lat="47.480729" lon="8.137479">
        <ele>569.694037</ele>
        <time>2021-11-18T00:33:48.239Z</time>
      </trkpt>
      <trkpt lat="47.480849" lon="8.138227">
        <ele>570.428631</ele>
        <time>2021-11-18T00:33:56.504Z</time>
      </trkpt>
      <trkpt lat="47.480926" lon="8.138706">
        <ele>570.899096</ele>
        <time>2021-11-18T00:34:01.773Z</time>
      </trkpt>
      <trkpt lat="47.480931" lon="8.138738">
        <ele>570.930479</ele>
        <time>2021-11-18T00:34:01.963Z</time>
      </trkpt>
      <trkpt lat="47.480997" lon="8.139156">
        <ele>571.340643</ele>
        <time>2021-11-18T00:34:08.922Z</time>
      </trkpt>
      <trkpt lat="47.481047" lon="8.139151">
        <ele>571.411497</ele>
        <time>2021-11-18T00:34:09.437Z</time>
      </trkpt>
      <trkpt lat="47.481211" lon="8.139188">
        <ele>571.646046</ele>
        <time>2021-11-18T00:34:12.132Z</time>
      </trkpt>
      <trkpt lat="47.481334" lon="8.139233">
        <ele>571.825185</ele>
        <time>2021-11-18T00:34:15.926Z</time>
      </trkpt>
      <trkpt lat="47.481570" lon="8.139330">
        <ele>572.171485</ele>
        <time>2021-11-18T00:34:19.760Z</time>
      </trkpt>
      <trkpt lat="47.481795" lon="8.139350">
        <ele>572.846229</ele>
        <time>2021-11-18T00:34:26.153Z</time>
      </trkpt>
      <trkpt lat="47.481930" lon="8.139364">
        <ele>573.254591</ele>
        <time>2021-11-18T00:34:29.640Z</time>
      </trkpt>
      <trkpt lat="47.482269" lon="8.139354">
        <ele>574.277729</ele>
        <time>2021-11-18T00:34:39.151Z</time>
      </trkpt>
      <trkpt lat="47.482314" lon="8.139339">
        <ele>574.416919</ele>
        <time>2021-11-18T00:34:40.417Z</time>
      </trkpt>
      <trkpt lat="47.482382" lon="8.139311">
        <ele>574.629906</ele>
        <time>2021-11-18T00:34:44.607Z</time>
      </trkpt>
      <trkpt lat="47.482938" lon="8.138763">
        <ele>576.645752</ele>
        <time>2021-11-18T00:35:00.420Z</time>
      </trkpt>
      <trkpt lat="47.482993" lon="8.138736">
        <ele>576.820610</ele>
        <time>2021-11-18T00:35:03.771Z</time>
      </trkpt>
      <trkpt lat="47.483055" lon="8.138704">
        <ele>577.018750</ele>
        <time>2021-11-18T00:35:05.201Z</time>
      </trkpt>
      <trkpt lat="47.483799" lon="8.138672">
        <ele>578.444028</ele>
        <time>2021-11-18T00:35:26.097Z</time>
      </trkpt>
      <trkpt lat="47.483932" lon="8.138672">
        <ele>578.647067</ele>
        <time>2021-11-18T00:35:28.715Z</time>
      </trkpt>
      <trkpt lat="47.484101" lon="8.138667">
        <ele>578.905116</ele>
        <time>2021-11-18T00:35:32.527Z</time>
      </trkpt>
      <trkpt lat="47.484611" lon="8.138600">
        <ele>579.686748</ele>
        <time>2021-11-18T00:35:42.492Z</time>
      </trkpt>
      <trkpt lat="47.485087" lon="8.139024">
        <ele>580.305766</ele>
        <time>2021-11-18T00:35:50.108Z</time>
      </trkpt>
      <trkpt lat="47.485614" lon="8.139130">
        <ele>580.114249</ele>
        <time>2021-11-18T00:35:57.318Z</time>
      </trkpt>
      <trkpt lat="47.485679" lon="8.139129">
        <ele>580.090841</ele>
        <time>2021-11-18T00:35:58.074Z</time>
      </trkpt>
      <trkpt lat="47.485769" lon="8.139093">
        <ele>580.057269</ele>
        <time>2021-11-18T00:36:01.866Z</time>
      </trkpt>
      <trkpt lat="47.485914" lon="8.138973">
        <ele>579.997444</ele>
        <time>2021-11-18T00:36:07.700Z</time>
      </trkpt>
      <trkpt lat="47.486150" lon="8.138614">
        <ele>579.875567</ele>
        <time>2021-11-18T00:36:19.707Z</time>
      </trkpt>
      <trkpt lat="47.486244" lon="8.138406">
        <ele>579.814676</ele>
        <time>2021-11-18T00:36:25.639Z</time>
      </trkpt>
      <trkpt lat="47.486385" lon="8.138090">
        <ele>579.722530</ele>
        <time>2021-11-18T00:36:34.514Z</time>
      </trkpt>
      <trkpt lat="47.486480" lon="8.137926">
        <ele>579.606009</ele>
        <time>2021-11-18T00:36:40.068Z</time>
      </trkpt>
      <trkpt lat="47.486500" lon="8.137887">
        <ele>579.570169</ele>
        <time>2021-11-18T00:36:41.240Z</time>
      </trkpt>
      <trkpt lat="47.486625" lon="8.137748">
        <ele>579.400786</ele>
        <time>2021-11-18T00:36:43.293Z</time>
      </trkpt>
      <trkpt lat="47.486647" lon="8.137734">
        <ele>579.374844</ele>
        <time>2021-11-18T00:36:43.528Z</time>
      </trkpt>
      <trkpt lat="47.487220" lon="8.137494">
        <ele>578.729733</ele>
        <time>2021-11-18T00:36:51.529Z</time>
      </trkpt>
      <trkpt lat="47.487735" lon="8.137374">
        <ele>578.164964</ele>
        <time>2021-11-18T00:36:57.482Z</time>
      </trkpt>
      <trkpt lat="47.488213" lon="8.137151">
        <ele>577.615095</ele>
        <time>2021-11-18T00:37:03.057Z</time>
      </trkpt>
      <trkpt lat="47.488465" lon="8.137151">
        <ele>577.327693</ele>
        <time>2021-11-18T00:37:05.911Z</time>
      </trkpt>
      <trkpt lat="47.488649" lon="8.137254">
        <ele>577.103332</ele>
        <time>2021-11-18T00:37:08.187Z</time>
      </trkpt>
      <trkpt lat="47.488837" lon="8.137371">
        <ele>576.870733</ele>
        <time>2021-11-18T00:37:10.500Z</time>
      </trkpt>
      <trkpt lat="47.488954" lon="8.137431">
        <ele>576.729511</ele>
        <time>2021-11-18T00:37:11.973Z</time>
      </trkpt>
      <trkpt lat="47.489423" lon="8.137655">
        <ele>576.167456</ele>
        <time>2021-11-18T00:37:17.946Z</time>
      </trkpt>
      <trkpt lat="47.490265" lon="8.137935">
        <ele>575.924099</ele>
        <time>2021-11-18T00:37:29.467Z</time>
      </trkpt>
      <trkpt lat="47.490479" lon="8.137973">
        <ele>576.029317</ele>
        <time>2021-11-18T00:37:32.902Z</time>
      </trkpt>
      <trkpt lat="47.490906" lon="8.138091">
        <ele>576.241368</ele>
        <time>2021-11-18T00:37:40.850Z</time>
      </trkpt>
      <trkpt lat="47.491438" lon="8.138230">
        <ele>576.505091</ele>
        <time>2021-11-18T00:37:51.498Z</time>
      </trkpt>
      <trkpt lat="47.491600" lon="8.138244">
        <ele>576.578411</ele>
        <time>2021-11-18T00:37:54.427Z</time>
      </trkpt>
      <trkpt lat="47.492088" lon="8.138269">
        <ele>576.484859</ele>
        <time>2021-11-18T00:38:03.708Z</time>
      </trkpt>
      <trkpt lat="47.492211" lon="8.138284">
        <ele>576.461213</ele>
        <time>2021-11-18T00:38:05.852Z</time>
      </trkpt>
      <trkpt lat="47.492313" lon="8.138377">
        <ele>576.438260</ele>
        <time>2021-11-18T00:38:08.018Z</time>
      </trkpt>
      <trkpt lat="47.492359" lon="8.138479">
        <ele>576.422385</ele>
        <time>2021-11-18T00:38:09.485Z</time>
      </trkpt>
      <trkpt lat="47.492379" lon="8.138603">
        <ele>576.405881</ele>
        <time>2021-11-18T00:38:11.256Z</time>
      </trkpt>
      <trkpt lat="47.492392" lon="8.138716">
        <ele>576.391042</ele>
        <time>2021-11-18T00:38:12.280Z</time>
      </trkpt>
      <trkpt lat="47.492651" lon="8.141002">
        <ele>573.639169</ele>
        <time>2021-11-18T00:38:30.331Z</time>
      </trkpt>
      <trkpt lat="47.492634" lon="8.141132">
        <ele>573.331168</ele>
        <time>2021-11-18T00:38:31.183Z</time>
      </trkpt>
      <trkpt lat="47.492604" lon="8.141229">
        <ele>573.083026</ele>
        <time>2021-11-18T00:38:31.876Z</time>
      </trkpt>
      <trkpt lat="47.492178" lon="8.141991">
        <ele>570.782510</ele>
        <time>2021-11-18T00:38:38.311Z</time>
      </trkpt>
      <trkpt lat="47.492091" lon="8.142144">
        <ele>570.317363</ele>
        <time>2021-11-18T00:38:39.571Z</time>
      </trkpt>
      <trkpt lat="47.492031" lon="8.142263">
        <ele>569.929008</ele>
        <time>2021-11-18T00:38:40.516Z</time>
      </trkpt>
      <trkpt lat="47.491977" lon="8.142556">
        <ele>568.798357</ele>
        <time>2021-11-18T00:38:42.394Z</time>
      </trkpt>
      <trkpt lat="47.491957" lon="8.142795">
        <ele>567.901791</ele>
        <time>2021-11-18T00:38:43.912Z</time>
      </trkpt>
      <trkpt lat="47.491953" lon="8.143034">
        <ele>567.011749</ele>
        <time>2021-11-18T00:38:45.366Z</time>
      </trkpt>
      <trkpt lat="47.491965" lon="8.143321">
        <ele>565.941239</ele>
        <time>2021-11-18T00:38:47.154Z</time>
      </trkpt>
      <trkpt lat="47.492011" lon="8.143597">
        <ele>564.882928</ele>
        <time>2021-11-18T00:38:48.963Z</time>
      </trkpt>
      <trkpt lat="47.492053" lon="8.143800">
        <ele>564.092549</ele>
        <time>2021-11-18T00:38:50.267Z</time>
      </trkpt>
      <trkpt lat="47.492087" lon="8.143971">
        <ele>563.428948</ele>
        <time>2021-11-18T00:38:51.417Z</time>
      </trkpt>
      <trkpt lat="47.492087" lon="8.144186">
        <ele>562.628531</ele>
        <time>2021-11-18T00:38:52.759Z</time>
      </trkpt>
      <trkpt lat="47.492088" lon="8.144557">
        <ele>561.247334</ele>
        <time>2021-11-18T00:38:55.065Z</time>
      </trkpt>
      <trkpt lat="47.492088" lon="8.145158">
        <ele>559.418694</ele>
        <time>2021-11-18T00:38:58.830Z</time>
      </trkpt>
      <trkpt lat="47.492088" lon="8.145254">
        <ele>559.191325</ele>
        <time>2021-11-18T00:38:59.447Z</time>
      </trkpt>
      <trkpt lat="47.492082" lon="8.145838">
        <ele>557.808005</ele>
        <time>2021-11-18T00:39:03.229Z</time>
      </trkpt>
      <trkpt lat="47.492079" lon="8.146009">
        <ele>557.402867</ele>
        <time>2021-11-18T00:39:04.387Z</time>
      </trkpt>
      <trkpt lat="47.492088" lon="8.146482">
        <ele>556.282157</ele>
        <time>2021-11-18T00:39:07.566Z</time>
      </trkpt>
      <trkpt lat="47.492125" lon="8.146571">
        <ele>556.034665</ele>
        <time>2021-11-18T00:39:08.293Z</time>
      </trkpt>
      <trkpt lat="47.492241" lon="8.146624">
        <ele>555.609128</ele>
        <time>2021-11-18T00:39:09.479Z</time>
      </trkpt>
      <trkpt lat="47.492464" lon="8.146635">
        <ele>554.827038</ele>
        <time>2021-11-18T00:39:11.880Z</time>
      </trkpt>
      <trkpt lat="47.494351" lon="8.146113">
        <ele>552.146565</ele>
        <time>2021-11-18T00:39:34.826Z</time>
      </trkpt>
      <trkpt lat="47.494476" lon="8.146116">
        <ele>552.017919</ele>
        <time>2021-11-18T00:39:36.790Z</time>
      </trkpt>
      <trkpt lat="47.494550" lon="8.146113">
        <ele>551.981135</ele>
        <time>2021-11-18T00:39:37.980Z</time>
      </trkpt>
      <trkpt lat="47.495167" lon="8.146162">
        <ele>552.034092</ele>
        <time>2021-11-18T00:39:47.605Z</time>
      </trkpt>
      <trkpt lat="47.495291" lon="8.146216">
        <ele>552.045171</ele>
        <time>2021-11-18T00:39:49.891Z</time>
      </trkpt>
      <trkpt lat="47.495330" lon="8.146238">
        <ele>552.048748</ele>
        <time>2021-11-18T00:39:50.536Z</time>
      </trkpt>
      <trkpt lat="47.495531" lon="8.146431">
        <ele>552.069282</ele>
        <time>2021-11-18T00:39:54.863Z</time>
      </trkpt>
      <trkpt lat="47.495811" lon="8.147525">
        <ele>552.068720</ele>
        <time>2021-11-18T00:40:07.306Z</time>
      </trkpt>
      <trkpt lat="47.496048" lon="8.148514">
        <ele>551.258192</ele>
        <time>2021-11-18T00:40:16.000Z</time>
      </trkpt>
      <trkpt lat="47.496081" lon="8.148674">
        <ele>551.128979</ele>
        <time>2021-11-18T00:40:17.298Z</time>
      </trkpt>
      <trkpt lat="47.496114" lon="8.148836">
        <ele>550.998287</ele>
        <time>2021-11-18T00:40:18.655Z</time>
      </trkpt>
      <trkpt lat="47.496100" lon="8.148965">
        <ele>550.897371</ele>
        <time>2021-11-18T00:40:19.637Z</time>
      </trkpt>
      <trkpt lat="47.496064" lon="8.149222">
        <ele>550.694644</ele>
        <time>2021-11-18T00:40:21.627Z</time>
      </trkpt>
      <trkpt lat="47.495916" lon="8.150228">
        <ele>549.933541</ele>
        <time>2021-11-18T00:40:29.523Z</time>
      </trkpt>
      <trkpt lat="47.495907" lon="8.150548">
        <ele>549.733967</ele>
        <time>2021-11-18T00:40:32.102Z</time>
      </trkpt>
      <trkpt lat="47.495926" lon="8.150795">
        <ele>549.579060</ele>
        <time>2021-11-18T00:40:33.975Z</time>
      </trkpt>
      <trkpt lat="47.495980" lon="8.151500">
        <ele>549.136942</ele>
        <time>2021-11-18T00:40:39.798Z</time>
      </trkpt>
      <trkpt lat="47.496013" lon="8.152224">
        <ele>548.684772</ele>
        <time>2021-11-18T00:40:45.957Z</time>
      </trkpt>
      <trkpt lat="47.496031" lon="8.152401">
        <ele>548.573237</ele>
        <time>2021-11-18T00:40:47.655Z</time>
      </trkpt>
      <trkpt lat="47.496043" lon="8.152517">
        <ele>548.500112</ele>
        <time>2021-11-18T00:40:49.064Z</time>
      </trkpt>
      <trkpt lat="47.496252" lon="8.153481">
        <ele>548.856069</ele>
        <time>2021-11-18T00:40:59.266Z</time>
      </trkpt>
      <trkpt lat="47.496295" lon="8.153600">
        <ele>548.923419</ele>
        <time>2021-11-18T00:41:01.281Z</time>
      </trkpt>
      <trkpt lat="47.496354" lon="8.153743">
        <ele>549.007042</ele>
        <time>2021-11-18T00:41:02.805Z</time>
      </trkpt>
      <trkpt lat="47.496607" lon="8.154090">
        <ele>549.261829</ele>
        <time>2021-11-18T00:41:09.584Z</time>
      </trkpt>
      <trkpt lat="47.496673" lon="8.154171">
        <ele>549.325161</ele>
        <time>2021-11-18T00:41:11.283Z</time>
      </trkpt>
      <trkpt lat="47.496872" lon="8.154444">
        <ele>549.525588</ele>
        <time>2021-11-18T00:41:17.118Z</time>
      </trkpt>
      <trkpt lat="47.496927" lon="8.154519">
        <ele>549.580829</ele>
        <time>2021-11-18T00:41:18.491Z</time>
      </trkpt>
      <trkpt lat="47.497011" lon="8.154633">
        <ele>549.665013</ele>
        <time>2021-11-18T00:41:20.801Z</time>
      </trkpt>
      <trkpt lat="47.497059" lon="8.154725">
        <ele>549.723024</ele>
        <time>2021-11-18T00:41:22.516Z</time>
      </trkpt>
      <trkpt lat="47.497141" lon="8.154652">
        <ele>549.822866</ele>
        <time>2021-11-18T00:41:24.068Z</time>
      </trkpt>
      <trkpt lat="47.497236" lon="8.154578">
        <ele>549.950439</ele>
        <time>2021-11-18T00:41:26.106Z</time>
      </trkpt>
      <trkpt lat="47.497383" lon="8.154501">
        <ele>550.135744</ele>
        <time>2021-11-18T00:41:29.417Z</time>
      </trkpt>
      <trkpt lat="47.497675" lon="8.154354">
        <ele>550.502265</ele>
        <time>2021-11-18T00:41:35.284Z</time>
      </trkpt>
      <trkpt lat="47.498019" lon="8.154179">
        <ele>550.934531</ele>
        <time>2021-11-18T00:41:42.606Z</time>
      </trkpt>
      <trkpt lat="47.498184" lon="8.154097">
        <ele>551.141367</ele>
        <time>2021-11-18T00:41:46.151Z</time>
      </trkpt>
      <trkpt lat="47.498718" lon="8.153824">
        <ele>551.812734</ele>
        <time>2021-11-18T00:41:58.024Z</time>
      </trkpt>
      <trkpt lat="47.498875" lon="8.153727">
        <ele>551.831208</ele>
        <time>2021-11-18T00:42:01.508Z</time>
      </trkpt>
      <trkpt lat="47.498972" lon="8.153640">
        <ele>551.777951</ele>
        <time>2021-11-18T00:42:03.116Z</time>
      </trkpt>
      <trkpt lat="47.499056" lon="8.153548">
        <ele>551.728884</ele>
        <time>2021-11-18T00:42:04.598Z</time>
      </trkpt>
      <trkpt lat="47.499144" lon="8.153431">
        <ele>551.673340</ele>
        <time>2021-11-18T00:42:06.646Z</time>
      </trkpt>
      <trkpt lat="47.499935" lon="8.152295">
        <ele>551.155818</ele>
        <time>2021-11-18T00:42:20.435Z</time>
      </trkpt>
      <trkpt lat="47.499996" lon="8.152198">
        <ele>551.113778</ele>
        <time>2021-11-18T00:42:21.690Z</time>
      </trkpt>
      <trkpt lat="47.499996" lon="8.152198">
        <ele>551.113778</ele>
        <time>2021-11-18T00:42:21.693Z</time>
      </trkpt>
      <trkpt lat="47.500077" lon="8.152013">
        <ele>551.043843</ele>
        <time>2021-11-18T00:42:23.289Z</time>
      </trkpt>
      <trkpt lat="47.500164" lon="8.151666">
        <ele>550.521823</ele>
        <time>2021-11-18T00:42:26.444Z</time>
      </trkpt>
      <trkpt lat="47.500178" lon="8.151478">
        <ele>550.245515</ele>
        <time>2021-11-18T00:42:27.776Z</time>
      </trkpt>
      <trkpt lat="47.500178" lon="8.151241">
        <ele>549.899287</ele>
        <time>2021-11-18T00:42:30.117Z</time>
      </trkpt>
      <trkpt lat="47.499998" lon="8.150131">
        <ele>548.231654</ele>
        <time>2021-11-18T00:42:38.399Z</time>
      </trkpt>
      <trkpt lat="47.499665" lon="8.149270">
        <ele>546.108762</ele>
        <time>2021-11-18T00:42:45.290Z</time>
      </trkpt>
      <trkpt lat="47.499647" lon="8.149156">
        <ele>545.623860</ele>
        <time>2021-11-18T00:42:46.131Z</time>
      </trkpt>
      <trkpt lat="47.499690" lon="8.148997">
        <ele>544.914493</ele>
        <time>2021-11-18T00:42:47.339Z</time>
      </trkpt>
      <trkpt lat="47.499723" lon="8.148964">
        <ele>544.670334</ele>
        <time>2021-11-18T00:42:47.717Z</time>
      </trkpt>
      <trkpt lat="47.499763" lon="8.148953">
        <ele>544.420908</ele>
        <time>2021-11-18T00:42:48.080Z</time>
      </trkpt>
      <trkpt lat="47.499881" lon="8.148992">
        <ele>543.679663</ele>
        <time>2021-11-18T00:42:49.300Z</time>
      </trkpt>
      <trkpt lat="47.499922" lon="8.149062">
        <ele>543.295941</ele>
        <time>2021-11-18T00:42:49.937Z</time>
      </trkpt>
      <trkpt lat="47.499932" lon="8.149080">
        <ele>543.199417</ele>
        <time>2021-11-18T00:42:50.096Z</time>
      </trkpt>
      <trkpt lat="47.500161" lon="8.149644">
        <ele>540.473975</ele>
        <time>2021-11-18T00:42:54.341Z</time>
      </trkpt>
      <trkpt lat="47.500301" lon="8.149876">
        <ele>539.185549</ele>
        <time>2021-11-18T00:42:56.271Z</time>
      </trkpt>
      <trkpt lat="47.500606" lon="8.150085">
        <ele>537.125016</ele>
        <time>2021-11-18T00:42:59.220Z</time>
      </trkpt>
      <trkpt lat="47.501965" lon="8.150743">
        <ele>518.721964</ele>
        <time>2021-11-18T00:43:11.246Z</time>
      </trkpt>
      <trkpt lat="47.501971" lon="8.150746">
        <ele>518.634941</ele>
        <time>2021-11-18T00:43:11.327Z</time>
      </trkpt>
      <trkpt lat="47.502331" lon="8.150919">
        <ele>513.433987</ele>
        <time>2021-11-18T00:43:14.465Z</time>
      </trkpt>
      <trkpt lat="47.502428" lon="8.150965">
        <ele>512.034369</ele>
        <time>2021-11-18T00:43:15.324Z</time>
      </trkpt>
      <trkpt lat="47.502497" lon="8.151014">
        <ele>510.939107</ele>
        <time>2021-11-18T00:43:15.948Z</time>
      </trkpt>
      <trkpt lat="47.503469" lon="8.152057">
        <ele>492.744519</ele>
        <time>2021-11-18T00:43:25.857Z</time>
      </trkpt>
      <trkpt lat="47.504929" lon="8.153356">
        <ele>471.990469</ele>
        <time>2021-11-18T00:43:40.248Z</time>
      </trkpt>
      <trkpt lat="47.505263" lon="8.153535">
        <ele>468.189683</ele>
        <time>2021-11-18T00:43:43.316Z</time>
      </trkpt>
      <trkpt lat="47.507133" lon="8.154125">
        <ele>454.725889</ele>
        <time>2021-11-18T00:44:00.507Z</time>
      </trkpt>
      <trkpt lat="47.507191" lon="8.154132">
        <ele>454.356875</ele>
        <time>2021-11-18T00:44:01.032Z</time>
      </trkpt>
      <trkpt lat="47.507439" lon="8.154184">
        <ele>453.079430</ele>
        <time>2021-11-18T00:44:03.991Z</time>
      </trkpt>
      <trkpt lat="47.507673" lon="8.155270">
        <ele>450.282595</ele>
        <time>2021-11-18T00:44:11.906Z</time>
      </trkpt>
      <trkpt lat="47.507747" lon="8.155524">
        <ele>449.603901</ele>
        <time>2021-11-18T00:44:13.719Z</time>
      </trkpt>
      <trkpt lat="47.507950" lon="8.155925">
        <ele>448.374398</ele>
        <time>2021-11-18T00:44:17.216Z</time>
      </trkpt>
      <trkpt lat="47.508059" lon="8.156091">
        <ele>447.806392</ele>
        <time>2021-11-18T00:44:19.519Z</time>
      </trkpt>
      <trkpt lat="47.508104" lon="8.156157">
        <ele>447.576308</ele>
        <time>2021-11-18T00:44:20.101Z</time>
      </trkpt>
      <trkpt lat="47.510251" lon="8.159017">
        <ele>432.245782</ele>
        <time>2021-11-18T00:44:47.007Z</time>
      </trkpt>
      <trkpt lat="47.510385" lon="8.159137">
        <ele>431.322641</ele>
        <time>2021-11-18T00:44:48.384Z</time>
      </trkpt>
      <trkpt lat="47.510448" lon="8.159184">
        <ele>430.906796</ele>
        <time>2021-11-18T00:44:49.029Z</time>
      </trkpt>
      <trkpt lat="47.510658" lon="8.159325">
        <ele>429.547573</ele>
        <time>2021-11-18T00:44:51.144Z</time>
      </trkpt>
      <trkpt lat="47.510739" lon="8.159360">
        <ele>429.050188</ele>
        <time>2021-11-18T00:44:51.891Z</time>
      </trkpt>
      <trkpt lat="47.510849" lon="8.159407">
        <ele>428.375318</ele>
        <time>2021-11-18T00:44:52.971Z</time>
      </trkpt>
      <trkpt lat="47.510855" lon="8.159491">
        <ele>428.039005</ele>
        <time>2021-11-18T00:44:53.525Z</time>
      </trkpt>
      <trkpt lat="47.510871" lon="8.159655">
        <ele>427.379260</ele>
        <time>2021-11-18T00:44:54.517Z</time>
      </trkpt>
      <trkpt lat="47.510879" lon="8.159731">
        <ele>427.073012</ele>
        <time>2021-11-18T00:44:54.971Z</time>
      </trkpt>
      <trkpt lat="47.510904" lon="8.159990">
        <ele>426.393297</ele>
        <time>2021-11-18T00:44:56.661Z</time>
      </trkpt>
      <trkpt lat="47.510983" lon="8.160739">
        <ele>424.425971</ele>
        <time>2021-11-18T00:45:01.380Z</time>
      </trkpt>
      <trkpt lat="47.511040" lon="8.161148">
        <ele>423.342196</ele>
        <time>2021-11-18T00:45:04.191Z</time>
      </trkpt>
      <trkpt lat="47.511166" lon="8.161767">
        <ele>421.664440</ele>
        <time>2021-11-18T00:45:08.746Z</time>
      </trkpt>
      <trkpt lat="47.511269" lon="8.162248">
        <ele>420.354948</ele>
        <time>2021-11-18T00:45:12.449Z</time>
      </trkpt>
      <trkpt lat="47.511535" lon="8.163478">
        <ele>419.033650</ele>
        <time>2021-11-18T00:45:22.388Z</time>
      </trkpt>
      <trkpt lat="47.511754" lon="8.164061">
        <ele>418.415833</ele>
        <time>2021-11-18T00:45:27.830Z</time>
      </trkpt>
      <trkpt lat="47.511779" lon="8.164135">
        <ele>418.339205</ele>
        <time>2021-11-18T00:45:28.521Z</time>
      </trkpt>
      <trkpt lat="47.511850" lon="8.164332">
        <ele>418.132410</ele>
        <time>2021-11-18T00:45:30.447Z</time>
      </trkpt>
      <trkpt lat="47.511896" lon="8.164592">
        <ele>417.883494</ele>
        <time>2021-11-18T00:45:32.716Z</time>
      </trkpt>
      <trkpt lat="47.511908" lon="8.164821">
        <ele>417.663612</ele>
        <time>2021-11-18T00:45:34.704Z</time>
      </trkpt>
      <trkpt lat="47.511907" lon="8.164945">
        <ele>417.513475</ele>
        <time>2021-11-18T00:45:35.721Z</time>
      </trkpt>
      <trkpt lat="47.511825" lon="8.165978">
        <ele>416.254217</ele>
        <time>2021-11-18T00:45:44.023Z</time>
      </trkpt>
      <trkpt lat="47.511780" lon="8.167856">
        <ele>413.761859</ele>
        <time>2021-11-18T00:45:57.683Z</time>
      </trkpt>
      <trkpt lat="47.511782" lon="8.167996">
        <ele>413.517312</ele>
        <time>2021-11-18T00:45:58.641Z</time>
      </trkpt>
      <trkpt lat="47.511784" lon="8.168276">
        <ele>413.028300</ele>
        <time>2021-11-18T00:46:00.621Z</time>
      </trkpt>
      <trkpt lat="47.511859" lon="8.169270">
        <ele>411.281610</ele>
        <time>2021-11-18T00:46:07.661Z</time>
      </trkpt>
      <trkpt lat="47.512053" lon="8.170245">
        <ele>409.568732</ele>
        <time>2021-11-18T00:46:14.773Z</time>
      </trkpt>
      <trkpt lat="47.512633" lon="8.171844">
        <ele>407.028603</ele>
        <time>2021-11-18T00:46:28.314Z</time>
      </trkpt>
      <trkpt lat="47.512704" lon="8.172147">
        <ele>406.579754</ele>
        <time>2021-11-18T00:46:30.701Z</time>
      </trkpt>
      <trkpt lat="47.512778" lon="8.172463">
        <ele>406.111680</ele>
        <time>2021-11-18T00:46:33.161Z</time>
      </trkpt>
      <trkpt lat="47.512839" lon="8.173310">
        <ele>405.079083</ele>
        <time>2021-11-18T00:46:39.522Z</time>
      </trkpt>
      <trkpt lat="47.512873" lon="8.173686">
        <ele>404.620358</ele>
        <time>2021-11-18T00:46:42.406Z</time>
      </trkpt>
      <trkpt lat="47.512929" lon="8.174162">
        <ele>404.036101</ele>
        <time>2021-11-18T00:46:46.106Z</time>
      </trkpt>
      <trkpt lat="47.513012" lon="8.174675">
        <ele>403.398221</ele>
        <time>2021-11-18T00:46:50.188Z</time>
      </trkpt>
      <trkpt lat="47.513406" lon="8.176782">
        <ele>400.770888</ele>
        <time>2021-11-18T00:47:06.664Z</time>
      </trkpt>
      <trkpt lat="47.513423" lon="8.176881">
        <ele>400.648320</ele>
        <time>2021-11-18T00:47:07.496Z</time>
      </trkpt>
      <trkpt lat="47.513481" lon="8.177211">
        <ele>400.239170</ele>
        <time>2021-11-18T00:47:10.008Z</time>
      </trkpt>
      <trkpt lat="47.513703" lon="8.179067">
        <ele>397.934552</ele>
        <time>2021-11-18T00:47:24.367Z</time>
      </trkpt>
      <trkpt lat="47.513764" lon="8.179393">
        <ele>397.518394</ele>
        <time>2021-11-18T00:47:26.858Z</time>
      </trkpt>
      <trkpt lat="47.514066" lon="8.180781">
        <ele>395.809996</ele>
        <time>2021-11-18T00:47:37.804Z</time>
      </trkpt>
      <trkpt lat="47.514227" lon="8.181450">
        <ele>395.046762</ele>
        <time>2021-11-18T00:47:43.057Z</time>
      </trkpt>
      <trkpt lat="47.514346" lon="8.181911">
        <ele>394.516386</ele>
        <time>2021-11-18T00:47:46.921Z</time>
      </trkpt>
      <trkpt lat="47.514504" lon="8.182501">
        <ele>393.834309</ele>
        <time>2021-11-18T00:47:51.948Z</time>
      </trkpt>
      <trkpt lat="47.514653" lon="8.183059">
        <ele>393.400497</ele>
        <time>2021-11-18T00:47:56.776Z</time>
      </trkpt>
      <trkpt lat="47.514772" lon="8.183501">
        <ele>393.197643</ele>
        <time>2021-11-18T00:48:00.744Z</time>
      </trkpt>
      <trkpt lat="47.514887" lon="8.183927">
        <ele>393.002060</ele>
        <time>2021-11-18T00:48:04.675Z</time>
      </trkpt>
      <trkpt lat="47.515160" lon="8.184965">
        <ele>392.527173</ele>
        <time>2021-11-18T00:48:15.102Z</time>
      </trkpt>
      <trkpt lat="47.515274" lon="8.185396">
        <ele>392.342061</ele>
        <time>2021-11-18T00:48:19.481Z</time>
      </trkpt>
      <trkpt lat="47.515421" lon="8.186066">
        <ele>392.091272</ele>
        <time>2021-11-18T00:48:25.780Z</time>
      </trkpt>
      <trkpt lat="47.515470" lon="8.186639">
        <ele>391.885656</ele>
        <time>2021-11-18T00:48:30.855Z</time>
      </trkpt>
      <trkpt lat="47.515473" lon="8.186840">
        <ele>391.814082</ele>
        <time>2021-11-18T00:48:32.589Z</time>
      </trkpt>
      <trkpt lat="47.515484" lon="8.187073">
        <ele>391.730932</ele>
        <time>2021-11-18T00:48:34.618Z</time>
      </trkpt>
      <trkpt lat="47.515515" lon="8.187295">
        <ele>391.650229</ele>
        <time>2021-11-18T00:48:36.586Z</time>
      </trkpt>
      <trkpt lat="47.515608" lon="8.187740">
        <ele>391.484399</ele>
        <time>2021-11-18T00:48:40.608Z</time>
      </trkpt>
      <trkpt lat="47.515642" lon="8.187925">
        <ele>391.527500</ele>
        <time>2021-11-18T00:48:42.230Z</time>
      </trkpt>
      <trkpt lat="47.515675" lon="8.188145">
        <ele>391.672219</ele>
        <time>2021-11-18T00:48:44.328Z</time>
      </trkpt>
      <trkpt lat="47.515696" lon="8.188550">
        <ele>391.933061</ele>
        <time>2021-11-18T00:48:48.284Z</time>
      </trkpt>
      <trkpt lat="47.515698" lon="8.188594">
        <ele>391.961381</ele>
        <time>2021-11-18T00:48:48.719Z</time>
      </trkpt>
      <trkpt lat="47.515708" lon="8.188909">
        <ele>392.163886</ele>
        <time>2021-11-18T00:48:52.070Z</time>
      </trkpt>
      <trkpt lat="47.515719" lon="8.189151">
        <ele>392.319642</ele>
        <time>2021-11-18T00:48:55.019Z</time>
      </trkpt>
      <trkpt lat="47.515726" lon="8.189285">
        <ele>392.405949</ele>
        <time>2021-11-18T00:48:56.712Z</time>
      </trkpt>
      <trkpt lat="47.515905" lon="8.189255">
        <ele>392.577231</ele>
        <time>2021-11-18T00:49:00.061Z</time>
      </trkpt>
      <trkpt lat="47.515946" lon="8.189248">
        <ele>392.616472</ele>
        <time>2021-11-18T00:49:01.023Z</time>
      </trkpt>
      <trkpt lat="47.516213" lon="8.189152">
        <ele>392.877716</ele>
        <time>2021-11-18T00:49:07.050Z</time>
      </trkpt>
      <trkpt lat="47.516390" lon="8.189083">
        <ele>393.051745</ele>
        <time>2021-11-18T00:49:11.483Z</time>
      </trkpt>
      <trkpt lat="47.516551" lon="8.189020">
        <ele>393.318593</ele>
        <time>2021-11-18T00:49:15.606Z</time>
      </trkpt>
      <trkpt lat="47.516623" lon="8.188992">
        <ele>393.563719</ele>
        <time>2021-11-18T00:49:17.579Z</time>
      </trkpt>
      <trkpt lat="47.516826" lon="8.188896">
        <ele>394.265434</ele>
        <time>2021-11-18T00:49:23.272Z</time>
      </trkpt>
      <trkpt lat="47.516944" lon="8.188840">
        <ele>394.673460</ele>
        <time>2021-11-18T00:49:26.542Z</time>
      </trkpt>
      <trkpt lat="47.517117" lon="8.188760">
        <ele>395.270258</ele>
        <time>2021-11-18T00:49:31.667Z</time>
      </trkpt>
      <trkpt lat="47.517285" lon="8.188659">
        <ele>395.867317</ele>
        <time>2021-11-18T00:49:36.740Z</time>
      </trkpt>
      <trkpt lat="47.517536" lon="8.188495">
        <ele>396.770715</ele>
        <time>2021-11-18T00:49:44.838Z</time>
      </trkpt>
      <trkpt lat="47.517762" lon="8.188338">
        <ele>397.592733</ele>
        <time>2021-11-18T00:49:52.397Z</time>
      </trkpt>
      <trkpt lat="47.518144" lon="8.188042">
        <ele>399.012430</ele>
        <time>2021-11-18T00:50:05.533Z</time>
      </trkpt>
      <trkpt lat="47.518797" lon="8.187487">
        <ele>401.543209</ele>
        <time>2021-11-18T00:50:26.850Z</time>
      </trkpt>
      <trkpt lat="47.518919" lon="8.187383">
        <ele>402.016689</ele>
        <time>2021-11-18T00:50:30.646Z</time>
      </trkpt>
      <trkpt lat="47.519082" lon="8.187247">
        <ele>402.645971</ele>
        <time>2021-11-18T00:50:35.324Z</time>
      </trkpt>
      <trkpt lat="47.519270" lon="8.187089">
        <ele>403.373045</ele>
        <time>2021-11-18T00:50:41.499Z</time>
      </trkpt>
      <trkpt lat="47.519650" lon="8.186763">
        <ele>404.850162</ele>
        <time>2021-11-18T00:50:54.044Z</time>
      </trkpt>
      <trkpt lat="47.519919" lon="8.186523">
        <ele>406.038319</ele>
        <time>2021-11-18T00:51:03.176Z</time>
      </trkpt>
      <trkpt lat="47.520283" lon="8.186229">
        <ele>407.672262</ele>
        <time>2021-11-18T00:51:15.009Z</time>
      </trkpt>
      <trkpt lat="47.520432" lon="8.186093">
        <ele>408.362019</ele>
        <time>2021-11-18T00:51:20.127Z</time>
      </trkpt>
      <trkpt lat="47.520524" lon="8.186006">
        <ele>408.792191</ele>
        <time>2021-11-18T00:51:23.302Z</time>
      </trkpt>
      <trkpt lat="47.520676" lon="8.185836">
        <ele>409.542839</ele>
        <time>2021-11-18T00:51:28.921Z</time>
      </trkpt>
      <trkpt lat="47.521014" lon="8.185264">
        <ele>411.565552</ele>
        <time>2021-11-18T00:51:45.162Z</time>
      </trkpt>
      <trkpt lat="47.521136" lon="8.184787">
        <ele>413.180094</ele>
        <time>2021-11-18T00:51:57.021Z</time>
      </trkpt>
      <trkpt lat="47.521251" lon="8.183982">
        <ele>416.177969</ele>
        <time>2021-11-18T00:52:16.969Z</time>
      </trkpt>
      <trkpt lat="47.521367" lon="8.183213">
        <ele>419.048814</ele>
        <time>2021-11-18T00:52:36.872Z</time>
      </trkpt>
      <trkpt lat="47.521447" lon="8.182661">
        <ele>421.105776</ele>
        <time>2021-11-18T00:52:51.089Z</time>
      </trkpt>
      <trkpt lat="47.521560" lon="8.182094">
        <ele>423.234299</ele>
        <time>2021-11-18T00:53:05.850Z</time>
      </trkpt>
      <trkpt lat="47.521670" lon="8.181716">
        <ele>424.705310</ele>
        <time>2021-11-18T00:53:17.439Z</time>
      </trkpt>
      <trkpt lat="47.521736" lon="8.181541">
        <ele>425.421660</ele>
        <time>2021-11-18T00:53:22.682Z</time>
      </trkpt>
      <trkpt lat="47.521964" lon="8.181072">
        <ele>427.486932</ele>
        <time>2021-11-18T00:53:37.259Z</time>
      </trkpt>
      <trkpt lat="47.522489" lon="8.180212">
        <ele>431.605586</ele>
        <time>2021-11-18T00:54:03.194Z</time>
      </trkpt>
      <trkpt lat="47.522561" lon="8.180084">
        <ele>432.120395</ele>
        <time>2021-11-18T00:54:07.745Z</time>
      </trkpt>
      <trkpt lat="47.522604" lon="8.180007">
        <ele>432.429171</ele>
        <time>2021-11-18T00:54:09.806Z</time>
      </trkpt>
      <trkpt lat="47.522744" lon="8.179763">
        <ele>433.418626</ele>
        <time>2021-11-18T00:54:16.005Z</time>
      </trkpt>
      <trkpt lat="47.522960" lon="8.179132">
        <ele>435.604820</ele>
        <time>2021-11-18T00:54:30.774Z</time>
      </trkpt>
      <trkpt lat="47.523042" lon="8.178308">
        <ele>438.178712</ele>
        <time>2021-11-18T00:54:48.856Z</time>
      </trkpt>
      <trkpt lat="47.523061" lon="8.177323">
        <ele>442.112781</ele>
        <time>2021-11-18T00:55:13.085Z</time>
      </trkpt>
      <trkpt lat="47.523093" lon="8.176377">
        <ele>446.725019</ele>
        <time>2021-11-18T00:55:39.303Z</time>
      </trkpt>
      <trkpt lat="47.523138" lon="8.175042">
        <ele>453.409465</ele>
        <time>2021-11-18T00:56:23.302Z</time>
      </trkpt>
      <trkpt lat="47.523512" lon="8.172934">
        <ele>467.214245</ele>
        <time>2021-11-18T00:57:41.771Z</time>
      </trkpt>
      <trkpt lat="47.523811" lon="8.171359">
        <ele>476.690913</ele>
        <time>2021-11-18T00:58:39.052Z</time>
      </trkpt>
      <trkpt lat="47.523894" lon="8.170892">
        <ele>479.413264</ele>
        <time>2021-11-18T00:58:54.952Z</time>
      </trkpt>
      <trkpt lat="47.524251" lon="8.168070">
        <ele>493.738830</ele>
        <time>2021-11-18T01:00:17.705Z</time>
      </trkpt>
      <trkpt lat="47.524502" lon="8.166796">
        <ele>500.209898</ele>
        <time>2021-11-18T01:00:55.520Z</time>
      </trkpt>
      <trkpt lat="47.524572" lon="8.166545">
        <ele>501.590730</ele>
        <time>2021-11-18T01:01:03.621Z</time>
      </trkpt>
      <trkpt lat="47.524622" lon="8.166379">
        <ele>502.514959</ele>
        <time>2021-11-18T01:01:08.760Z</time>
      </trkpt>
      <trkpt lat="47.524789" lon="8.165884">
        <ele>505.328551</ele>
        <time>2021-11-18T01:01:25.160Z</time>
      </trkpt>
      <trkpt lat="47.525278" lon="8.164811">
        <ele>512.038732</ele>
        <time>2021-11-18T01:02:06.687Z</time>
      </trkpt>
      <trkpt lat="47.525520" lon="8.164388">
        <ele>515.126897</ele>
        <time>2021-11-18T01:02:25.902Z</time>
      </trkpt>
      <trkpt lat="47.526029" lon="8.163712">
        <ele>520.766757</ele>
        <time>2021-11-18T01:02:58.455Z</time>
      </trkpt>
      <trkpt lat="47.526202" lon="8.163510">
        <ele>522.584051</ele>
        <time>2021-11-18T01:03:09.510Z</time>
      </trkpt>
      <trkpt lat="47.526614" lon="8.163062">
        <ele>526.653378</ele>
        <time>2021-11-18T01:03:32.844Z</time>
      </trkpt>
      <trkpt lat="47.526845" lon="8.162813">
        <ele>528.761544</ele>
        <time>2021-11-18T01:03:45.534Z</time>
      </trkpt>
      <trkpt lat="47.527073" lon="8.162555">
        <ele>530.878772</ele>
        <time>2021-11-18T01:03:59.550Z</time>
      </trkpt>
      <trkpt lat="47.527259" lon="8.162351">
        <ele>532.586590</ele>
        <time>2021-11-18T01:04:10.570Z</time>
      </trkpt>
      <trkpt lat="47.527699" lon="8.161810">
        <ele>536.806297</ele>
        <time>2021-11-18T01:04:34.209Z</time>
      </trkpt>
      <trkpt lat="47.527813" lon="8.161522">
        <ele>538.469584</ele>
        <time>2021-11-18T01:04:43.516Z</time>
      </trkpt>
      <trkpt lat="47.527850" lon="8.161247">
        <ele>539.688242</ele>
        <time>2021-11-18T01:04:51.583Z</time>
      </trkpt>
      <trkpt lat="47.527845" lon="8.161149">
        <ele>540.104365</ele>
        <time>2021-11-18T01:04:55.249Z</time>
      </trkpt>
      <trkpt lat="47.527842" lon="8.161073">
        <ele>540.426706</ele>
        <time>2021-11-18T01:04:56.841Z</time>
      </trkpt>
      <trkpt lat="47.527767" lon="8.160384">
        <ele>543.381662</ele>
        <time>2021-11-18T01:05:14.960Z</time>
      </trkpt>
      <trkpt lat="47.527761" lon="8.160295">
        <ele>543.760370</ele>
        <time>2021-11-18T01:05:16.795Z</time>
      </trkpt>
      <trkpt lat="47.527764" lon="8.160196">
        <ele>544.179968</ele>
        <time>2021-11-18T01:05:20.626Z</time>
      </trkpt>
      <trkpt lat="47.527794" lon="8.159980">
        <ele>545.113679</ele>
        <time>2021-11-18T01:05:26.548Z</time>
      </trkpt>
      <trkpt lat="47.527823" lon="8.159869">
        <ele>545.617617</ele>
        <time>2021-11-18T01:05:31.745Z</time>
      </trkpt>
      <trkpt lat="47.527866" lon="8.159756">
        <ele>546.166816</ele>
        <time>2021-11-18T01:05:34.574Z</time>
      </trkpt>
      <trkpt lat="47.528044" lon="8.159481">
        <ele>547.779758</ele>
        <time>2021-11-18T01:05:46.764Z</time>
      </trkpt>
      <trkpt lat="47.528235" lon="8.159313">
        <ele>549.172747</ele>
        <time>2021-11-18T01:05:55.716Z</time>
      </trkpt>
      <trkpt lat="47.528358" lon="8.159233">
        <ele>549.946939</ele>
        <time>2021-11-18T01:05:59.843Z</time>
      </trkpt>
      <trkpt lat="47.528551" lon="8.159101">
        <ele>549.712223</ele>
        <time>2021-11-18T01:06:06.840Z</time>
      </trkpt>
      <trkpt lat="47.528696" lon="8.159009">
        <ele>549.538055</ele>
        <time>2021-11-18T01:06:11.159Z</time>
      </trkpt>
      <trkpt lat="47.528773" lon="8.158954">
        <ele>549.443668</ele>
        <time>2021-11-18T01:06:12.288Z</time>
      </trkpt>
      <trkpt lat="47.528873" lon="8.158872">
        <ele>549.317464</ele>
        <time>2021-11-18T01:06:15.686Z</time>
      </trkpt>
      <trkpt lat="47.528962" lon="8.158795">
        <ele>549.203661</ele>
        <time>2021-11-18T01:06:16.702Z</time>
      </trkpt>
      <trkpt lat="47.529013" lon="8.158747">
        <ele>549.136943</ele>
        <time>2021-11-18T01:06:20.121Z</time>
      </trkpt>
      <trkpt lat="47.529039" lon="8.158720">
        <ele>549.101883</ele>
        <time>2021-11-18T01:06:20.441Z</time>
      </trkpt>
      <trkpt lat="47.529091" lon="8.158660">
        <ele>549.029102</ele>
        <time>2021-11-18T01:06:21.095Z</time>
      </trkpt>
      <trkpt lat="47.529235" lon="8.158441">
        <ele>548.801213</ele>
        <time>2021-11-18T01:06:23.198Z</time>
      </trkpt>
      <trkpt lat="47.529315" lon="8.158315">
        <ele>548.672273</ele>
        <time>2021-11-18T01:06:24.869Z</time>
      </trkpt>
      <trkpt lat="47.529437" lon="8.158073">
        <ele>548.447124</ele>
        <time>2021-11-18T01:06:26.871Z</time>
      </trkpt>
      <trkpt lat="47.529679" lon="8.157567">
        <ele>547.984860</ele>
        <time>2021-11-18T01:06:30.807Z</time>
      </trkpt>
      <trkpt lat="47.529810" lon="8.157300">
        <ele>545.996711</ele>
        <time>2021-11-18T01:06:32.898Z</time>
      </trkpt>
      <trkpt lat="47.529856" lon="8.157192">
        <ele>545.188105</ele>
        <time>2021-11-18T01:06:33.616Z</time>
      </trkpt>
      <trkpt lat="47.530071" lon="8.156701">
        <ele>541.482282</ele>
        <time>2021-11-18T01:06:37.032Z</time>
      </trkpt>
      <trkpt lat="47.530199" lon="8.156282">
        <ele>538.570065</ele>
        <time>2021-11-18T01:06:39.685Z</time>
      </trkpt>
      <trkpt lat="47.530239" lon="8.155804">
        <ele>535.520016</ele>
        <time>2021-11-18T01:06:42.489Z</time>
      </trkpt>
      <trkpt lat="47.530234" lon="8.155720">
        <ele>534.986030</ele>
        <time>2021-11-18T01:06:42.960Z</time>
      </trkpt>
      <trkpt lat="47.530211" lon="8.155580">
        <ele>534.073628</ele>
        <time>2021-11-18T01:06:43.779Z</time>
      </trkpt>
      <trkpt lat="47.530058" lon="8.154979">
        <ele>530.196778</ele>
        <time>2021-11-18T01:06:47.508Z</time>
      </trkpt>
      <trkpt lat="47.529728" lon="8.154087">
        <ele>524.874893</ele>
        <time>2021-11-18T01:06:53.507Z</time>
      </trkpt>
      <trkpt lat="47.529587" lon="8.153510">
        <ele>521.664196</ele>
        <time>2021-11-18T01:06:57.216Z</time>
      </trkpt>
      <trkpt lat="47.529529" lon="8.153239">
        <ele>520.176702</ele>
        <time>2021-11-18T01:06:58.980Z</time>
      </trkpt>
      <trkpt lat="47.529405" lon="8.152475">
        <ele>516.462478</ele>
        <time>2021-11-18T01:07:03.869Z</time>
      </trkpt>
      <trkpt lat="47.529292" lon="8.151912">
        <ele>514.499667</ele>
        <time>2021-11-18T01:07:07.524Z</time>
      </trkpt>
      <trkpt lat="47.529120" lon="8.151400">
        <ele>512.588578</ele>
        <time>2021-11-18T01:07:11.078Z</time>
      </trkpt>
      <trkpt lat="47.529014" lon="8.151078">
        <ele>511.391429</ele>
        <time>2021-11-18T01:07:13.355Z</time>
      </trkpt>
      <trkpt lat="47.528964" lon="8.150888">
        <ele>510.709958</ele>
        <time>2021-11-18T01:07:14.662Z</time>
      </trkpt>
      <trkpt lat="47.528852" lon="8.149954">
        <ele>507.949771</ele>
        <time>2021-11-18T01:07:21.052Z</time>
      </trkpt>
      <trkpt lat="47.528834" lon="8.149583">
        <ele>507.411854</ele>
        <time>2021-11-18T01:07:23.633Z</time>
      </trkpt>
      <trkpt lat="47.528815" lon="8.149196">
        <ele>506.850705</ele>
        <time>2021-11-18T01:07:26.384Z</time>
      </trkpt>
      <trkpt lat="47.528722" lon="8.148418">
        <ele>505.708079</ele>
        <time>2021-11-18T01:07:32.242Z</time>
      </trkpt>
      <trkpt lat="47.528534" lon="8.147807">
        <ele>504.737039</ele>
        <time>2021-11-18T01:07:37.663Z</time>
      </trkpt>
      <trkpt lat="47.528477" lon="8.147642">
        <ele>504.469001</ele>
        <time>2021-11-18T01:07:39.263Z</time>
      </trkpt>
      <trkpt lat="47.528291" lon="8.147059">
        <ele>502.441993</ele>
        <time>2021-11-18T01:07:44.503Z</time>
      </trkpt>
      <trkpt lat="47.528185" lon="8.146699">
        <ele>501.162490</ele>
        <time>2021-11-18T01:07:47.739Z</time>
      </trkpt>
      <trkpt lat="47.528149" lon="8.146523">
        <ele>500.563369</ele>
        <time>2021-11-18T01:07:49.019Z</time>
      </trkpt>
      <trkpt lat="47.528029" lon="8.145634">
        <ele>497.609788</ele>
        <time>2021-11-18T01:07:54.784Z</time>
      </trkpt>
      <trkpt lat="47.528031" lon="8.145045">
        <ele>495.616447</ele>
        <time>2021-11-18T01:07:58.211Z</time>
      </trkpt>
      <trkpt lat="47.528102" lon="8.144463">
        <ele>490.199033</ele>
        <time>2021-11-18T01:08:01.620Z</time>
      </trkpt>
      <trkpt lat="47.528165" lon="8.144175">
        <ele>487.425980</ele>
        <time>2021-11-18T01:08:03.354Z</time>
      </trkpt>
      <trkpt lat="47.528319" lon="8.143633">
        <ele>482.039647</ele>
        <time>2021-11-18T01:08:06.689Z</time>
      </trkpt>
      <trkpt lat="47.528529" lon="8.143139">
        <ele>476.692566</ele>
        <time>2021-11-18T01:08:09.955Z</time>
      </trkpt>
      <trkpt lat="47.529056" lon="8.142203">
        <ele>465.437540</ele>
        <time>2021-11-18T01:08:16.731Z</time>
      </trkpt>
      <trkpt lat="47.529206" lon="8.141942">
        <ele>462.248414</ele>
        <time>2021-11-18T01:08:18.640Z</time>
      </trkpt>
      <trkpt lat="47.529330" lon="8.141745">
        <ele>459.742445</ele>
        <time>2021-11-18T01:08:20.142Z</time>
      </trkpt>
      <trkpt lat="47.529595" lon="8.141302">
        <ele>454.235510</ele>
        <time>2021-11-18T01:08:23.494Z</time>
      </trkpt>
      <trkpt lat="47.529775" lon="8.140977">
        <ele>450.324327</ele>
        <time>2021-11-18T01:08:25.897Z</time>
      </trkpt>
      <trkpt lat="47.530071" lon="8.140473">
        <ele>445.241090</ele>
        <time>2021-11-18T01:08:29.888Z</time>
      </trkpt>
      <trkpt lat="47.530742" lon="8.139379">
        <ele>437.877396</ele>
        <time>2021-11-18T01:08:38.550Z</time>
      </trkpt>
      <trkpt lat="47.531156" lon="8.138865">
        <ele>433.891136</ele>
        <time>2021-11-18T01:08:44.249Z</time>
      </trkpt>
      <trkpt lat="47.531239" lon="8.138781">
        <ele>433.190178</ele>
        <time>2021-11-18T01:08:45.075Z</time>
      </trkpt>
      <trkpt lat="47.531387" lon="8.138650">
        <ele>432.334916</ele>
        <time>2021-11-18T01:08:49.420Z</time>
      </trkpt>
      <trkpt lat="47.531449" lon="8.138596">
        <ele>431.978132</ele>
        <time>2021-11-18T01:08:51.431Z</time>
      </trkpt>
      <trkpt lat="47.531896" lon="8.138317">
        <ele>429.571959</ele>
        <time>2021-11-18T01:08:55.775Z</time>
      </trkpt>
      <trkpt lat="47.532062" lon="8.138249">
        <ele>428.717610</ele>
        <time>2021-11-18T01:08:59.922Z</time>
      </trkpt>
      <trkpt lat="47.532251" lon="8.138188">
        <ele>427.758083</ele>
        <time>2021-11-18T01:09:01.588Z</time>
      </trkpt>
      <trkpt lat="47.532921" lon="8.138051">
        <ele>424.403059</ele>
        <time>2021-11-18T01:09:07.891Z</time>
      </trkpt>
      <trkpt lat="47.533257" lon="8.137990">
        <ele>422.667521</ele>
        <time>2021-11-18T01:09:11.177Z</time>
      </trkpt>
      <trkpt lat="47.533600" lon="8.137926">
        <ele>420.893276</ele>
        <time>2021-11-18T01:09:14.456Z</time>
      </trkpt>
      <trkpt lat="47.533889" lon="8.137879">
        <ele>419.401168</ele>
        <time>2021-11-18T01:09:17.189Z</time>
      </trkpt>
      <trkpt lat="47.534074" lon="8.137846">
        <ele>418.444857</ele>
        <time>2021-11-18T01:09:18.946Z</time>
      </trkpt>
      <trkpt lat="47.534107" lon="8.137840">
        <ele>418.274225</ele>
        <time>2021-11-18T01:09:19.278Z</time>
      </trkpt>
      <trkpt lat="47.534213" lon="8.137821">
        <ele>417.726247</ele>
        <time>2021-11-18T01:09:20.252Z</time>
      </trkpt>
      <trkpt lat="47.534814" lon="8.137722">
        <ele>414.672435</ele>
        <time>2021-11-18T01:09:25.882Z</time>
      </trkpt>
      <trkpt lat="47.535048" lon="8.137685">
        <ele>413.585031</ele>
        <time>2021-11-18T01:09:28.061Z</time>
      </trkpt>
      <trkpt lat="47.535119" lon="8.137674">
        <ele>413.255166</ele>
        <time>2021-11-18T01:09:28.734Z</time>
      </trkpt>
      <trkpt lat="47.535263" lon="8.137663">
        <ele>412.588891</ele>
        <time>2021-11-18T01:09:30.114Z</time>
      </trkpt>
      <trkpt lat="47.535322" lon="8.137658">
        <ele>412.315820</ele>
        <time>2021-11-18T01:09:30.665Z</time>
      </trkpt>
      <trkpt lat="47.535430" lon="8.137649">
        <ele>411.815987</ele>
        <time>2021-11-18T01:09:31.684Z</time>
      </trkpt>
      <trkpt lat="47.535502" lon="8.137652">
        <ele>411.483160</ele>
        <time>2021-11-18T01:09:32.375Z</time>
      </trkpt>
      <trkpt lat="47.535749" lon="8.137651">
        <ele>410.341825</ele>
        <time>2021-11-18T01:09:34.730Z</time>
      </trkpt>
      <trkpt lat="47.536065" lon="8.137655">
        <ele>408.881608</ele>
        <time>2021-11-18T01:09:37.828Z</time>
      </trkpt>
      <trkpt lat="47.536180" lon="8.137660">
        <ele>408.349990</ele>
        <time>2021-11-18T01:09:38.912Z</time>
      </trkpt>
      <trkpt lat="47.536373" lon="8.137663">
        <ele>407.458132</ele>
        <time>2021-11-18T01:09:40.782Z</time>
      </trkpt>
      <trkpt lat="47.537303" lon="8.137605">
        <ele>404.343323</ele>
        <time>2021-11-18T01:09:49.922Z</time>
      </trkpt>
      <trkpt lat="47.537389" lon="8.137585">
        <ele>404.071709</ele>
        <time>2021-11-18T01:09:50.812Z</time>
      </trkpt>
      <trkpt lat="47.537561" lon="8.137544">
        <ele>403.528151</ele>
        <time>2021-11-18T01:09:52.660Z</time>
      </trkpt>
      <trkpt lat="47.537646" lon="8.137515">
        <ele>403.256000</ele>
        <time>2021-11-18T01:09:53.523Z</time>
      </trkpt>
      <trkpt lat="47.537954" lon="8.137399">
        <ele>402.264439</ele>
        <time>2021-11-18T01:09:56.950Z</time>
      </trkpt>
      <trkpt lat="47.538245" lon="8.137269">
        <ele>401.316102</ele>
        <time>2021-11-18T01:10:00.270Z</time>
      </trkpt>
      <trkpt lat="47.538326" lon="8.137234">
        <ele>401.087703</ele>
        <time>2021-11-18T01:10:01.150Z</time>
      </trkpt>
      <trkpt lat="47.539177" lon="8.136833">
        <ele>398.971129</ele>
        <time>2021-11-18T01:10:10.820Z</time>
      </trkpt>
      <trkpt lat="47.539418" lon="8.136710">
        <ele>398.366975</ele>
        <time>2021-11-18T01:10:13.589Z</time>
      </trkpt>
      <trkpt lat="47.539754" lon="8.136528">
        <ele>397.519039</ele>
        <time>2021-11-18T01:10:17.366Z</time>
      </trkpt>
      <trkpt lat="47.540238" lon="8.136236">
        <ele>396.063287</ele>
        <time>2021-11-18T01:10:22.767Z</time>
      </trkpt>
      <trkpt lat="47.540569" lon="8.135993">
        <ele>394.897242</ele>
        <time>2021-11-18T01:10:26.577Z</time>
      </trkpt>
      <trkpt lat="47.540731" lon="8.135878">
        <ele>394.330219</ele>
        <time>2021-11-18T01:10:28.484Z</time>
      </trkpt>
      <trkpt lat="47.540869" lon="8.135758">
        <ele>393.825130</ele>
        <time>2021-11-18T01:10:30.008Z</time>
      </trkpt>
      <trkpt lat="47.541466" lon="8.135315">
        <ele>391.717543</ele>
        <time>2021-11-18T01:10:36.802Z</time>
      </trkpt>
      <trkpt lat="47.541516" lon="8.135303">
        <ele>391.557664</ele>
        <time>2021-11-18T01:10:37.260Z</time>
      </trkpt>
      <trkpt lat="47.541574" lon="8.135288">
        <ele>391.371823</ele>
        <time>2021-11-18T01:10:37.839Z</time>
      </trkpt>
      <trkpt lat="47.541750" lon="8.135267">
        <ele>390.857853</ele>
        <time>2021-11-18T01:10:39.657Z</time>
      </trkpt>
      <trkpt lat="47.541919" lon="8.135253">
        <ele>390.375866</ele>
        <time>2021-11-18T01:10:41.289Z</time>
      </trkpt>
      <trkpt lat="47.542003" lon="8.135244">
        <ele>390.136048</ele>
        <time>2021-11-18T01:10:42.173Z</time>
      </trkpt>
      <trkpt lat="47.542148" lon="8.135197">
        <ele>389.713386</ele>
        <time>2021-11-18T01:10:43.702Z</time>
      </trkpt>
      <trkpt lat="47.542698" lon="8.134836">
        <ele>388.000394</ele>
        <time>2021-11-18T01:10:49.924Z</time>
      </trkpt>
      <trkpt lat="47.542844" lon="8.134643">
        <ele>387.443195</ele>
        <time>2021-11-18T01:10:51.971Z</time>
      </trkpt>
      <trkpt lat="47.542894" lon="8.134525">
        <ele>387.175393</ele>
        <time>2021-11-18T01:10:52.912Z</time>
      </trkpt>
      <trkpt lat="47.542926" lon="8.134419">
        <ele>386.952192</ele>
        <time>2021-11-18T01:10:53.862Z</time>
      </trkpt>
      <trkpt lat="47.543005" lon="8.134187">
        <ele>386.452717</ele>
        <time>2021-11-18T01:10:55.751Z</time>
      </trkpt>
      <trkpt lat="47.543075" lon="8.134036">
        <ele>386.107565</ele>
        <time>2021-11-18T01:10:57.029Z</time>
      </trkpt>
      <trkpt lat="47.543149" lon="8.133918">
        <ele>385.859022</ele>
        <time>2021-11-18T01:10:58.274Z</time>
      </trkpt>
      <trkpt lat="47.543220" lon="8.133852">
        <ele>385.667407</ele>
        <time>2021-11-18T01:10:59.133Z</time>
      </trkpt>
      <trkpt lat="47.543321" lon="8.133795">
        <ele>385.420332</ele>
        <time>2021-11-18T01:11:00.232Z</time>
      </trkpt>
      <trkpt lat="47.543505" lon="8.133721">
        <ele>384.984480</ele>
        <time>2021-11-18T01:11:02.444Z</time>
      </trkpt>
      <trkpt lat="47.543619" lon="8.133664">
        <ele>384.709431</ele>
        <time>2021-11-18T01:11:03.730Z</time>
      </trkpt>
      <trkpt lat="47.543708" lon="8.133619">
        <ele>384.494452</ele>
        <time>2021-11-18T01:11:04.671Z</time>
      </trkpt>
      <trkpt lat="47.543845" lon="8.133524">
        <ele>384.148656</ele>
        <time>2021-11-18T01:11:06.540Z</time>
      </trkpt>
      <trkpt lat="47.544105" lon="8.133316">
        <ele>383.473164</ele>
        <time>2021-11-18T01:11:09.650Z</time>
      </trkpt>
      <trkpt lat="47.544222" lon="8.133222">
        <ele>383.168899</ele>
        <time>2021-11-18T01:11:11.110Z</time>
      </trkpt>
      <trkpt lat="47.544453" lon="8.133038">
        <ele>382.569337</ele>
        <time>2021-11-18T01:11:14.039Z</time>
      </trkpt>
      <trkpt lat="47.544650" lon="8.132899">
        <ele>382.070522</ele>
        <time>2021-11-18T01:11:16.269Z</time>
      </trkpt>
      <trkpt lat="47.544810" lon="8.132765">
        <ele>381.547836</ele>
        <time>2021-11-18T01:11:18.310Z</time>
      </trkpt>
      <trkpt lat="47.545059" lon="8.132589">
        <ele>380.744164</ele>
        <time>2021-11-18T01:11:21.201Z</time>
      </trkpt>
      <trkpt lat="47.545184" lon="8.132503">
        <ele>380.342685</ele>
        <time>2021-11-18T01:11:22.616Z</time>
      </trkpt>
      <trkpt lat="47.545331" lon="8.132442">
        <ele>379.897990</ele>
        <time>2021-11-18T01:11:24.177Z</time>
      </trkpt>
      <trkpt lat="47.545734" lon="8.132329">
        <ele>378.703200</ele>
        <time>2021-11-18T01:11:28.406Z</time>
      </trkpt>
      <trkpt lat="47.545962" lon="8.132304">
        <ele>378.037214</ele>
        <time>2021-11-18T01:11:30.716Z</time>
      </trkpt>
      <trkpt lat="47.546023" lon="8.132300">
        <ele>377.859345</ele>
        <time>2021-11-18T01:11:31.319Z</time>
      </trkpt>
      <trkpt lat="47.546602" lon="8.132235">
        <ele>376.187372</ele>
        <time>2021-11-18T01:11:37.206Z</time>
      </trkpt>
      <trkpt lat="47.546938" lon="8.132181">
        <ele>375.233984</ele>
        <time>2021-11-18T01:11:40.580Z</time>
      </trkpt>
      <trkpt lat="47.547951" lon="8.132055">
        <ele>372.366343</ele>
        <time>2021-11-18T01:11:51.067Z</time>
      </trkpt>
      <trkpt lat="47.548544" lon="8.131974">
        <ele>371.246462</ele>
        <time>2021-11-18T01:11:57.631Z</time>
      </trkpt>
      <trkpt lat="47.549752" lon="8.131786">
        <ele>369.693213</ele>
        <time>2021-11-18T01:12:12.280Z</time>
      </trkpt>
      <trkpt lat="47.550488" lon="8.131671">
        <ele>368.867094</ele>
        <time>2021-11-18T01:12:21.868Z</time>
      </trkpt>
      <trkpt lat="47.550614" lon="8.131652">
        <ele>368.734475</ele>
        <time>2021-11-18T01:12:23.724Z</time>
      </trkpt>
      <trkpt lat="47.550712" lon="8.131637">
        <ele>368.631310</ele>
        <time>2021-11-18T01:12:24.860Z</time>
      </trkpt>
      <trkpt lat="47.551029" lon="8.131586">
        <ele>368.297419</ele>
        <time>2021-11-18T01:12:28.883Z</time>
      </trkpt>
      <trkpt lat="47.551383" lon="8.131531">
        <ele>367.924703</ele>
        <time>2021-11-18T01:12:33.025Z</time>
      </trkpt>
      <trkpt lat="47.551749" lon="8.131479">
        <ele>367.539697</ele>
        <time>2021-11-18T01:12:37.302Z</time>
      </trkpt>
      <trkpt lat="47.551784" lon="8.131474">
        <ele>367.487146</ele>
        <time>2021-11-18T01:12:37.648Z</time>
      </trkpt>
      <trkpt lat="47.551873" lon="8.131469">
        <ele>367.334011</ele>
        <time>2021-11-18T01:12:38.667Z</time>
      </trkpt>
      <trkpt lat="47.552293" lon="8.131579">
        <ele>366.600673</ele>
        <time>2021-11-18T01:12:43.693Z</time>
      </trkpt>
      <trkpt lat="47.552326" lon="8.131597">
        <ele>366.540211</ele>
        <time>2021-11-18T01:12:44.005Z</time>
      </trkpt>
      <trkpt lat="47.552402" lon="8.131645">
        <ele>366.398161</ele>
        <time>2021-11-18T01:12:45.007Z</time>
      </trkpt>
      <trkpt lat="47.552493" lon="8.131722">
        <ele>366.217980</ele>
        <time>2021-11-18T01:12:46.164Z</time>
      </trkpt>
      <trkpt lat="47.552602" lon="8.131831">
        <ele>365.991877</ele>
        <time>2021-11-18T01:12:47.675Z</time>
      </trkpt>
      <trkpt lat="47.553483" lon="8.132756">
        <ele>364.125978</ele>
        <time>2021-11-18T01:12:59.731Z</time>
      </trkpt>
      <trkpt lat="47.553541" lon="8.132821">
        <ele>363.997033</ele>
        <time>2021-11-18T01:13:00.427Z</time>
      </trkpt>
      <trkpt lat="47.553641" lon="8.132928">
        <ele>363.778320</ele>
        <time>2021-11-18T01:13:01.958Z</time>
      </trkpt>
      <trkpt lat="47.553708" lon="8.133003">
        <ele>363.629429</ele>
        <time>2021-11-18T01:13:03.037Z</time>
      </trkpt>
      <trkpt lat="47.553759" lon="8.133056">
        <ele>363.518975</ele>
        <time>2021-11-18T01:13:03.768Z</time>
      </trkpt>
      <trkpt lat="47.553847" lon="8.133128">
        <ele>363.340732</ele>
        <time>2021-11-18T01:13:04.854Z</time>
      </trkpt>
      <trkpt lat="47.554071" lon="8.133239">
        <ele>362.921928</ele>
        <time>2021-11-18T01:13:07.613Z</time>
      </trkpt>
      <trkpt lat="47.554467" lon="8.133300">
        <ele>362.215985</ele>
        <time>2021-11-18T01:13:12.162Z</time>
      </trkpt>
      <trkpt lat="47.554619" lon="8.133314">
        <ele>361.945950</ele>
        <time>2021-11-18T01:13:13.767Z</time>
      </trkpt>
      <trkpt lat="47.554855" lon="8.133333">
        <ele>361.526874</ele>
        <time>2021-11-18T01:13:16.405Z</time>
      </trkpt>
      <trkpt lat="47.555303" lon="8.133375">
        <ele>360.603192</ele>
        <time>2021-11-18T01:13:21.337Z</time>
      </trkpt>
      <trkpt lat="47.555444" lon="8.133390">
        <ele>360.290328</ele>
        <time>2021-11-18T01:13:22.843Z</time>
      </trkpt>
      <trkpt lat="47.555690" lon="8.133401">
        <ele>359.745635</ele>
        <time>2021-11-18T01:13:25.598Z</time>
      </trkpt>
      <trkpt lat="47.555896" lon="8.133399">
        <ele>359.289708</ele>
        <time>2021-11-18T01:13:27.841Z</time>
      </trkpt>
      <trkpt lat="47.556093" lon="8.133383">
        <ele>358.853054</ele>
        <time>2021-11-18T01:13:29.970Z</time>
      </trkpt>
      <trkpt lat="47.556204" lon="8.133369">
        <ele>358.606502</ele>
        <time>2021-11-18T01:13:31.138Z</time>
      </trkpt>
      <trkpt lat="47.556513" lon="8.133340">
        <ele>357.921255</ele>
        <time>2021-11-18T01:13:34.449Z</time>
      </trkpt>
      <trkpt lat="47.557021" lon="8.133293">
        <ele>356.806236</ele>
        <time>2021-11-18T01:13:39.814Z</time>
      </trkpt>
      <trkpt lat="47.557237" lon="8.133273">
        <ele>356.338942</ele>
        <time>2021-11-18T01:13:42.105Z</time>
      </trkpt>
      <trkpt lat="47.557846" lon="8.133209">
        <ele>355.020697</ele>
        <time>2021-11-18T01:13:48.722Z</time>
      </trkpt>
      <trkpt lat="47.558277" lon="8.133165">
        <ele>354.087883</ele>
        <time>2021-11-18T01:13:53.337Z</time>
      </trkpt>
      <trkpt lat="47.558609" lon="8.133121">
        <ele>353.374522</ele>
        <time>2021-11-18T01:13:56.993Z</time>
      </trkpt>
      <trkpt lat="47.559286" lon="8.133042">
        <ele>352.620200</ele>
        <time>2021-11-18T01:14:04.961Z</time>
      </trkpt>
      <trkpt lat="47.559423" lon="8.133034">
        <ele>352.467906</ele>
        <time>2021-11-18T01:14:06.589Z</time>
      </trkpt>
      <trkpt lat="47.559553" lon="8.133012">
        <ele>352.322566</ele>
        <time>2021-11-18T01:14:11.040Z</time>
      </trkpt>
      <trkpt lat="47.559972" lon="8.132981">
        <ele>351.856572</ele>
        <time>2021-11-18T01:14:25.503Z</time>
      </trkpt>
      <trkpt lat="47.560046" lon="8.132973">
        <ele>351.774156</ele>
        <time>2021-11-18T01:14:27.929Z</time>
      </trkpt>
      <trkpt lat="47.560143" lon="8.132963">
        <ele>351.666151</ele>
        <time>2021-11-18T01:14:29.189Z</time>
      </trkpt>
      <trkpt lat="47.560243" lon="8.132948">
        <ele>351.554506</ele>
        <time>2021-11-18T01:14:30.425Z</time>
      </trkpt>
      <trkpt lat="47.560335" lon="8.132935">
        <ele>351.451851</ele>
        <time>2021-11-18T01:14:31.941Z</time>
      </trkpt>
      <trkpt lat="47.560777" lon="8.132722">
        <ele>351.086029</ele>
        <time>2021-11-18T01:14:37.813Z</time>
      </trkpt>
      <trkpt lat="47.560827" lon="8.132679">
        <ele>351.043390</ele>
        <time>2021-11-18T01:14:38.636Z</time>
      </trkpt>
      <trkpt lat="47.560889" lon="8.132614">
        <ele>350.987374</ele>
        <time>2021-11-18T01:14:39.563Z</time>
      </trkpt>
      <trkpt lat="47.561056" lon="8.132422">
        <ele>350.831477</ele>
        <time>2021-11-18T01:14:42.360Z</time>
      </trkpt>
      <trkpt lat="47.561185" lon="8.132211">
        <ele>350.689767</ele>
        <time>2021-11-18T01:14:44.846Z</time>
      </trkpt>
      <trkpt lat="47.561796" lon="8.130897">
        <ele>349.776719</ele>
        <time>2021-11-18T01:14:58.534Z</time>
      </trkpt>
      <trkpt lat="47.562119" lon="8.130197">
        <ele>349.043553</ele>
        <time>2021-11-18T01:15:05.109Z</time>
      </trkpt>
      <trkpt lat="47.562169" lon="8.130101">
        <ele>348.938707</ele>
        <time>2021-11-18T01:15:06.111Z</time>
      </trkpt>
      <trkpt lat="47.562200" lon="8.130042">
        <ele>348.874058</ele>
        <time>2021-11-18T01:15:06.739Z</time>
      </trkpt>
      <trkpt lat="47.562419" lon="8.129559">
        <ele>348.370958</ele>
        <time>2021-11-18T01:15:11.351Z</time>
      </trkpt>
      <trkpt lat="47.562839" lon="8.128684">
        <ele>347.410658</ele>
        <time>2021-11-18T01:15:19.632Z</time>
      </trkpt>
      <trkpt lat="47.562984" lon="8.128403">
        <ele>347.073279</ele>
        <time>2021-11-18T01:15:22.434Z</time>
      </trkpt>
      <trkpt lat="47.563096" lon="8.128178">
        <ele>346.806619</ele>
        <time>2021-11-18T01:15:24.887Z</time>
      </trkpt>
      <trkpt lat="47.563232" lon="8.127932">
        <ele>346.503312</ele>
        <time>2021-11-18T01:15:27.350Z</time>
      </trkpt>
      <trkpt lat="47.563398" lon="8.127697">
        <ele>346.178842</ele>
        <time>2021-11-18T01:15:29.963Z</time>
      </trkpt>
      <trkpt lat="47.563589" lon="8.127466">
        <ele>345.830397</ele>
        <time>2021-11-18T01:15:33.941Z</time>
      </trkpt>
      <trkpt lat="47.563627" lon="8.127420">
        <ele>345.761047</ele>
        <time>2021-11-18T01:15:34.379Z</time>
      </trkpt>
      <trkpt lat="47.563751" lon="8.127247">
        <ele>345.520341</ele>
        <time>2021-11-18T01:15:36.201Z</time>
      </trkpt>
      <trkpt lat="47.563829" lon="8.127101">
        <ele>345.342739</ele>
        <time>2021-11-18T01:15:38.843Z</time>
      </trkpt>
      <trkpt lat="47.563898" lon="8.126936">
        <ele>345.127375</ele>
        <time>2021-11-18T01:15:42.486Z</time>
      </trkpt>
      <trkpt lat="47.563932" lon="8.126822">
        <ele>344.939965</ele>
        <time>2021-11-18T01:15:45.044Z</time>
      </trkpt>
      <trkpt lat="47.563935" lon="8.126813">
        <ele>344.924872</ele>
        <time>2021-11-18T01:15:45.231Z</time>
      </trkpt>
      <trkpt lat="47.563988" lon="8.126616">
        <ele>344.605983</ele>
        <time>2021-11-18T01:15:51.445Z</time>
      </trkpt>
      <trkpt lat="47.564016" lon="8.126515">
        <ele>344.441801</ele>
        <time>2021-11-18T01:15:53.351Z</time>
      </trkpt>
      <trkpt lat="47.564050" lon="8.126343">
        <ele>344.172310</ele>
        <time>2021-11-18T01:15:57.105Z</time>
      </trkpt>
      <trkpt lat="47.564078" lon="8.126253">
        <ele>344.023294</ele>
        <time>2021-11-18T01:15:59.594Z</time>
      </trkpt>
      <trkpt lat="47.564142" lon="8.126069">
        <ele>343.712036</ele>
        <time>2021-11-18T01:16:04.109Z</time>
      </trkpt>
      <trkpt lat="47.564204" lon="8.125933">
        <ele>343.465249</ele>
        <time>2021-11-18T01:16:05.212Z</time>
      </trkpt>
      <trkpt lat="47.564281" lon="8.125780">
        <ele>343.178257</ele>
        <time>2021-11-18T01:16:06.794Z</time>
      </trkpt>
      <trkpt lat="47.564404" lon="8.125557">
        <ele>342.745184</ele>
        <time>2021-11-18T01:16:08.841Z</time>
      </trkpt>
      <trkpt lat="47.564445" lon="8.125480">
        <ele>342.597701</ele>
        <time>2021-11-18T01:16:09.484Z</time>
      </trkpt>
      <trkpt lat="47.564862" lon="8.124663">
        <ele>341.055936</ele>
        <time>2021-11-18T01:16:16.851Z</time>
      </trkpt>
      <trkpt lat="47.565033" lon="8.124341">
        <ele>340.433551</ele>
        <time>2021-11-18T01:16:19.789Z</time>
      </trkpt>
      <trkpt lat="47.565098" lon="8.124202">
        <ele>340.176683</ele>
        <time>2021-11-18T01:16:20.910Z</time>
      </trkpt>
      <trkpt lat="47.565268" lon="8.123888">
        <ele>339.565213</ele>
        <time>2021-11-18T01:16:23.689Z</time>
      </trkpt>
      <trkpt lat="47.565326" lon="8.123776">
        <ele>339.350775</ele>
        <time>2021-11-18T01:16:24.608Z</time>
      </trkpt>
      <trkpt lat="47.565434" lon="8.123568">
        <ele>338.952140</ele>
        <time>2021-11-18T01:16:26.511Z</time>
      </trkpt>
      <trkpt lat="47.565629" lon="8.123189">
        <ele>338.228231</ele>
        <time>2021-11-18T01:16:30.015Z</time>
      </trkpt>
      <trkpt lat="47.565954" lon="8.122541">
        <ele>337.088652</ele>
        <time>2021-11-18T01:16:36.355Z</time>
      </trkpt>
      <trkpt lat="47.566102" lon="8.122133">
        <ele>336.788283</ele>
        <time>2021-11-18T01:16:40.224Z</time>
      </trkpt>
      <trkpt lat="47.566119" lon="8.122027">
        <ele>336.717634</ele>
        <time>2021-11-18T01:16:41.068Z</time>
      </trkpt>
      <trkpt lat="47.566151" lon="8.121930">
        <ele>336.647621</ele>
        <time>2021-11-18T01:16:42.163Z</time>
      </trkpt>
      <trkpt lat="47.566318" lon="8.120964">
        <ele>336.001003</ele>
        <time>2021-11-18T01:16:50.366Z</time>
      </trkpt>
      <trkpt lat="47.566366" lon="8.120637">
        <ele>335.784007</ele>
        <time>2021-11-18T01:16:53.189Z</time>
      </trkpt>
      <trkpt lat="47.566398" lon="8.120421">
        <ele>335.640610</ele>
        <time>2021-11-18T01:16:55.299Z</time>
      </trkpt>
      <trkpt lat="47.566431" lon="8.120180">
        <ele>335.481153</ele>
        <time>2021-11-18T01:16:57.298Z</time>
      </trkpt>
      <trkpt lat="47.566474" lon="8.119870">
        <ele>335.225138</ele>
        <time>2021-11-18T01:17:00.160Z</time>
      </trkpt>
      <trkpt lat="47.566566" lon="8.119245">
        <ele>334.668755</ele>
        <time>2021-11-18T01:17:05.481Z</time>
      </trkpt>
      <trkpt lat="47.566580" lon="8.119152">
        <ele>334.585880</ele>
        <time>2021-11-18T01:17:06.152Z</time>
      </trkpt>
      <trkpt lat="47.566644" lon="8.118715">
        <ele>334.196947</ele>
        <time>2021-11-18T01:17:09.765Z</time>
      </trkpt>
      <trkpt lat="47.566733" lon="8.118099">
        <ele>333.649034</ele>
        <time>2021-11-18T01:17:14.428Z</time>
      </trkpt>
      <trkpt lat="47.566811" lon="8.117556">
        <ele>333.166175</ele>
        <time>2021-11-18T01:17:18.600Z</time>
      </trkpt>
      <trkpt lat="47.566944" lon="8.116530">
        <ele>332.662180</ele>
        <time>2021-11-18T01:17:27.643Z</time>
      </trkpt>
      <trkpt lat="47.566983" lon="8.116203">
        <ele>332.511071</ele>
        <time>2021-11-18T01:17:30.585Z</time>
      </trkpt>
      <trkpt lat="47.567009" lon="8.116010">
        <ele>332.421513</ele>
        <time>2021-11-18T01:17:33.260Z</time>
      </trkpt>
      <trkpt lat="47.567157" lon="8.115310">
        <ele>332.087705</ele>
        <time>2021-11-18T01:17:39.519Z</time>
      </trkpt>
      <trkpt lat="47.567411" lon="8.114753">
        <ele>331.706462</ele>
        <time>2021-11-18T01:17:45.181Z</time>
      </trkpt>
      <trkpt lat="47.567654" lon="8.114290">
        <ele>331.259097</ele>
        <time>2021-11-18T01:17:50.500Z</time>
      </trkpt>
      <trkpt lat="47.567881" lon="8.113862">
        <ele>330.843901</ele>
        <time>2021-11-18T01:17:55.501Z</time>
      </trkpt>
      <trkpt lat="47.568167" lon="8.113323">
        <ele>330.320938</ele>
        <time>2021-11-18T01:18:01.449Z</time>
      </trkpt>
      <trkpt lat="47.568835" lon="8.112063">
        <ele>327.660613</ele>
        <time>2021-11-18T01:18:12.785Z</time>
      </trkpt>
      <trkpt lat="47.569083" lon="8.111567">
        <ele>326.300316</ele>
        <time>2021-11-18T01:18:16.973Z</time>
      </trkpt>
      <trkpt lat="47.569107" lon="8.111522">
        <ele>326.173924</ele>
        <time>2021-11-18T01:18:17.300Z</time>
      </trkpt>
      <trkpt lat="47.569423" lon="8.110628">
        <ele>323.970360</ele>
        <time>2021-11-18T01:18:24.116Z</time>
      </trkpt>
      <trkpt lat="47.569495" lon="8.110499">
        <ele>323.808940</ele>
        <time>2021-11-18T01:18:25.113Z</time>
      </trkpt>
      <trkpt lat="47.569574" lon="8.110385">
        <ele>323.651375</ele>
        <time>2021-11-18T01:18:26.178Z</time>
      </trkpt>
      <trkpt lat="47.569664" lon="8.110262">
        <ele>323.476430</ele>
        <time>2021-11-18T01:18:28.526Z</time>
      </trkpt>
      <trkpt lat="47.569787" lon="8.110094">
        <ele>323.237404</ele>
        <time>2021-11-18T01:18:30.082Z</time>
      </trkpt>
      <trkpt lat="47.569974" lon="8.109825">
        <ele>322.865006</ele>
        <time>2021-11-18T01:18:32.974Z</time>
      </trkpt>
      <trkpt lat="47.570263" lon="8.109376">
        <ele>322.266698</ele>
        <time>2021-11-18T01:18:37.554Z</time>
      </trkpt>
      <trkpt lat="47.570283" lon="8.109343">
        <ele>322.223929</ele>
        <time>2021-11-18T01:18:37.854Z</time>
      </trkpt>
      <trkpt lat="47.570582" lon="8.108889">
        <ele>321.612231</ele>
        <time>2021-11-18T01:18:43.438Z</time>
      </trkpt>
      <trkpt lat="47.570830" lon="8.108502">
        <ele>321.945260</ele>
        <time>2021-11-18T01:18:53.764Z</time>
      </trkpt>
      <trkpt lat="47.571253" lon="8.107823">
        <ele>323.428167</ele>
        <time>2021-11-18T01:19:13.125Z</time>
      </trkpt>
      <trkpt lat="47.571440" lon="8.107260">
        <ele>324.435061</ele>
        <time>2021-11-18T01:19:25.964Z</time>
      </trkpt>
      <trkpt lat="47.571458" lon="8.107087">
        <ele>324.715926</ele>
        <time>2021-11-18T01:19:30.088Z</time>
      </trkpt>
      <trkpt lat="47.571460" lon="8.106995">
        <ele>324.863620</ele>
        <time>2021-11-18T01:19:31.720Z</time>
      </trkpt>
      <trkpt lat="47.571461" lon="8.106820">
        <ele>325.144423</ele>
        <time>2021-11-18T01:19:33.306Z</time>
      </trkpt>
      <trkpt lat="47.571440" lon="8.106588">
        <ele>325.520010</ele>
        <time>2021-11-18T01:19:36.134Z</time>
      </trkpt>
      <trkpt lat="47.571298" lon="8.105561">
        <ele>324.928945</ele>
        <time>2021-11-18T01:19:44.447Z</time>
      </trkpt>
      <trkpt lat="47.571251" lon="8.105188">
        <ele>324.620453</ele>
        <time>2021-11-18T01:19:47.354Z</time>
      </trkpt>
      <trkpt lat="47.571234" lon="8.105037">
        <ele>324.495992</ele>
        <time>2021-11-18T01:19:48.991Z</time>
      </trkpt>
      <trkpt lat="47.571214" lon="8.104836">
        <ele>324.330812</ele>
        <time>2021-11-18T01:19:50.637Z</time>
      </trkpt>
      <trkpt lat="47.571252" lon="8.104668">
        <ele>324.186756</ele>
        <time>2021-11-18T01:19:52.140Z</time>
      </trkpt>
      <trkpt lat="47.571285" lon="8.104547">
        <ele>324.080650</ele>
        <time>2021-11-18T01:19:53.062Z</time>
      </trkpt>
      <trkpt lat="47.571319" lon="8.104520">
        <ele>324.034169</ele>
        <time>2021-11-18T01:19:53.479Z</time>
      </trkpt>
      <trkpt lat="47.571345" lon="8.104476">
        <ele>323.986617</ele>
        <time>2021-11-18T01:19:53.867Z</time>
      </trkpt>
      <trkpt lat="47.571359" lon="8.104422">
        <ele>323.939585</ele>
        <time>2021-11-18T01:19:54.241Z</time>
      </trkpt>
      <trkpt lat="47.571359" lon="8.104365">
        <ele>323.893244</ele>
        <time>2021-11-18T01:19:54.677Z</time>
      </trkpt>
      <trkpt lat="47.571346" lon="8.104311">
        <ele>323.846631</ele>
        <time>2021-11-18T01:19:55.060Z</time>
      </trkpt>
      <trkpt lat="47.571354" lon="8.104222">
        <ele>323.773635</ele>
        <time>2021-11-18T01:19:56.090Z</time>
      </trkpt>
      <trkpt lat="47.571310" lon="8.104135">
        <ele>323.685237</ele>
        <time>2021-11-18T01:19:56.831Z</time>
      </trkpt>
      <trkpt lat="47.571041" lon="8.104109">
        <ele>323.580772</ele>
        <time>2021-11-18T01:19:59.704Z</time>
      </trkpt>
      <trkpt lat="47.570788" lon="8.103933">
        <ele>323.692212</ele>
        <time>2021-11-18T01:20:02.681Z</time>
      </trkpt>
      <trkpt lat="47.570667" lon="8.103884">
        <ele>323.742228</ele>
        <time>2021-11-18T01:20:04.384Z</time>
      </trkpt>
      <trkpt lat="47.570391" lon="8.103841">
        <ele>323.852887</ele>
        <time>2021-11-18T01:20:13.237Z</time>
      </trkpt>
      <trkpt lat="47.570159" lon="8.103813">
        <ele>323.945701</ele>
        <time>2021-11-18T01:20:17.326Z</time>
      </trkpt>
      <trkpt lat="47.569557" lon="8.103677">
        <ele>324.188516</ele>
        <time>2021-11-18T01:20:33.666Z</time>
      </trkpt>
      <trkpt lat="47.567683" lon="8.103272">
        <ele>328.988949</ele>
        <time>2021-11-18T01:21:21.931Z</time>
      </trkpt>
      <trkpt lat="47.566684" lon="8.102974">
        <ele>331.586813</ele>
        <time>2021-11-18T01:21:48.079Z</time>
      </trkpt>
      <trkpt lat="47.565727" lon="8.102512">
        <ele>334.016675</ele>
        <time>2021-11-18T01:22:13.351Z</time>
      </trkpt>
      <trkpt lat="47.564165" lon="8.101615">
        <ele>337.164398</ele>
        <time>2021-11-18T01:22:48.540Z</time>
      </trkpt>
      <trkpt lat="47.563202" lon="8.101042">
        <ele>340.097292</ele>
        <time>2021-11-18T01:23:14.354Z</time>
      </trkpt>
      <trkpt lat="47.563202" lon="8.101042">
        <ele>340.097292</ele>
        <time>2021-11-18T01:23:14.443Z</time>
      </trkpt>
      <trkpt lat="47.563202" lon="8.101042">
        <ele>340.097292</ele>
        <time>2021-11-18T01:23:14.450Z</time>
      </trkpt>
      <trkpt lat="47.563031" lon="8.100935">
        <ele>340.621902</ele>
        <time>2021-11-18T01:23:21.333Z</time>
      </trkpt>
      <trkpt lat="47.562207" lon="8.100413">
        <ele>343.016559</ele>
        <time>2021-11-18T01:23:51.774Z</time>
      </trkpt>
      <trkpt lat="47.561466" lon="8.099697">
        <ele>345.197258</ele>
        <time>2021-11-18T01:24:22.674Z</time>
      </trkpt>
      <trkpt lat="47.560787" lon="8.098864">
        <ele>345.537317</ele>
        <time>2021-11-18T01:24:42.344Z</time>
      </trkpt>
      <trkpt lat="47.560171" lon="8.097877">
        <ele>343.019413</ele>
        <time>2021-11-18T01:24:55.924Z</time>
      </trkpt>
      <trkpt lat="47.559606" lon="8.096837">
        <ele>339.558833</ele>
        <time>2021-11-18T01:25:07.936Z</time>
      </trkpt>
      <trkpt lat="47.558983" lon="8.095482">
        <ele>333.531893</ele>
        <time>2021-11-18T01:25:22.464Z</time>
      </trkpt>
      <trkpt lat="47.558857" lon="8.095293">
        <ele>332.555311</ele>
        <time>2021-11-18T01:25:24.956Z</time>
      </trkpt>
      <trkpt lat="47.558776" lon="8.095210">
        <ele>332.018884</ele>
        <time>2021-11-18T01:25:26.205Z</time>
      </trkpt>
      <trkpt lat="47.558531" lon="8.094661">
        <ele>330.223683</ele>
        <time>2021-11-18T01:25:30.486Z</time>
      </trkpt>
      <trkpt lat="47.557677" lon="8.092776">
        <ele>324.243003</ele>
        <time>2021-11-18T01:25:45.911Z</time>
      </trkpt>
      <trkpt lat="47.556850" lon="8.091457">
        <ele>318.651807</ele>
        <time>2021-11-18T01:25:57.535Z</time>
      </trkpt>
      <trkpt lat="47.556692" lon="8.091113">
        <ele>317.359556</ele>
        <time>2021-11-18T01:26:00.139Z</time>
      </trkpt>
      <trkpt lat="47.556527" lon="8.090721">
        <ele>316.049833</ele>
        <time>2021-11-18T01:26:03.020Z</time>
      </trkpt>
      <trkpt lat="47.556259" lon="8.090058">
        <ele>314.145447</ele>
        <time>2021-11-18T01:26:07.932Z</time>
      </trkpt>
      <trkpt lat="47.556193" lon="8.089926">
        <ele>313.740631</ele>
        <time>2021-11-18T01:26:09.063Z</time>
      </trkpt>
      <trkpt lat="47.556110" lon="8.089809">
        <ele>313.322339</ele>
        <time>2021-11-18T01:26:10.141Z</time>
      </trkpt>
      <trkpt lat="47.556137" lon="8.089730">
        <ele>313.104129</ele>
        <time>2021-11-18T01:26:10.694Z</time>
      </trkpt>
      <trkpt lat="47.556151" lon="8.089459">
        <ele>312.434384</ele>
        <time>2021-11-18T01:26:12.537Z</time>
      </trkpt>
      <trkpt lat="47.556111" lon="8.089266">
        <ele>311.936876</ele>
        <time>2021-11-18T01:26:13.826Z</time>
      </trkpt>
      <trkpt lat="47.556065" lon="8.089084">
        <ele>311.457976</ele>
        <time>2021-11-18T01:26:15.136Z</time>
      </trkpt>
      <trkpt lat="47.555997" lon="8.088801">
        <ele>310.717730</ele>
        <time>2021-11-18T01:26:17.476Z</time>
      </trkpt>
      <trkpt lat="47.555991" lon="8.088778">
        <ele>310.656967</ele>
        <time>2021-11-18T01:26:17.718Z</time>
      </trkpt>
      <trkpt lat="47.555939" lon="8.088552">
        <ele>310.068585</ele>
        <time>2021-11-18T01:26:19.579Z</time>
      </trkpt>
      <trkpt lat="47.555887" lon="8.088299">
        <ele>310.241895</ele>
        <time>2021-11-18T01:26:22.096Z</time>
      </trkpt>
      <trkpt lat="47.555829" lon="8.087941">
        <ele>310.705917</ele>
        <time>2021-11-18T01:26:25.888Z</time>
      </trkpt>
      <trkpt lat="47.555809" lon="8.087783">
        <ele>310.908523</ele>
        <time>2021-11-18T01:26:27.521Z</time>
      </trkpt>
      <trkpt lat="47.555780" lon="8.087557">
        <ele>311.198464</ele>
        <time>2021-11-18T01:26:29.761Z</time>
      </trkpt>
      <trkpt lat="47.555737" lon="8.087083">
        <ele>311.801240</ele>
        <time>2021-11-18T01:26:37.425Z</time>
      </trkpt>
      <trkpt lat="47.555733" lon="8.086819">
        <ele>312.134055</ele>
        <time>2021-11-18T01:26:42.274Z</time>
      </trkpt>
      <trkpt lat="47.555741" lon="8.086554">
        <ele>312.468380</ele>
        <time>2021-11-18T01:26:46.947Z</time>
      </trkpt>
      <trkpt lat="47.555764" lon="8.085769">
        <ele>313.670984</ele>
        <time>2021-11-18T01:27:04.115Z</time>
      </trkpt>
      <trkpt lat="47.555899" lon="8.084472">
        <ele>317.889082</ele>
        <time>2021-11-18T01:27:33.674Z</time>
      </trkpt>
      <trkpt lat="47.555956" lon="8.084115">
        <ele>319.068223</ele>
        <time>2021-11-18T01:27:42.254Z</time>
      </trkpt>
      <trkpt lat="47.556083" lon="8.083354">
        <ele>321.587891</ele>
        <time>2021-11-18T01:28:00.299Z</time>
      </trkpt>
      <trkpt lat="47.556470" lon="8.081563">
        <ele>327.786424</ele>
        <time>2021-11-18T01:28:47.028Z</time>
      </trkpt>
      <trkpt lat="47.556853" lon="8.080477">
        <ele>331.147080</ele>
        <time>2021-11-18T01:29:13.101Z</time>
      </trkpt>
      <trkpt lat="47.557099" lon="8.079786">
        <ele>332.188199</ele>
        <time>2021-11-18T01:29:27.426Z</time>
      </trkpt>
      <trkpt lat="47.557256" lon="8.079416">
        <ele>332.770636</ele>
        <time>2021-11-18T01:29:34.146Z</time>
      </trkpt>
      <trkpt lat="47.557793" lon="8.078299">
        <ele>334.000573</ele>
        <time>2021-11-18T01:29:50.447Z</time>
      </trkpt>
      <trkpt lat="47.558613" lon="8.076826">
        <ele>332.347185</ele>
        <time>2021-11-18T01:30:05.011Z</time>
      </trkpt>
      <trkpt lat="47.559046" lon="8.076086">
        <ele>331.414249</ele>
        <time>2021-11-18T01:30:12.391Z</time>
      </trkpt>
      <trkpt lat="47.559426" lon="8.075372">
        <ele>330.471142</ele>
        <time>2021-11-18T01:30:19.388Z</time>
      </trkpt>
      <trkpt lat="47.559811" lon="8.074398">
        <ele>329.300433</ele>
        <time>2021-11-18T01:30:28.282Z</time>
      </trkpt>
      <trkpt lat="47.560318" lon="8.072316">
        <ele>326.815896</ele>
        <time>2021-11-18T01:30:45.554Z</time>
      </trkpt>
      <trkpt lat="47.560524" lon="8.071179">
        <ele>325.241130</ele>
        <time>2021-11-18T01:30:54.120Z</time>
      </trkpt>
      <trkpt lat="47.560553" lon="8.071099">
        <ele>325.100925</ele>
        <time>2021-11-18T01:30:54.731Z</time>
      </trkpt>
      <trkpt lat="47.560584" lon="8.070919">
        <ele>324.814116</ele>
        <time>2021-11-18T01:30:56.041Z</time>
      </trkpt>
      <trkpt lat="47.560739" lon="8.070551">
        <ele>324.144371</ele>
        <time>2021-11-18T01:30:59.128Z</time>
      </trkpt>
      <trkpt lat="47.560864" lon="8.070015">
        <ele>323.268821</ele>
        <time>2021-11-18T01:31:03.150Z</time>
      </trkpt>
      <trkpt lat="47.560904" lon="8.069780">
        <ele>322.894643</ele>
        <time>2021-11-18T01:31:04.895Z</time>
      </trkpt>
      <trkpt lat="47.560998" lon="8.069237">
        <ele>322.037060</ele>
        <time>2021-11-18T01:31:08.975Z</time>
      </trkpt>
      <trkpt lat="47.561130" lon="8.068650">
        <ele>321.649120</ele>
        <time>2021-11-18T01:31:13.645Z</time>
      </trkpt>
      <trkpt lat="47.561187" lon="8.068256">
        <ele>321.396473</ele>
        <time>2021-11-18T01:31:16.920Z</time>
      </trkpt>
      <trkpt lat="47.561229" lon="8.067903">
        <ele>321.171733</ele>
        <time>2021-11-18T01:31:19.958Z</time>
      </trkpt>
      <trkpt lat="47.561265" lon="8.067435">
        <ele>320.876402</ele>
        <time>2021-11-18T01:31:23.940Z</time>
      </trkpt>
      <trkpt lat="47.561276" lon="8.067022">
        <ele>320.617255</ele>
        <time>2021-11-18T01:31:27.857Z</time>
      </trkpt>
      <trkpt lat="47.561253" lon="8.066385">
        <ele>320.388809</ele>
        <time>2021-11-18T01:31:34.372Z</time>
      </trkpt>
      <trkpt lat="47.561108" lon="8.065242">
        <ele>320.471911</ele>
        <time>2021-11-18T01:31:46.737Z</time>
      </trkpt>
      <trkpt lat="47.561017" lon="8.064820">
        <ele>320.503567</ele>
        <time>2021-11-18T01:31:51.534Z</time>
      </trkpt>
      <trkpt lat="47.560887" lon="8.064271">
        <ele>320.545140</ele>
        <time>2021-11-18T01:31:57.516Z</time>
      </trkpt>
      <trkpt lat="47.560806" lon="8.064037">
        <ele>320.558327</ele>
        <time>2021-11-18T01:32:00.044Z</time>
      </trkpt>
      <trkpt lat="47.560719" lon="8.063873">
        <ele>320.535504</ele>
        <time>2021-11-18T01:32:02.179Z</time>
      </trkpt>
      <trkpt lat="47.560392" lon="8.063300">
        <ele>320.453401</ele>
        <time>2021-11-18T01:32:09.323Z</time>
      </trkpt>
      <trkpt lat="47.560335" lon="8.063169">
        <ele>320.436348</ele>
        <time>2021-11-18T01:32:10.831Z</time>
      </trkpt>
      <trkpt lat="47.560225" lon="8.062994">
        <ele>320.410182</ele>
        <time>2021-11-18T01:32:13.107Z</time>
      </trkpt>
      <trkpt lat="47.559896" lon="8.062191">
        <ele>320.307402</ele>
        <time>2021-11-18T01:32:21.972Z</time>
      </trkpt>
      <trkpt lat="47.559747" lon="8.061982">
        <ele>320.274139</ele>
        <time>2021-11-18T01:32:24.905Z</time>
      </trkpt>
      <trkpt lat="47.559623" lon="8.061812">
        <ele>320.210188</ele>
        <time>2021-11-18T01:32:27.248Z</time>
      </trkpt>
      <trkpt lat="47.559532" lon="8.061606">
        <ele>320.141075</ele>
        <time>2021-11-18T01:32:29.557Z</time>
      </trkpt>
      <trkpt lat="47.559486" lon="8.061505">
        <ele>320.106871</ele>
        <time>2021-11-18T01:32:30.735Z</time>
      </trkpt>
      <trkpt lat="47.559454" lon="8.061437">
        <ele>320.083600</ele>
        <time>2021-11-18T01:32:31.489Z</time>
      </trkpt>
      <trkpt lat="47.559315" lon="8.061147">
        <ele>319.983751</ele>
        <time>2021-11-18T01:32:34.787Z</time>
      </trkpt>
      <trkpt lat="47.559127" lon="8.060780">
        <ele>319.854413</ele>
        <time>2021-11-18T01:32:39.055Z</time>
      </trkpt>
      <trkpt lat="47.558705" lon="8.059935">
        <ele>319.559326</ele>
        <time>2021-11-18T01:32:48.645Z</time>
      </trkpt>
      <trkpt lat="47.558135" lon="8.058789">
        <ele>318.808001</ele>
        <time>2021-11-18T01:33:00.562Z</time>
      </trkpt>
      <trkpt lat="47.557986" lon="8.058487">
        <ele>318.601026</ele>
        <time>2021-11-18T01:33:03.624Z</time>
      </trkpt>
      <trkpt lat="47.557861" lon="8.058282">
        <ele>318.448167</ele>
        <time>2021-11-18T01:33:05.973Z</time>
      </trkpt>
      <trkpt lat="47.557861" lon="8.058282">
        <ele>318.448167</ele>
        <time>2021-11-18T01:33:05.976Z</time>
      </trkpt>
      <trkpt lat="47.557861" lon="8.058282">
        <ele>318.448167</ele>
        <time>2021-11-18T01:33:06.021Z</time>
      </trkpt>
      <trkpt lat="47.558052" lon="8.058235">
        <ele>318.289435</ele>
        <time>2021-11-18T01:33:08.404Z</time>
      </trkpt>
      <trkpt lat="47.558103" lon="8.058229">
        <ele>318.247492</ele>
        <time>2021-11-18T01:33:09.080Z</time>
      </trkpt>
      <trkpt lat="47.558555" lon="8.058202">
        <ele>317.942887</ele>
        <time>2021-11-18T01:33:14.841Z</time>
      </trkpt>
      <trkpt lat="47.558572" lon="8.058203">
        <ele>317.934353</ele>
        <time>2021-11-18T01:33:15.062Z</time>
      </trkpt>
      <trkpt lat="47.558735" lon="8.058210">
        <ele>317.852554</ele>
        <time>2021-11-18T01:33:17.085Z</time>
      </trkpt>
      <trkpt lat="47.559141" lon="8.058234">
        <ele>317.648734</ele>
        <time>2021-11-18T01:33:22.299Z</time>
      </trkpt>
      <trkpt lat="47.559545" lon="8.058282">
        <ele>317.445428</ele>
        <time>2021-11-18T01:33:27.584Z</time>
      </trkpt>
      <trkpt lat="47.559654" lon="8.058257">
        <ele>317.390100</ele>
        <time>2021-11-18T01:33:29.111Z</time>
      </trkpt>
      <trkpt lat="47.559579" lon="8.057955">
        <ele>317.281168</ele>
        <time>2021-11-18T01:33:32.072Z</time>
      </trkpt>
      <trkpt lat="47.559548" lon="8.057827">
        <ele>317.235134</ele>
        <time>2021-11-18T01:33:33.439Z</time>
      </trkpt>
      <trkpt lat="47.559447" lon="8.057490">
        <ele>317.138712</ele>
        <time>2021-11-18T01:33:37.011Z</time>
      </trkpt>
      <trkpt lat="47.559294" lon="8.057130">
        <ele>317.112265</ele>
        <time>2021-11-18T01:33:41.348Z</time>
      </trkpt>
      <trkpt lat="47.559116" lon="8.056760">
        <ele>317.084019</ele>
        <time>2021-11-18T01:33:45.959Z</time>
      </trkpt>
      <trkpt lat="47.558662" lon="8.056061">
        <ele>317.023711</ele>
        <time>2021-11-18T01:33:55.403Z</time>
      </trkpt>
      <trkpt lat="47.558447" lon="8.055831">
        <ele>316.999284</ele>
        <time>2021-11-18T01:33:58.933Z</time>
      </trkpt>
      <trkpt lat="47.558239" lon="8.055639">
        <ele>316.979944</ele>
        <time>2021-11-18T01:34:02.616Z</time>
      </trkpt>
      <trkpt lat="47.558012" lon="8.055477">
        <ele>316.984479</ele>
        <time>2021-11-18T01:34:06.260Z</time>
      </trkpt>
      <trkpt lat="47.557918" lon="8.055409">
        <ele>316.986362</ele>
        <time>2021-11-18T01:34:08.057Z</time>
      </trkpt>
      <trkpt lat="47.557710" lon="8.055283">
        <ele>316.990407</ele>
        <time>2021-11-18T01:34:11.423Z</time>
      </trkpt>
      <trkpt lat="47.557500" lon="8.055133">
        <ele>316.994603</ele>
        <time>2021-11-18T01:34:15.248Z</time>
      </trkpt>
      <trkpt lat="47.557273" lon="8.054941">
        <ele>316.999308</ele>
        <time>2021-11-18T01:34:19.487Z</time>
      </trkpt>
      <trkpt lat="47.557097" lon="8.054768">
        <ele>317.003110</ele>
        <time>2021-11-18T01:34:22.451Z</time>
      </trkpt>
      <trkpt lat="47.557019" lon="8.054678">
        <ele>317.004890</ele>
        <time>2021-11-18T01:34:24.258Z</time>
      </trkpt>
      <trkpt lat="47.556494" lon="8.054073">
        <ele>317.037784</ele>
        <time>2021-11-18T01:34:33.206Z</time>
      </trkpt>
      <trkpt lat="47.556239" lon="8.053780">
        <ele>317.067564</ele>
        <time>2021-11-18T01:34:37.636Z</time>
      </trkpt>
      <trkpt lat="47.556032" lon="8.053510">
        <ele>317.093016</ele>
        <time>2021-11-18T01:34:41.928Z</time>
      </trkpt>
      <trkpt lat="47.555890" lon="8.053286">
        <ele>317.112157</ele>
        <time>2021-11-18T01:34:45.428Z</time>
      </trkpt>
      <trkpt lat="47.555773" lon="8.053070">
        <ele>317.129408</ele>
        <time>2021-11-18T01:34:48.478Z</time>
      </trkpt>
      <trkpt lat="47.555603" lon="8.052757">
        <ele>317.154432</ele>
        <time>2021-11-18T01:34:52.552Z</time>
      </trkpt>
      <trkpt lat="47.555603" lon="8.052757">
        <ele>317.154432</ele>
        <time>2021-11-18T01:34:52.604Z</time>
      </trkpt>
      <trkpt lat="47.555259" lon="8.052135">
        <ele>317.516914</ele>
        <time>2021-11-18T01:35:01.151Z</time>
      </trkpt>
      <trkpt lat="47.554988" lon="8.051475">
        <ele>318.127388</ele>
        <time>2021-11-18T01:35:10.076Z</time>
      </trkpt>
      <trkpt lat="47.554715" lon="8.050527">
        <ele>318.941847</ele>
        <time>2021-11-18T01:35:24.876Z</time>
      </trkpt>
      <trkpt lat="47.554412" lon="8.049127">
        <ele>320.591543</ele>
        <time>2021-11-18T01:35:47.347Z</time>
      </trkpt>
      <trkpt lat="47.554309" lon="8.048719">
        <ele>321.140618</ele>
        <time>2021-11-18T01:35:54.364Z</time>
      </trkpt>
      <trkpt lat="47.553996" lon="8.047557">
        <ele>322.653456</ele>
        <time>2021-11-18T01:36:13.594Z</time>
      </trkpt>
      <trkpt lat="47.553619" lon="8.046372">
        <ele>322.883764</ele>
        <time>2021-11-18T01:36:30.031Z</time>
      </trkpt>
      <trkpt lat="47.552844" lon="8.044355">
        <ele>321.942347</ele>
        <time>2021-11-18T01:36:49.961Z</time>
      </trkpt>
      <trkpt lat="47.551627" lon="8.041127">
        <ele>317.098029</ele>
        <time>2021-11-18T01:37:16.714Z</time>
      </trkpt>
      <trkpt lat="47.551167" lon="8.039905">
        <ele>315.805268</ele>
        <time>2021-11-18T01:37:27.344Z</time>
      </trkpt>
      <trkpt lat="47.551001" lon="8.039426">
        <ele>315.523106</ele>
        <time>2021-11-18T01:37:31.700Z</time>
      </trkpt>
      <trkpt lat="47.550515" lon="8.038174">
        <ele>314.883206</ele>
        <time>2021-11-18T01:37:45.403Z</time>
      </trkpt>
      <trkpt lat="47.550424" lon="8.037956">
        <ele>315.022063</ele>
        <time>2021-11-18T01:37:48.373Z</time>
      </trkpt>
      <trkpt lat="47.550111" lon="8.037123">
        <ele>315.538536</ele>
        <time>2021-11-18T01:38:00.740Z</time>
      </trkpt>
      <trkpt lat="47.549832" lon="8.036349">
        <ele>316.013885</ele>
        <time>2021-11-18T01:38:12.023Z</time>
      </trkpt>
      <trkpt lat="47.549753" lon="8.036077">
        <ele>316.174299</ele>
        <time>2021-11-18T01:38:15.795Z</time>
      </trkpt>
      <trkpt lat="47.549699" lon="8.035900">
        <ele>316.272763</ele>
        <time>2021-11-18T01:38:18.128Z</time>
      </trkpt>
      <trkpt lat="47.549632" lon="8.035633">
        <ele>316.341064</ele>
        <time>2021-11-18T01:38:21.446Z</time>
      </trkpt>
      <trkpt lat="47.549554" lon="8.035288">
        <ele>316.428303</ele>
        <time>2021-11-18T01:38:25.737Z</time>
      </trkpt>
      <trkpt lat="47.549494" lon="8.034935">
        <ele>316.515585</ele>
        <time>2021-11-18T01:38:30.196Z</time>
      </trkpt>
      <trkpt lat="47.549442" lon="8.034584">
        <ele>316.601749</ele>
        <time>2021-11-18T01:38:33.600Z</time>
      </trkpt>
      <trkpt lat="47.549395" lon="8.034029">
        <ele>316.735867</ele>
        <time>2021-11-18T01:38:39.661Z</time>
      </trkpt>
      <trkpt lat="47.549394" lon="8.034003">
        <ele>316.742111</ele>
        <time>2021-11-18T01:38:41.137Z</time>
      </trkpt>
      <trkpt lat="47.549386" lon="8.033799">
        <ele>316.791107</ele>
        <time>2021-11-18T01:38:42.669Z</time>
      </trkpt>
      <trkpt lat="47.549374" lon="8.033423">
        <ele>316.881363</ele>
        <time>2021-11-18T01:38:47.185Z</time>
      </trkpt>
      <trkpt lat="47.549363" lon="8.032869">
        <ele>316.908489</ele>
        <time>2021-11-18T01:38:52.345Z</time>
      </trkpt>
      <trkpt lat="47.549368" lon="8.032544">
        <ele>316.910033</ele>
        <time>2021-11-18T01:38:54.942Z</time>
      </trkpt>
      <trkpt lat="47.549372" lon="8.031883">
        <ele>316.913172</ele>
        <time>2021-11-18T01:39:01.961Z</time>
      </trkpt>
      <trkpt lat="47.549378" lon="8.030790">
        <ele>316.918363</ele>
        <time>2021-11-18T01:39:12.621Z</time>
      </trkpt>
      <trkpt lat="47.549380" lon="8.030702">
        <ele>316.918782</ele>
        <time>2021-11-18T01:39:13.461Z</time>
      </trkpt>
      <trkpt lat="47.549418" lon="8.028906">
        <ele>317.469683</ele>
        <time>2021-11-18T01:39:34.168Z</time>
      </trkpt>
      <trkpt lat="47.549431" lon="8.028306">
        <ele>317.658663</ele>
        <time>2021-11-18T01:39:40.913Z</time>
      </trkpt>
      <trkpt lat="47.549445" lon="8.027599">
        <ele>317.910448</ele>
        <time>2021-11-18T01:39:49.090Z</time>
      </trkpt>
      <trkpt lat="47.549454" lon="8.027138">
        <ele>318.089894</ele>
        <time>2021-11-18T01:39:54.616Z</time>
      </trkpt>
      <trkpt lat="47.549436" lon="8.026046">
        <ele>318.514908</ele>
        <time>2021-11-18T01:40:07.900Z</time>
      </trkpt>
      <trkpt lat="47.549322" lon="8.024323">
        <ele>318.779859</ele>
        <time>2021-11-18T01:40:26.504Z</time>
      </trkpt>
      <trkpt lat="47.549268" lon="8.023385">
        <ele>318.765985</ele>
        <time>2021-11-18T01:40:35.951Z</time>
      </trkpt>
      <trkpt lat="47.549201" lon="8.022146">
        <ele>318.424433</ele>
        <time>2021-11-18T01:40:47.168Z</time>
      </trkpt>
      <trkpt lat="47.549191" lon="8.021436">
        <ele>317.982102</ele>
        <time>2021-11-18T01:40:53.135Z</time>
      </trkpt>
      <trkpt lat="47.549186" lon="8.021006">
        <ele>317.714231</ele>
        <time>2021-11-18T01:40:56.720Z</time>
      </trkpt>
      <trkpt lat="47.549208" lon="8.019997">
        <ele>317.078772</ele>
        <time>2021-11-18T01:41:04.953Z</time>
      </trkpt>
      <trkpt lat="47.549261" lon="8.017878">
        <ele>314.899146</ele>
        <time>2021-11-18T01:41:21.075Z</time>
      </trkpt>
      <trkpt lat="47.549256" lon="8.017769">
        <ele>314.786846</ele>
        <time>2021-11-18T01:41:21.939Z</time>
      </trkpt>
      <trkpt lat="47.549291" lon="8.017761">
        <ele>314.732913</ele>
        <time>2021-11-18T01:41:22.336Z</time>
      </trkpt>
      <trkpt lat="47.549324" lon="8.017738">
        <ele>314.677373</ele>
        <time>2021-11-18T01:41:22.726Z</time>
      </trkpt>
      <trkpt lat="47.549351" lon="8.017702">
        <ele>314.622055</ele>
        <time>2021-11-18T01:41:23.128Z</time>
      </trkpt>
      <trkpt lat="47.549370" lon="8.017656">
        <ele>314.566621</ele>
        <time>2021-11-18T01:41:23.587Z</time>
      </trkpt>
      <trkpt lat="47.549379" lon="8.017603">
        <ele>314.510444</ele>
        <time>2021-11-18T01:41:23.993Z</time>
      </trkpt>
      <trkpt lat="47.549377" lon="8.017547">
        <ele>314.452801</ele>
        <time>2021-11-18T01:41:24.551Z</time>
      </trkpt>
      <trkpt lat="47.549310" lon="8.017418">
        <ele>314.299613</ele>
        <time>2021-11-18T01:41:25.897Z</time>
      </trkpt>
      <trkpt lat="47.549274" lon="8.017401">
        <ele>314.253520</ele>
        <time>2021-11-18T01:41:26.379Z</time>
      </trkpt>
      <trkpt lat="47.549281" lon="8.017304">
        <ele>314.173196</ele>
        <time>2021-11-18T01:41:27.094Z</time>
      </trkpt>
      <trkpt lat="47.549431" lon="8.015998">
        <ele>313.082402</ele>
        <time>2021-11-18T01:41:37.839Z</time>
      </trkpt>
      <trkpt lat="47.549589" lon="8.015316">
        <ele>312.488699</ele>
        <time>2021-11-18T01:41:43.683Z</time>
      </trkpt>
      <trkpt lat="47.549795" lon="8.014667">
        <ele>311.850477</ele>
        <time>2021-11-18T01:41:49.498Z</time>
      </trkpt>
      <trkpt lat="47.549871" lon="8.014427">
        <ele>311.592770</ele>
        <time>2021-11-18T01:41:51.634Z</time>
      </trkpt>
      <trkpt lat="47.550001" lon="8.014034">
        <ele>311.167318</ele>
        <time>2021-11-18T01:41:55.022Z</time>
      </trkpt>
      <trkpt lat="47.550565" lon="8.012461">
        <ele>309.538733</ele>
        <time>2021-11-18T01:42:08.629Z</time>
      </trkpt>
      <trkpt lat="47.550764" lon="8.011985">
        <ele>309.406420</ele>
        <time>2021-11-18T01:42:13.129Z</time>
      </trkpt>
      <trkpt lat="47.551187" lon="8.011080">
        <ele>309.146289</ele>
        <time>2021-11-18T01:42:23.247Z</time>
      </trkpt>
      <trkpt lat="47.551275" lon="8.010934">
        <ele>309.100033</ele>
        <time>2021-11-18T01:42:25.057Z</time>
      </trkpt>
      <trkpt lat="47.551902" lon="8.009884">
        <ele>309.469377</ele>
        <time>2021-11-18T01:42:42.011Z</time>
      </trkpt>
      <trkpt lat="47.552604" lon="8.008677">
        <ele>310.615044</ele>
        <time>2021-11-18T01:43:04.491Z</time>
      </trkpt>
      <trkpt lat="47.552640" lon="8.008615">
        <ele>310.673852</ele>
        <time>2021-11-18T01:43:06.077Z</time>
      </trkpt>
      <trkpt lat="47.552935" lon="8.007851">
        <ele>310.661088</ele>
        <time>2021-11-18T01:43:15.675Z</time>
      </trkpt>
      <trkpt lat="47.553173" lon="8.006642">
        <ele>310.262964</ele>
        <time>2021-11-18T01:43:26.478Z</time>
      </trkpt>
      <trkpt lat="47.553211" lon="8.006270">
        <ele>310.144026</ele>
        <time>2021-11-18T01:43:29.692Z</time>
      </trkpt>
      <trkpt lat="47.553220" lon="8.006182">
        <ele>310.115889</ele>
        <time>2021-11-18T01:43:30.283Z</time>
      </trkpt>
      <trkpt lat="47.553251" lon="8.005657">
        <ele>309.970165</ele>
        <time>2021-11-18T01:43:34.531Z</time>
      </trkpt>
      <trkpt lat="47.553256" lon="8.004837">
        <ele>309.792323</ele>
        <time>2021-11-18T01:43:41.455Z</time>
      </trkpt>
      <trkpt lat="47.553266" lon="8.003502">
        <ele>309.502783</ele>
        <time>2021-11-18T01:43:54.042Z</time>
      </trkpt>
      <trkpt lat="47.553270" lon="8.002465">
        <ele>309.863156</ele>
        <time>2021-11-18T01:44:06.714Z</time>
      </trkpt>
      <trkpt lat="47.553271" lon="8.002109">
        <ele>310.068497</ele>
        <time>2021-11-18T01:44:11.692Z</time>
      </trkpt>
      <trkpt lat="47.553273" lon="8.001687">
        <ele>310.311912</ele>
        <time>2021-11-18T01:44:17.372Z</time>
      </trkpt>
      <trkpt lat="47.553275" lon="7.999860">
        <ele>310.803471</ele>
        <time>2021-11-18T01:44:39.558Z</time>
      </trkpt>
      <trkpt lat="47.553278" lon="7.999508">
        <ele>310.714336</ele>
        <time>2021-11-18T01:44:43.105Z</time>
      </trkpt>
      <trkpt lat="47.553287" lon="7.998380">
        <ele>310.428702</ele>
        <time>2021-11-18T01:44:52.872Z</time>
      </trkpt>
      <trkpt lat="47.553287" lon="7.997190">
        <ele>309.392565</ele>
        <time>2021-11-18T01:45:02.171Z</time>
      </trkpt>
      <trkpt lat="47.553279" lon="7.996528">
        <ele>308.512030</ele>
        <time>2021-11-18T01:45:07.187Z</time>
      </trkpt>
      <trkpt lat="47.553268" lon="7.996252">
        <ele>308.144338</ele>
        <time>2021-11-18T01:45:09.259Z</time>
      </trkpt>
      <trkpt lat="47.553246" lon="7.995617">
        <ele>307.298739</ele>
        <time>2021-11-18T01:45:13.441Z</time>
      </trkpt>
      <trkpt lat="47.553164" lon="7.993925">
        <ele>305.700563</ele>
        <time>2021-11-18T01:45:26.960Z</time>
      </trkpt>
      <trkpt lat="47.553156" lon="7.993696">
        <ele>305.512700</ele>
        <time>2021-11-18T01:45:28.362Z</time>
      </trkpt>
      <trkpt lat="47.553137" lon="7.993190">
        <ele>305.097509</ele>
        <time>2021-11-18T01:45:32.974Z</time>
      </trkpt>
      <trkpt lat="47.553130" lon="7.993014">
        <ele>304.953067</ele>
        <time>2021-11-18T01:45:37.159Z</time>
      </trkpt>
      <trkpt lat="47.553107" lon="7.992226">
        <ele>304.425796</ele>
        <time>2021-11-18T01:45:43.874Z</time>
      </trkpt>
      <trkpt lat="47.553091" lon="7.991915">
        <ele>304.284624</ele>
        <time>2021-11-18T01:45:48.106Z</time>
      </trkpt>
      <trkpt lat="47.553050" lon="7.990744">
        <ele>303.753899</ele>
        <time>2021-11-18T01:46:00.929Z</time>
      </trkpt>
      <trkpt lat="47.553126" lon="7.990240">
        <ele>303.520156</ele>
        <time>2021-11-18T01:46:04.841Z</time>
      </trkpt>
      <trkpt lat="47.553146" lon="7.990113">
        <ele>303.461130</ele>
        <time>2021-11-18T01:46:05.770Z</time>
      </trkpt>
      <trkpt lat="47.553163" lon="7.990004">
        <ele>303.410495</ele>
        <time>2021-11-18T01:46:06.555Z</time>
      </trkpt>
      <trkpt lat="47.553214" lon="7.989758">
        <ele>302.979965</ele>
        <time>2021-11-18T01:46:08.334Z</time>
      </trkpt>
      <trkpt lat="47.553253" lon="7.989578">
        <ele>302.522953</ele>
        <time>2021-11-18T01:46:09.623Z</time>
      </trkpt>
      <trkpt lat="47.553352" lon="7.989142">
        <ele>301.410899</ele>
        <time>2021-11-18T01:46:12.719Z</time>
      </trkpt>
      <trkpt lat="47.553424" lon="7.988762">
        <ele>300.456761</ele>
        <time>2021-11-18T01:46:15.365Z</time>
      </trkpt>
      <trkpt lat="47.553410" lon="7.988607">
        <ele>300.078719</ele>
        <time>2021-11-18T01:46:16.396Z</time>
      </trkpt>
      <trkpt lat="47.553343" lon="7.988401">
        <ele>299.525919</ele>
        <time>2021-11-18T01:46:17.918Z</time>
      </trkpt>
      <trkpt lat="47.553232" lon="7.988247">
        <ele>298.981241</ele>
        <time>2021-11-18T01:46:19.390Z</time>
      </trkpt>
      <trkpt lat="47.552867" lon="7.987810">
        <ele>297.300378</ele>
        <time>2021-11-18T01:46:23.958Z</time>
      </trkpt>
      <trkpt lat="47.552713" lon="7.987638">
        <ele>296.734981</ele>
        <time>2021-11-18T01:46:25.796Z</time>
      </trkpt>
      <trkpt lat="47.552504" lon="7.987369">
        <ele>296.139038</ele>
        <time>2021-11-18T01:46:28.506Z</time>
      </trkpt>
      <trkpt lat="47.552436" lon="7.987273">
        <ele>295.936850</ele>
        <time>2021-11-18T01:46:29.450Z</time>
      </trkpt>
      <trkpt lat="47.552224" lon="7.986975">
        <ele>295.307794</ele>
        <time>2021-11-18T01:46:32.434Z</time>
      </trkpt>
      <trkpt lat="47.552152" lon="7.986883">
        <ele>295.103130</ele>
        <time>2021-11-18T01:46:33.415Z</time>
      </trkpt>
      <trkpt lat="47.551971" lon="7.986555">
        <ele>294.487582</ele>
        <time>2021-11-18T01:46:36.413Z</time>
      </trkpt>
      <trkpt lat="47.551917" lon="7.986288">
        <ele>294.082625</ele>
        <time>2021-11-18T01:46:38.494Z</time>
      </trkpt>
      <trkpt lat="47.551915" lon="7.986209">
        <ele>293.967767</ele>
        <time>2021-11-18T01:46:39.054Z</time>
      </trkpt>
      <trkpt lat="47.551898" lon="7.985654">
        <ele>293.160597</ele>
        <time>2021-11-18T01:46:44.561Z</time>
      </trkpt>
      <trkpt lat="47.551939" lon="7.985151">
        <ele>293.619847</ele>
        <time>2021-11-18T01:46:50.717Z</time>
      </trkpt>
      <trkpt lat="47.551934" lon="7.984260">
        <ele>294.791400</ele>
        <time>2021-11-18T01:47:04.299Z</time>
      </trkpt>
      <trkpt lat="47.551993" lon="7.984014">
        <ele>295.134663</ele>
        <time>2021-11-18T01:47:07.904Z</time>
      </trkpt>
      <trkpt lat="47.552007" lon="7.983931">
        <ele>295.247150</ele>
        <time>2021-11-18T01:47:09.478Z</time>
      </trkpt>
      <trkpt lat="47.552005" lon="7.983849">
        <ele>295.355036</ele>
        <time>2021-11-18T01:47:11.560Z</time>
      </trkpt>
      <trkpt lat="47.551911" lon="7.983632">
        <ele>295.694065</ele>
        <time>2021-11-18T01:47:15.753Z</time>
      </trkpt>
      <trkpt lat="47.551892" lon="7.983447">
        <ele>295.940109</ele>
        <time>2021-11-18T01:47:19.097Z</time>
      </trkpt>
      <trkpt lat="47.551861" lon="7.981113">
        <ele>299.446604</ele>
        <time>2021-11-18T01:48:02.387Z</time>
      </trkpt>
      <trkpt lat="47.551865" lon="7.980584">
        <ele>300.266108</ele>
        <time>2021-11-18T01:48:09.027Z</time>
      </trkpt>
      <trkpt lat="47.551873" lon="7.980135">
        <ele>300.645607</ele>
        <time>2021-11-18T01:48:13.784Z</time>
      </trkpt>
      <trkpt lat="47.551933" lon="7.979363">
        <ele>300.478597</ele>
        <time>2021-11-18T01:48:22.142Z</time>
      </trkpt>
      <trkpt lat="47.551923" lon="7.979308">
        <ele>300.466356</ele>
        <time>2021-11-18T01:48:22.510Z</time>
      </trkpt>
      <trkpt lat="47.551901" lon="7.979190">
        <ele>300.440046</ele>
        <time>2021-11-18T01:48:23.481Z</time>
      </trkpt>
      <trkpt lat="47.551829" lon="7.976305">
        <ele>299.989111</ele>
        <time>2021-11-18T01:48:48.530Z</time>
      </trkpt>
      <trkpt lat="47.551793" lon="7.974325">
        <ele>299.867724</ele>
        <time>2021-11-18T01:49:10.643Z</time>
      </trkpt>
      <trkpt lat="47.551755" lon="7.972603">
        <ele>299.858378</ele>
        <time>2021-11-18T01:49:27.941Z</time>
      </trkpt>
      <trkpt lat="47.551725" lon="7.970823">
        <ele>299.309431</ele>
        <time>2021-11-18T01:49:43.170Z</time>
      </trkpt>
      <trkpt lat="47.551734" lon="7.970034">
        <ele>299.023706</ele>
        <time>2021-11-18T01:49:50.130Z</time>
      </trkpt>
      <trkpt lat="47.551750" lon="7.968659">
        <ele>298.923367</ele>
        <time>2021-11-18T01:50:03.320Z</time>
      </trkpt>
      <trkpt lat="47.551825" lon="7.968445">
        <ele>298.930848</ele>
        <time>2021-11-18T01:50:05.572Z</time>
      </trkpt>
      <trkpt lat="47.551847" lon="7.968315">
        <ele>298.935006</ele>
        <time>2021-11-18T01:50:07.043Z</time>
      </trkpt>
      <trkpt lat="47.551839" lon="7.968208">
        <ele>298.938346</ele>
        <time>2021-11-18T01:50:08.245Z</time>
      </trkpt>
      <trkpt lat="47.551767" lon="7.967910">
        <ele>298.948167</ele>
        <time>2021-11-18T01:50:11.478Z</time>
      </trkpt>
      <trkpt lat="47.551902" lon="7.964650">
        <ele>299.558909</ele>
        <time>2021-11-18T01:50:47.873Z</time>
      </trkpt>
      <trkpt lat="47.551911" lon="7.964138">
        <ele>299.576086</ele>
        <time>2021-11-18T01:50:53.126Z</time>
      </trkpt>
      <trkpt lat="47.551918" lon="7.963725">
        <ele>299.505751</ele>
        <time>2021-11-18T01:50:57.272Z</time>
      </trkpt>
      <trkpt lat="47.551906" lon="7.962453">
        <ele>299.289174</ele>
        <time>2021-11-18T01:51:09.201Z</time>
      </trkpt>
      <trkpt lat="47.551859" lon="7.961133">
        <ele>298.984041</ele>
        <time>2021-11-18T01:51:20.795Z</time>
      </trkpt>
      <trkpt lat="47.551894" lon="7.960729">
        <ele>298.860439</ele>
        <time>2021-11-18T01:51:24.545Z</time>
      </trkpt>
      <trkpt lat="47.551882" lon="7.960631">
        <ele>298.830215</ele>
        <time>2021-11-18T01:51:25.315Z</time>
      </trkpt>
      <trkpt lat="47.551865" lon="7.960528">
        <ele>298.798038</ele>
        <time>2021-11-18T01:51:26.263Z</time>
      </trkpt>
      <trkpt lat="47.551677" lon="7.960100">
        <ele>298.643074</ele>
        <time>2021-11-18T01:51:30.786Z</time>
      </trkpt>
      <trkpt lat="47.551364" lon="7.959057">
        <ele>298.356978</ele>
        <time>2021-11-18T01:51:41.199Z</time>
      </trkpt>
      <trkpt lat="47.551300" lon="7.958844">
        <ele>298.356028</ele>
        <time>2021-11-18T01:51:43.792Z</time>
      </trkpt>
      <trkpt lat="47.550869" lon="7.957700">
        <ele>298.350695</ele>
        <time>2021-11-18T01:51:57.160Z</time>
      </trkpt>
      <trkpt lat="47.550745" lon="7.957569">
        <ele>298.349776</ele>
        <time>2021-11-18T01:51:59.395Z</time>
      </trkpt>
      <trkpt lat="47.550735" lon="7.957541">
        <ele>298.349647</ele>
        <time>2021-11-18T01:51:59.835Z</time>
      </trkpt>
      <trkpt lat="47.550613" lon="7.957254">
        <ele>298.348267</ele>
        <time>2021-11-18T01:52:03.175Z</time>
      </trkpt>
      <trkpt lat="47.550549" lon="7.957126">
        <ele>298.347618</ele>
        <time>2021-11-18T01:52:04.717Z</time>
      </trkpt>
      <trkpt lat="47.550445" lon="7.956918">
        <ele>298.355766</ele>
        <time>2021-11-18T01:52:07.387Z</time>
      </trkpt>
      <trkpt lat="47.550380" lon="7.956806">
        <ele>298.369561</ele>
        <time>2021-11-18T01:52:08.872Z</time>
      </trkpt>
      <trkpt lat="47.550205" lon="7.956552">
        <ele>298.403458</ele>
        <time>2021-11-18T01:52:12.582Z</time>
      </trkpt>
      <trkpt lat="47.549444" lon="7.955496">
        <ele>298.547727</ele>
        <time>2021-11-18T01:52:28.948Z</time>
      </trkpt>
      <trkpt lat="47.549157" lon="7.955099">
        <ele>298.605745</ele>
        <time>2021-11-18T01:52:34.749Z</time>
      </trkpt>
      <trkpt lat="47.549042" lon="7.954942">
        <ele>298.640185</ele>
        <time>2021-11-18T01:52:37.100Z</time>
      </trkpt>
      <trkpt lat="47.548833" lon="7.954652">
        <ele>298.703248</ele>
        <time>2021-11-18T01:52:41.457Z</time>
      </trkpt>
      <trkpt lat="47.548542" lon="7.954269">
        <ele>298.788972</ele>
        <time>2021-11-18T01:52:47.475Z</time>
      </trkpt>
      <trkpt lat="47.548342" lon="7.954009">
        <ele>298.847571</ele>
        <time>2021-11-18T01:52:51.657Z</time>
      </trkpt>
      <trkpt lat="47.548251" lon="7.953895">
        <ele>298.873816</ele>
        <time>2021-11-18T01:52:53.585Z</time>
      </trkpt>
      <trkpt lat="47.548115" lon="7.953729">
        <ele>298.912624</ele>
        <time>2021-11-18T01:52:56.454Z</time>
      </trkpt>
      <trkpt lat="47.547994" lon="7.953584">
        <ele>298.946898</ele>
        <time>2021-11-18T01:52:59.015Z</time>
      </trkpt>
      <trkpt lat="47.547871" lon="7.953437">
        <ele>298.981702</ele>
        <time>2021-11-18T01:53:01.606Z</time>
      </trkpt>
      <trkpt lat="47.547797" lon="7.953355">
        <ele>299.010236</ele>
        <time>2021-11-18T01:53:03.110Z</time>
      </trkpt>
      <trkpt lat="47.547624" lon="7.953160">
        <ele>299.096854</ele>
        <time>2021-11-18T01:53:06.603Z</time>
      </trkpt>
      <trkpt lat="47.547550" lon="7.953078">
        <ele>299.133677</ele>
        <time>2021-11-18T01:53:08.127Z</time>
      </trkpt>
      <trkpt lat="47.547458" lon="7.952975">
        <ele>299.179626</ele>
        <time>2021-11-18T01:53:10.141Z</time>
      </trkpt>
      <trkpt lat="47.547400" lon="7.952910">
        <ele>299.208605</ele>
        <time>2021-11-18T01:53:11.422Z</time>
      </trkpt>
      <trkpt lat="47.547090" lon="7.952543">
        <ele>299.366726</ele>
        <time>2021-11-18T01:53:17.871Z</time>
      </trkpt>
      <trkpt lat="47.546935" lon="7.952372">
        <ele>299.443732</ele>
        <time>2021-11-18T01:53:20.763Z</time>
      </trkpt>
      <trkpt lat="47.546776" lon="7.952185">
        <ele>299.524626</ele>
        <time>2021-11-18T01:53:24.087Z</time>
      </trkpt>
      <trkpt lat="47.546695" lon="7.952091">
        <ele>299.565625</ele>
        <time>2021-11-18T01:53:25.894Z</time>
      </trkpt>
      <trkpt lat="47.546634" lon="7.952024">
        <ele>299.595884</ele>
        <time>2021-11-18T01:53:27.337Z</time>
      </trkpt>
      <trkpt lat="47.546421" lon="7.951793">
        <ele>299.701069</ele>
        <time>2021-11-18T01:53:31.748Z</time>
      </trkpt>
      <trkpt lat="47.546231" lon="7.951558">
        <ele>299.668609</ele>
        <time>2021-11-18T01:53:36.301Z</time>
      </trkpt>
      <trkpt lat="47.546212" lon="7.951535">
        <ele>299.664309</ele>
        <time>2021-11-18T01:53:36.547Z</time>
      </trkpt>
      <trkpt lat="47.546135" lon="7.951406">
        <ele>299.643939</ele>
        <time>2021-11-18T01:53:38.356Z</time>
      </trkpt>
      <trkpt lat="47.545886" lon="7.951110">
        <ele>299.587991</ele>
        <time>2021-11-18T01:53:43.176Z</time>
      </trkpt>
      <trkpt lat="47.545824" lon="7.951061">
        <ele>299.575677</ele>
        <time>2021-11-18T01:53:44.318Z</time>
      </trkpt>
      <trkpt lat="47.545759" lon="7.950982">
        <ele>299.560943</ele>
        <time>2021-11-18T01:53:45.724Z</time>
      </trkpt>
      <trkpt lat="47.545727" lon="7.950947">
        <ele>299.553972</ele>
        <time>2021-11-18T01:53:46.525Z</time>
      </trkpt>
      <trkpt lat="47.545625" lon="7.950829">
        <ele>299.531292</ele>
        <time>2021-11-18T01:53:48.080Z</time>
      </trkpt>
      <trkpt lat="47.545567" lon="7.950765">
        <ele>299.518618</ele>
        <time>2021-11-18T01:53:49.113Z</time>
      </trkpt>
      <trkpt lat="47.545494" lon="7.950684">
        <ele>299.502635</ele>
        <time>2021-11-18T01:53:50.481Z</time>
      </trkpt>
      <trkpt lat="47.545434" lon="7.950668">
        <ele>299.491951</ele>
        <time>2021-11-18T01:53:51.566Z</time>
      </trkpt>
      <trkpt lat="47.545166" lon="7.950366">
        <ele>299.432942</ele>
        <time>2021-11-18T01:53:55.907Z</time>
      </trkpt>
      <trkpt lat="47.544901" lon="7.950044">
        <ele>299.386216</ele>
        <time>2021-11-18T01:54:00.040Z</time>
      </trkpt>
      <trkpt lat="47.544521" lon="7.949558">
        <ele>299.355298</ele>
        <time>2021-11-18T01:54:06.229Z</time>
      </trkpt>
      <trkpt lat="47.544239" lon="7.949202">
        <ele>299.332481</ele>
        <time>2021-11-18T01:54:11.137Z</time>
      </trkpt>
      <trkpt lat="47.543864" lon="7.948694">
        <ele>299.301186</ele>
        <time>2021-11-18T01:54:19.101Z</time>
      </trkpt>
      <trkpt lat="47.543760" lon="7.948548">
        <ele>299.292362</ele>
        <time>2021-11-18T01:54:21.343Z</time>
      </trkpt>
      <trkpt lat="47.543579" lon="7.948287">
        <ele>299.501396</ele>
        <time>2021-11-18T01:54:27.060Z</time>
      </trkpt>
      <trkpt lat="47.543532" lon="7.948214">
        <ele>299.657795</ele>
        <time>2021-11-18T01:54:28.186Z</time>
      </trkpt>
      <trkpt lat="47.543435" lon="7.948000">
        <ele>300.057424</ele>
        <time>2021-11-18T01:54:31.248Z</time>
      </trkpt>
      <trkpt lat="47.543407" lon="7.947938">
        <ele>300.173073</ele>
        <time>2021-11-18T01:54:33.106Z</time>
      </trkpt>
      <trkpt lat="47.543280" lon="7.947656">
        <ele>300.698637</ele>
        <time>2021-11-18T01:54:37.592Z</time>
      </trkpt>
      <trkpt lat="47.543142" lon="7.947250">
        <ele>301.403371</ele>
        <time>2021-11-18T01:54:45.056Z</time>
      </trkpt>
      <trkpt lat="47.543086" lon="7.947052">
        <ele>301.736195</ele>
        <time>2021-11-18T01:54:48.486Z</time>
      </trkpt>
      <trkpt lat="47.543056" lon="7.946935">
        <ele>301.930231</ele>
        <time>2021-11-18T01:54:51.327Z</time>
      </trkpt>
      <trkpt lat="47.543045" lon="7.946881">
        <ele>302.017679</ele>
        <time>2021-11-18T01:54:52.484Z</time>
      </trkpt>
      <trkpt lat="47.542982" lon="7.946547">
        <ele>302.555332</ele>
        <time>2021-11-18T01:54:57.884Z</time>
      </trkpt>
      <trkpt lat="47.542974" lon="7.946495">
        <ele>302.638017</ele>
        <time>2021-11-18T01:54:59.524Z</time>
      </trkpt>
      <trkpt lat="47.542960" lon="7.946400">
        <ele>302.788770</ele>
        <time>2021-11-18T01:55:01.590Z</time>
      </trkpt>
      <trkpt lat="47.542916" lon="7.945730">
        <ele>303.760825</ele>
        <time>2021-11-18T01:55:14.255Z</time>
      </trkpt>
      <trkpt lat="47.542913" lon="7.945267">
        <ele>304.355971</ele>
        <time>2021-11-18T01:55:22.751Z</time>
      </trkpt>
      <trkpt lat="47.543007" lon="7.943867">
        <ele>306.164343</ele>
        <time>2021-11-18T01:55:43.918Z</time>
      </trkpt>
      <trkpt lat="47.543161" lon="7.942213">
        <ele>306.468693</ele>
        <time>2021-11-18T01:56:02.324Z</time>
      </trkpt>
      <trkpt lat="47.543435" lon="7.940670">
        <ele>305.891343</ele>
        <time>2021-11-18T01:56:15.272Z</time>
      </trkpt>
      <trkpt lat="47.543826" lon="7.939433">
        <ele>304.334715</ele>
        <time>2021-11-18T01:56:25.673Z</time>
      </trkpt>
      <trkpt lat="47.544472" lon="7.937932">
        <ele>302.282081</ele>
        <time>2021-11-18T01:56:38.997Z</time>
      </trkpt>
      <trkpt lat="47.544705" lon="7.937395">
        <ele>301.527165</ele>
        <time>2021-11-18T01:56:43.837Z</time>
      </trkpt>
      <trkpt lat="47.544903" lon="7.936917">
        <ele>300.863954</ele>
        <time>2021-11-18T01:56:48.097Z</time>
      </trkpt>
      <trkpt lat="47.545074" lon="7.936484">
        <ele>300.270709</ele>
        <time>2021-11-18T01:56:51.928Z</time>
      </trkpt>
      <trkpt lat="47.545457" lon="7.935110">
        <ele>299.107094</ele>
        <time>2021-11-18T01:57:03.297Z</time>
      </trkpt>
      <trkpt lat="47.545674" lon="7.933625">
        <ele>298.146066</ele>
        <time>2021-11-18T01:57:16.377Z</time>
      </trkpt>
      <trkpt lat="47.545702" lon="7.933290">
        <ele>298.330211</ele>
        <time>2021-11-18T01:57:19.957Z</time>
      </trkpt>
      <trkpt lat="47.545724" lon="7.932758">
        <ele>298.770052</ele>
        <time>2021-11-18T01:57:26.223Z</time>
      </trkpt>
      <trkpt lat="47.545721" lon="7.931992">
        <ele>299.402182</ele>
        <time>2021-11-18T01:57:36.263Z</time>
      </trkpt>
      <trkpt lat="47.545696" lon="7.931497">
        <ele>299.811809</ele>
        <time>2021-11-18T01:57:43.469Z</time>
      </trkpt>
      <trkpt lat="47.545661" lon="7.930955">
        <ele>300.261121</ele>
        <time>2021-11-18T01:57:52.163Z</time>
      </trkpt>
      <trkpt lat="47.545563" lon="7.929641">
        <ele>301.515462</ele>
        <time>2021-11-18T01:58:14.503Z</time>
      </trkpt>
      <trkpt lat="47.545475" lon="7.928419">
        <ele>302.687724</ele>
        <time>2021-11-18T01:58:30.806Z</time>
      </trkpt>
      <trkpt lat="47.545421" lon="7.927686">
        <ele>301.975048</ele>
        <time>2021-11-18T01:58:36.909Z</time>
      </trkpt>
      <trkpt lat="47.545406" lon="7.927306">
        <ele>301.395243</ele>
        <time>2021-11-18T01:58:39.813Z</time>
      </trkpt>
      <trkpt lat="47.545407" lon="7.927001">
        <ele>300.930662</ele>
        <time>2021-11-18T01:58:42.100Z</time>
      </trkpt>
      <trkpt lat="47.545409" lon="7.926773">
        <ele>300.583343</ele>
        <time>2021-11-18T01:58:43.729Z</time>
      </trkpt>
      <trkpt lat="47.545417" lon="7.925848">
        <ele>299.174267</ele>
        <time>2021-11-18T01:58:50.064Z</time>
      </trkpt>
      <trkpt lat="47.545446" lon="7.925350">
        <ele>298.196334</ele>
        <time>2021-11-18T01:58:53.356Z</time>
      </trkpt>
      <trkpt lat="47.545466" lon="7.924880">
        <ele>297.063779</ele>
        <time>2021-11-18T01:58:56.409Z</time>
      </trkpt>
      <trkpt lat="47.545481" lon="7.924396">
        <ele>295.898573</ele>
        <time>2021-11-18T01:58:59.493Z</time>
      </trkpt>
      <trkpt lat="47.545521" lon="7.923709">
        <ele>294.240261</ele>
        <time>2021-11-18T01:59:04.030Z</time>
      </trkpt>
      <trkpt lat="47.545536" lon="7.923407">
        <ele>293.512013</ele>
        <time>2021-11-18T01:59:06.388Z</time>
      </trkpt>
      <trkpt lat="47.545553" lon="7.923142">
        <ele>292.871840</ele>
        <time>2021-11-18T01:59:08.117Z</time>
      </trkpt>
      <trkpt lat="47.545587" lon="7.922895">
        <ele>292.337303</ele>
        <time>2021-11-18T01:59:10.446Z</time>
      </trkpt>
      <trkpt lat="47.545641" lon="7.922610">
        <ele>292.076405</ele>
        <time>2021-11-18T01:59:12.456Z</time>
      </trkpt>
      <trkpt lat="47.545690" lon="7.922369">
        <ele>291.854569</ele>
        <time>2021-11-18T01:59:15.058Z</time>
      </trkpt>
      <trkpt lat="47.545699" lon="7.922325">
        <ele>291.814047</ele>
        <time>2021-11-18T01:59:15.319Z</time>
      </trkpt>
      <trkpt lat="47.545714" lon="7.922249">
        <ele>291.744259</ele>
        <time>2021-11-18T01:59:15.955Z</time>
      </trkpt>
      <trkpt lat="47.545778" lon="7.921947">
        <ele>291.465277</ele>
        <time>2021-11-18T01:59:19.016Z</time>
      </trkpt>
      <trkpt lat="47.545780" lon="7.921935">
        <ele>291.454383</ele>
        <time>2021-11-18T01:59:19.115Z</time>
      </trkpt>
      <trkpt lat="47.545810" lon="7.921755">
        <ele>291.290973</ele>
        <time>2021-11-18T01:59:20.376Z</time>
      </trkpt>
      <trkpt lat="47.545810" lon="7.921755">
        <ele>291.290973</ele>
        <time>2021-11-18T01:59:20.414Z</time>
      </trkpt>
      <trkpt lat="47.545881" lon="7.921096">
        <ele>290.702802</ele>
        <time>2021-11-18T01:59:25.738Z</time>
      </trkpt>
      <trkpt lat="47.545913" lon="7.920765">
        <ele>290.408094</ele>
        <time>2021-11-18T01:59:28.558Z</time>
      </trkpt>
      <trkpt lat="47.545973" lon="7.920313">
        <ele>290.021980</ele>
        <time>2021-11-18T01:59:33.703Z</time>
      </trkpt>
      <trkpt lat="47.546128" lon="7.919617">
        <ele>289.832265</ele>
        <time>2021-11-18T01:59:40.246Z</time>
      </trkpt>
      <trkpt lat="47.546262" lon="7.919081">
        <ele>289.684309</ele>
        <time>2021-11-18T01:59:46.093Z</time>
      </trkpt>
      <trkpt lat="47.546821" lon="7.916867">
        <ele>289.032216</ele>
        <time>2021-11-18T02:00:06.841Z</time>
      </trkpt>
      <trkpt lat="47.547032" lon="7.916218">
        <ele>288.817778</ele>
        <time>2021-11-18T02:00:13.331Z</time>
      </trkpt>
      <trkpt lat="47.547091" lon="7.916039">
        <ele>288.758480</ele>
        <time>2021-11-18T02:00:15.149Z</time>
      </trkpt>
      <trkpt lat="47.547113" lon="7.915971">
        <ele>288.736032</ele>
        <time>2021-11-18T02:00:15.748Z</time>
      </trkpt>
      <trkpt lat="47.547423" lon="7.915080">
        <ele>288.624271</ele>
        <time>2021-11-18T02:00:25.392Z</time>
      </trkpt>
      <trkpt lat="47.547994" lon="7.913433">
        <ele>289.011507</ele>
        <time>2021-11-18T02:00:45.111Z</time>
      </trkpt>
      <trkpt lat="47.548027" lon="7.913334">
        <ele>289.034599</ele>
        <time>2021-11-18T02:00:46.471Z</time>
      </trkpt>
      <trkpt lat="47.548412" lon="7.912168">
        <ele>289.804543</ele>
        <time>2021-11-18T02:01:02.874Z</time>
      </trkpt>
      <trkpt lat="47.549012" lon="7.910340">
        <ele>291.348938</ele>
        <time>2021-11-18T02:01:29.761Z</time>
      </trkpt>
      <trkpt lat="47.549102" lon="7.910058">
        <ele>291.639253</ele>
        <time>2021-11-18T02:01:33.882Z</time>
      </trkpt>
      <trkpt lat="47.549195" lon="7.909756">
        <ele>291.948192</ele>
        <time>2021-11-18T02:01:38.216Z</time>
      </trkpt>
      <trkpt lat="47.549327" lon="7.909318">
        <ele>292.394621</ele>
        <time>2021-11-18T02:01:44.402Z</time>
      </trkpt>
      <trkpt lat="47.549435" lon="7.908959">
        <ele>292.760421</ele>
        <time>2021-11-18T02:01:49.424Z</time>
      </trkpt>
      <trkpt lat="47.549520" lon="7.908678">
        <ele>293.047005</ele>
        <time>2021-11-18T02:01:53.500Z</time>
      </trkpt>
      <trkpt lat="47.549539" lon="7.908625">
        <ele>293.102857</ele>
        <time>2021-11-18T02:01:54.222Z</time>
      </trkpt>
      <trkpt lat="47.550497" lon="7.905558">
        <ele>298.436684</ele>
        <time>2021-11-18T02:02:49.171Z</time>
      </trkpt>
      <trkpt lat="47.550283" lon="7.905413">
        <ele>299.298670</ele>
        <time>2021-11-18T02:02:57.337Z</time>
      </trkpt>
      <trkpt lat="47.550067" lon="7.905245">
        <ele>300.192295</ele>
        <time>2021-11-18T02:03:06.023Z</time>
      </trkpt>
      <trkpt lat="47.549867" lon="7.905155">
        <ele>300.957960</ele>
        <time>2021-11-18T02:03:13.652Z</time>
      </trkpt>
      <trkpt lat="47.549868" lon="7.905010">
        <ele>301.316476</ele>
        <time>2021-11-18T02:03:17.057Z</time>
      </trkpt>
      <trkpt lat="47.550025" lon="7.904774">
        <ele>302.135744</ele>
        <time>2021-11-18T02:03:25.208Z</time>
      </trkpt>
      <trkpt lat="47.550302" lon="7.904164">
        <ele>303.953461</ele>
        <time>2021-11-18T02:03:43.507Z</time>
      </trkpt>
      <trkpt lat="47.550498" lon="7.903445">
        <ele>305.868718</ele>
        <time>2021-11-18T02:04:03.079Z</time>
      </trkpt>
      <trkpt lat="47.550688" lon="7.902451">
        <ele>308.419683</ele>
        <time>2021-11-18T02:04:25.627Z</time>
      </trkpt>
      <trkpt lat="47.550757" lon="7.901591">
        <ele>310.558183</ele>
        <time>2021-11-18T02:04:45.423Z</time>
      </trkpt>
      <trkpt lat="47.550769" lon="7.901362">
        <ele>311.154368</ele>
        <time>2021-11-18T02:04:51.331Z</time>
      </trkpt>
      <trkpt lat="47.550801" lon="7.900244">
        <ele>314.371135</ele>
        <time>2021-11-18T02:05:15.729Z</time>
      </trkpt>
      <trkpt lat="47.550819" lon="7.898109">
        <ele>319.838028</ele>
        <time>2021-11-18T02:06:02.769Z</time>
      </trkpt>
      <trkpt lat="47.550648" lon="7.896481">
        <ele>322.901456</ele>
        <time>2021-11-18T02:06:30.424Z</time>
      </trkpt>
      <trkpt lat="47.550639" lon="7.896345">
        <ele>323.155538</ele>
        <time>2021-11-18T02:06:32.799Z</time>
      </trkpt>
      <trkpt lat="47.550660" lon="7.896255">
        <ele>323.332595</ele>
        <time>2021-11-18T02:06:33.600Z</time>
      </trkpt>
      <trkpt lat="47.550838" lon="7.895509">
        <ele>324.128054</ele>
        <time>2021-11-18T02:06:43.768Z</time>
      </trkpt>
      <trkpt lat="47.550878" lon="7.895158">
        <ele>324.429114</ele>
        <time>2021-11-18T02:06:47.830Z</time>
      </trkpt>
      <trkpt lat="47.550908" lon="7.894308">
        <ele>325.148984</ele>
        <time>2021-11-18T02:06:58.302Z</time>
      </trkpt>
      <trkpt lat="47.550892" lon="7.893176">
        <ele>326.747308</ele>
        <time>2021-11-18T02:07:13.020Z</time>
      </trkpt>
      <trkpt lat="47.550904" lon="7.891725">
        <ele>330.700021</ele>
        <time>2021-11-18T02:07:42.782Z</time>
      </trkpt>
      <trkpt lat="47.550915" lon="7.890600">
        <ele>334.142307</ele>
        <time>2021-11-18T02:08:11.622Z</time>
      </trkpt>
      <trkpt lat="47.550833" lon="7.889069">
        <ele>340.622565</ele>
        <time>2021-11-18T02:08:54.256Z</time>
      </trkpt>
      <trkpt lat="47.550831" lon="7.888611">
        <ele>342.555106</ele>
        <time>2021-11-18T02:09:06.826Z</time>
      </trkpt>
      <trkpt lat="47.550789" lon="7.887816">
        <ele>345.779088</ele>
        <time>2021-11-18T02:09:27.438Z</time>
      </trkpt>
      <trkpt lat="47.550758" lon="7.887295">
        <ele>347.791631</ele>
        <time>2021-11-18T02:09:41.259Z</time>
      </trkpt>
      <trkpt lat="47.550677" lon="7.886476">
        <ele>350.976738</ele>
        <time>2021-11-18T02:10:02.748Z</time>
      </trkpt>
      <trkpt lat="47.550548" lon="7.885799">
        <ele>353.683614</ele>
        <time>2021-11-18T02:10:19.951Z</time>
      </trkpt>
      <trkpt lat="47.550391" lon="7.885109">
        <ele>356.032466</ele>
        <time>2021-11-18T02:10:37.588Z</time>
      </trkpt>
      <trkpt lat="47.550332" lon="7.884727">
        <ele>357.182643</ele>
        <time>2021-11-18T02:10:46.279Z</time>
      </trkpt>
      <trkpt lat="47.550234" lon="7.883221">
        <ele>361.623355</ele>
        <time>2021-11-18T02:11:19.110Z</time>
      </trkpt>
      <trkpt lat="47.549927" lon="7.881490">
        <ele>366.101440</ele>
        <time>2021-11-18T02:11:51.374Z</time>
      </trkpt>
      <trkpt lat="47.549726" lon="7.880786">
        <ele>367.956800</ele>
        <time>2021-11-18T02:12:07.351Z</time>
      </trkpt>
      <trkpt lat="47.549327" lon="7.879547">
        <ele>371.683709</ele>
        <time>2021-11-18T02:12:37.248Z</time>
      </trkpt>
      <trkpt lat="47.549318" lon="7.879398">
        <ele>372.105972</ele>
        <time>2021-11-18T02:12:40.529Z</time>
      </trkpt>
      <trkpt lat="47.549140" lon="7.879391">
        <ele>372.850639</ele>
        <time>2021-11-18T02:12:47.052Z</time>
      </trkpt>
      <trkpt lat="47.548718" lon="7.879258">
        <ele>374.654952</ele>
        <time>2021-11-18T02:13:00.893Z</time>
      </trkpt>
      <trkpt lat="47.548422" lon="7.878959">
        <ele>376.153183</ele>
        <time>2021-11-18T02:13:11.535Z</time>
      </trkpt>
      <trkpt lat="47.548234" lon="7.878638">
        <ele>376.617616</ele>
        <time>2021-11-18T02:13:19.796Z</time>
      </trkpt>
      <trkpt lat="47.548151" lon="7.878411">
        <ele>376.791219</ele>
        <time>2021-11-18T02:13:24.393Z</time>
      </trkpt>
      <trkpt lat="47.548083" lon="7.878223">
        <ele>376.934646</ele>
        <time>2021-11-18T02:13:28.261Z</time>
      </trkpt>
      <trkpt lat="47.547992" lon="7.877974">
        <ele>377.125053</ele>
        <time>2021-11-18T02:13:33.245Z</time>
      </trkpt>
      <trkpt lat="47.547574" lon="7.876801">
        <ele>378.017015</ele>
        <time>2021-11-18T02:13:46.624Z</time>
      </trkpt>
      <trkpt lat="47.547126" lon="7.875801">
        <ele>375.813628</ele>
        <time>2021-11-18T02:13:55.445Z</time>
      </trkpt>
      <trkpt lat="47.546309" lon="7.874154">
        <ele>370.120029</ele>
        <time>2021-11-18T02:14:08.634Z</time>
      </trkpt>
      <trkpt lat="47.546135" lon="7.873859">
        <ele>368.401193</ele>
        <time>2021-11-18T02:14:11.016Z</time>
      </trkpt>
      <trkpt lat="47.546077" lon="7.873763">
        <ele>367.835916</ele>
        <time>2021-11-18T02:14:11.827Z</time>
      </trkpt>
      <trkpt lat="47.545934" lon="7.873549">
        <ele>366.514722</ele>
        <time>2021-11-18T02:14:13.631Z</time>
      </trkpt>
      <trkpt lat="47.545833" lon="7.873416">
        <ele>365.636365</ele>
        <time>2021-11-18T02:14:14.870Z</time>
      </trkpt>
      <trkpt lat="47.545746" lon="7.873302">
        <ele>364.881403</ele>
        <time>2021-11-18T02:14:15.920Z</time>
      </trkpt>
      <trkpt lat="47.545515" lon="7.873015">
        <ele>362.921773</ele>
        <time>2021-11-18T02:14:18.619Z</time>
      </trkpt>
      <trkpt lat="47.545478" lon="7.872968">
        <ele>362.604969</ele>
        <time>2021-11-18T02:14:19.060Z</time>
      </trkpt>
      <trkpt lat="47.545375" lon="7.872836">
        <ele>361.719726</ele>
        <time>2021-11-18T02:14:20.254Z</time>
      </trkpt>
      <trkpt lat="47.545131" lon="7.872664">
        <ele>359.963332</ele>
        <time>2021-11-18T02:14:22.713Z</time>
      </trkpt>
      <trkpt lat="47.544883" lon="7.872555">
        <ele>359.910224</ele>
        <time>2021-11-18T02:14:25.035Z</time>
      </trkpt>
      <trkpt lat="47.544390" lon="7.872423">
        <ele>359.910224</ele>
        <time>2021-11-18T02:14:29.496Z</time>
      </trkpt>
      <trkpt lat="47.543332" lon="7.872237">
        <ele>359.910224</ele>
        <time>2021-11-18T02:14:39.334Z</time>
      </trkpt>
      <trkpt lat="47.543251" lon="7.872152">
        <ele>359.910224</ele>
        <time>2021-11-18T02:14:40.360Z</time>
      </trkpt>
      <trkpt lat="47.543233" lon="7.872082">
        <ele>359.910224</ele>
        <time>2021-11-18T02:14:40.785Z</time>
      </trkpt>
      <trkpt lat="47.543062" lon="7.872160">
        <ele>359.910224</ele>
        <time>2021-11-18T02:14:42.712Z</time>
      </trkpt>
    </trkseg>
  </trk>
</gpx>